GFSGBSN_con_sbcape_000.txt.gz
CAPE
29 32 71 79 21 35 78 102 117 117 58 69 32 6 6 6 8 1 0 0 0 2 0 8 20 37 1 11 0 0 0 0 0 0 0 0 0 0 0 0 0 0 0 0 0 0 0
18 15 34 49 90 100 26 32 78 112 90 88 65 23 5 3 9 2 0 0 0 0 8 0 25 18 0 0 0 0 0 0 0 0 0 0 0 0 0 0 0 0 1 0 0 0 0
17 17 7 20 75 113 84 67 66 113 111 94 79 55 44 7 7 7 0 9 12 0 1 5 24 9 15 0 0 0 0 0 0 1 13 14 0 12 13 0 0 0 0 0 0 0 0
42 43 18 3 29 45 94 117 125 110 138 117 98 97 61 38 28 23 12 27 2 18 8 24 34 16 0 0 0 0 0 0 0 0 0 0 0 34 23 21 0 0 0 4 0 0 0
25 32 32 34 17 17 54 140 125 116 114 140 118 97 76 50 53 52 47 31 12 0 11 29 3 2 0 0 0 0 0 0 0 0 0 0 0 0 0 32 21 3 4 0 5 1 10
25 29 21 47 29 14 19 53 170 139 141 98 102 108 91 62 65 70 63 30 22 20 18 23 15 11 0 0 0 0 0 0 0 0 0 0 0 0 0 23 8 8 12 0 0 6 18
39 36 39 42 61 36 16 28 29 174 159 106 91 88 97 70 60 66 12 0 0 0 16 0 0 0 0 0 0 0 0 0 0 0 0 0 10 3 0 0 0 0 1 0 0 2 0
51 46 76 62 59 61 39 31 20 33 164 125 68 95 97 91 71 70 0 0 0 0 0 0 0 0 0 0 0 0 0 0 0 0 0 0 6 0 0 0 0 0 0 0 0 0 0
41 30 58 84 42 35 67 41 56 25 184 148 105 108 100 92 76 52 4 1 0 0 0 0 0 0 0 2 1 2 0 0 0 4 4 1 0 0 0 0 2 0 0 0 0 0 0
69 69 47 83 68 54 52 71 68 40 90 112 122 152 113 73 28 0 11 0 0 3 0 0 0 0 9 22 21 4 0 0 6 2 1 3 0 0 0 5 0 1 0 0 0 32 0
85 104 72 94 89 93 95 101 77 91 27 79 101 168 117 12 0 1 0 0 0 13 0 0 0 0 14 7 3 0 1 9 8 0 0 0 0 0 0 0 0 0 0 0 11 15 22
89 96 81 117 87 136 106 60 53 68 74 48 81 164 31 0 0 0 0 0 8 3 0 0 0 0 11 11 12 5 18 26 9 12 11 0 0 0 0 0 0 15 5 5 15 42 16
88 98 94 112 116 185 154 88 128 83 20 78 8 119 2 0 0 0 0 1 2 0 0 1 4 2 0 6 9 19 6 32 12 10 5 11 3 0 0 0 0 11 25 41 29 22 8
112 118 118 110 77 151 138 80 138 110 23 54 24 30 0 0 0 0 0 18 0 0 0 0 0 0 2 0 12 6 29 11 29 11 19 2 2 0 0 0 0 0 1 15 3 2 0
138 142 111 103 96 84 124 43 217 88 15 16 59 16 1 2 0 0 1 20 0 0 0 0 3 8 8 12 1 15 31 10 1 6 5 4 2 0 0 0 0 0 16 0 6 15 23
126 136 126 112 70 80 75 44 120 57 26 50 48 2 3 5 1 2 14 0 0 0 0 0 0 2 3 1 8 6 8 0 4 0 0 0 0 0 0 34 3 5 0 3 20 9 22
108 111 129 62 61 58 72 63 64 69 61 36 5 11 23 7 8 26 11 0 0 0 0 0 7 13 0 0 0 0 0 0 0 0 0 0 0 1 0 0 59 19 25 21 0 9 42
100 103 96 55 76 138 74 97 77 69 64 37 54 13 32 14 17 14 18 5 0 0 1 4 1 7 0 0 0 0 0 0 0 0 0 0 31 5 0 0 0 1 0 0 4 0 7
117 92 75 49 123 157 71 87 69 99 51 77 55 22 26 11 6 8 8 5 7 26 15 10 8 4 0 1 0 0 0 0 0 0 0 6 52 6 8 11 10 76 0 11 0 35 15
104 96 78 52 102 123 83 84 86 69 52 55 32 17 33 17 23 5 6 14 10 12 13 13 22 6 16 24 0 0 0 0 0 0 28 9 22 19 5 3 6 12 19 4 10 20 2
98 95 92 43 57 59 115 102 71 65 23 47 46 22 12 11 16 1 4 13 1 15 3 3 7 6 8 5 0 0 0 0 0 14 28 10 4 0 2 6 6 5 10 2 21 0 0
96 90 97 54 58 40 87 117 79 62 4 70 34 14 14 0 4 11 5 19 20 24 19 8 3 5 0 9 0 0 0 0 2 4 9 8 1 4 6 0 5 8 3 14 1 1 2
90 85 84 44 44 39 91 85 102 35 26 13 16 0 8 1 2 5 6 2 0 9 4 0 7 11 8 0 3 24 7 0 0 15 0 1 4 4 4 11 3 20 1 0 0 2 0
77 82 84 63 46 56 86 84 72 39 55 32 6 0 14 13 3 7 4 0 0 0 0 8 1 9 2 5 11 25 6 0 0 0 0 0 2 6 4 6 0 0 0 0 1 0 0
85 78 76 69 38 48 48 63 65 38 40 20 6 0 0 11 0 0 0 0 0 0 0 14 7 3 0 2 37 10 2 4 0 0 0 0 0 0 0 0 0 0 0 0 0 0 0
86 81 72 67 33 26 52 48 67 47 49 15 0 0 0 3 4 0 0 0 0 0 0 0 0 0 2 32 31 17 1 0 0 0 0 0 0 6 0 0 0 0 0 0 0 0 0
82 84 64 40 42 35 36 45 52 56 52 18 0 0 0 1 0 0 0 0 0 0 1 0 2 2 1 18 14 9 0 0 0 0 3 0 0 0 0 0 0 0 0 0 0 0 0
85 76 51 26 44 35 22 46 61 39 34 32 9 0 1 1 0 0 0 0 0 0 3 3 14 4 1 3 1 6 0 0 0 0 0 1 4 0 0 0 0 0 0 0 0 0 0
65 76 72 17 37 31 12 39 45 30 26 24 2 0 0 0 0 0 0 0 0 0 1 3 2 1 0 5 0 0 0 0 2 0 0 1 0 0 0 0 0 0 0 0 0 0 0

GFSGBSN_con_sbcape_003.txt.gz
CAPE
23 12 10 10 9 14 35 94 104 100 57 56 119 51 27 7 8 15 10 13 8 12 0 8 12 17 6 5 0 0 0 0 0 3 0 2 0 0 0 0 0 0 0 0 0 0 0
29 31 22 13 11 15 11 17 138 108 76 52 142 79 47 15 10 16 12 10 8 14 21 9 21 10 0 0 0 0 0 0 0 0 0 0 0 2 0 0 0 0 0 0 0 0 0
23 19 19 26 35 18 9 13 53 122 95 71 97 116 85 51 27 16 18 24 30 24 18 18 33 5 0 0 0 0 0 0 0 0 0 0 0 33 16 13 0 0 0 0 0 0 0
26 31 36 31 38 43 32 29 29 48 109 101 117 106 89 80 61 47 29 31 52 35 35 25 38 13 0 0 0 0 0 0 0 0 0 0 2 11 29 13 1 12 1 0 0 0 0
21 24 27 28 40 58 51 34 45 28 23 125 126 104 103 82 74 61 70 53 36 17 30 45 0 0 0 0 0 0 0 0 0 0 0 0 0 0 7 32 22 9 0 0 2 0 9
19 19 18 22 22 43 44 43 33 18 8 35 132 130 104 89 84 66 80 64 48 24 29 12 2 2 0 0 0 0 0 0 0 0 0 0 1 4 7 28 2 1 11 6 3 0 0
33 34 25 24 27 25 47 43 42 30 11 36 45 103 116 127 83 88 33 0 0 0 24 0 0 0 0 0 0 0 0 0 0 0 0 0 7 10 0 0 6 1 0 5 0 0 0
43 56 42 43 31 27 42 52 57 28 29 22 27 125 136 140 127 96 0 0 0 0 0 0 0 0 0 0 0 0 0 0 0 0 0 0 0 0 0 0 0 0 21 15 2 1 1
58 72 68 80 47 61 81 68 68 73 33 44 46 121 146 145 132 39 0 0 0 0 0 0 0 0 0 0 1 0 0 0 0 0 0 0 0 0 0 0 0 0 0 11 8 0 0
78 86 85 76 67 64 82 91 83 66 66 62 47 19 143 151 30 7 10 0 0 0 0 0 0 0 0 8 10 0 0 0 0 0 0 8 0 0 0 0 0 4 0 0 0 3 2
75 84 84 100 92 76 89 99 132 96 86 83 90 56 172 18 0 4 0 0 0 0 0 0 0 0 7 0 0 0 0 3 2 0 0 0 0 0 0 0 0 2 0 0 15 29 18
88 103 114 113 101 127 125 149 188 107 74 117 76 94 184 0 0 0 0 0 22 0 0 0 1 1 16 13 13 2 0 14 2 0 3 0 0 0 0 0 0 3 3 0 0 0 12
87 114 170 150 126 137 186 187 171 127 112 127 64 97 45 0 0 0 0 0 2 2 0 1 2 5 0 6 7 14 22 24 29 24 1 36 3 0 0 0 0 0 7 23 16 10 5
95 113 156 204 150 129 102 91 84 100 117 94 66 65 71 0 0 0 0 0 0 0 0 0 0 4 0 0 2 1 20 19 32 3 12 0 1 2 0 0 0 0 0 0 2 0 0
126 140 140 198 145 96 82 80 47 105 113 82 15 34 96 1 0 2 0 0 0 0 0 0 2 4 7 2 0 9 24 0 0 6 0 0 0 0 0 0 0 4 26 0 0 0 33
115 135 146 119 85 66 75 85 59 91 93 101 56 0 58 9 0 7 0 0 0 0 0 0 0 1 0 3 6 9 1 0 0 0 0 1 1 0 0 0 0 0 0 13 10 27 16
104 123 131 100 73 47 64 99 80 77 72 17 8 6 42 2 9 15 2 0 0 0 0 0 0 1 0 0 0 0 0 0 0 0 0 3 0 0 0 10 1 8 6 2 0 0 14
107 112 114 84 67 27 39 77 70 67 61 27 10 2 36 13 10 13 1 0 0 0 0 0 0 1 0 0 0 0 0 0 0 0 4 3 8 0 0 0 0 3 0 0 12 0 0
108 103 117 83 68 49 66 50 56 83 84 35 19 38 39 9 3 7 11 1 0 6 0 6 1 3 0 0 0 0 0 0 0 0 0 1 47 1 52 21 11 71 0 0 0 2 0
105 94 115 90 75 86 100 57 34 78 49 41 36 6 41 39 18 2 3 1 1 8 3 11 12 3 2 1 0 0 0 0 0 0 15 5 23 9 0 15 17 7 6 0 0 0 0
102 103 115 105 56 44 72 54 35 72 33 48 21 26 1 13 6 0 5 7 0 3 12 6 9 17 6 3 1 0 0 0 0 10 9 19 4 2 1 1 16 15 6 1 6 0 0
94 98 114 80 89 33 38 72 48 72 37 18 34 24 11 0 10 2 3 1 18 0 20 13 8 3 6 15 0 0 0 0 0 9 8 19 6 3 6 5 4 9 2 25 0 3 1
88 93 102 90 64 25 32 68 62 79 54 10 5 1 0 4 16 7 0 0 2 16 15 1 0 3 10 6 0 0 0 0 1 5 10 8 4 5 2 7 9 17 5 4 1 2 2
91 106 96 86 81 27 23 33 56 66 60 37 16 5 23 7 5 3 10 0 0 0 0 7 3 19 3 1 1 0 0 0 1 1 0 2 3 4 0 7 0 0 0 0 2 0 0
90 95 111 82 37 32 24 39 53 54 44 22 13 17 14 19 3 7 7 0 0 1 0 0 0 0 2 3 20 11 1 12 0 0 0 0 1 12 2 0 0 0 4 9 1 0 0
83 77 84 71 25 32 25 26 55 50 27 8 0 3 0 0 13 2 5 0 0 0 0 0 0 0 2 10 40 31 0 0 0 0 0 0 0 2 0 0 0 0 0 0 0 0 0
71 61 68 63 23 28 32 28 55 41 25 24 3 5 0 0 0 0 0 0 0 0 0 0 1 11 2 14 48 12 0 0 0 0 0 0 0 0 0 0 0 0 0 0 0 0 0
62 68 68 43 41 16 28 21 47 42 29 31 2 0 3 16 0 0 0 0 0 0 0 0 10 8 13 4 17 1 0 0 0 0 0 0 0 0 0 0 0 0 0 0 0 0 0
49 62 54 51 43 17 24 17 30 26 31 29 13 5 0 1 0 0 0 0 0 0 1 0 5 2 10 1 0 0 0 0 0 0 0 0 0 0 0 0 0 0 0 0 0 0 0

GFSGBSN_con_sbcape_006.txt.gz
CAPE
31 22 18 20 13 12 15 15 35 17 111 78 114 105 106 55 12 2 10 7 13 13 9 26 39 35 42 11 1 0 0 0 0 0 6 2 1 0 0 0 0 0 0 0 0 0 0
19 23 17 27 33 24 15 32 27 7 5 142 102 134 140 98 41 20 6 6 12 9 28 19 56 15 0 0 0 0 0 0 0 4 5 1 7 0 0 0 0 0 0 0 0 0 0
25 21 22 28 22 19 30 44 43 23 12 65 136 149 189 118 79 20 15 11 14 5 18 16 47 3 0 0 0 0 0 0 0 0 0 0 0 12 4 0 0 0 0 0 0 0 0
21 19 21 21 18 20 28 33 43 33 17 13 33 105 124 111 100 69 32 19 35 45 57 32 53 8 0 0 0 0 0 0 0 0 0 0 0 4 3 0 0 4 2 1 0 0 0
20 24 26 18 25 31 29 20 34 46 28 20 21 24 108 135 128 105 88 62 46 25 37 42 0 0 0 0 0 0 0 0 0 0 0 0 0 0 1 3 0 1 0 0 0 0 0
38 26 25 26 27 40 32 33 55 62 39 25 22 8 13 110 144 101 123 74 58 28 9 0 0 0 0 0 0 0 0 0 0 0 0 0 0 1 2 1 0 0 3 0 0 0 0
39 35 40 43 29 30 32 35 50 83 56 49 32 33 5 25 127 103 47 0 0 13 24 0 0 0 0 0 0 0 0 0 0 0 0 0 2 6 1 0 0 0 0 0 0 0 0
44 67 64 83 72 31 14 28 71 81 68 44 55 29 24 5 173 62 0 0 0 0 0 0 0 0 0 0 0 0 0 0 0 0 0 1 1 0 0 0 0 2 7 1 0 0 0
73 87 85 84 101 90 73 54 69 93 92 88 54 32 17 7 102 11 0 0 0 0 0 0 0 0 0 0 0 0 0 0 0 0 0 0 0 0 0 0 0 0 0 0 0 0 0
75 75 78 97 107 97 104 78 93 114 114 95 64 20 23 20 37 2 2 0 0 0 0 0 1 0 0 0 0 0 0 0 0 0 0 0 0 0 0 0 0 1 0 0 0 0 0
60 63 69 110 108 134 104 150 147 141 142 69 62 18 18 30 20 2 0 0 0 0 0 0 0 0 0 0 0 0 0 1 0 0 0 0 0 0 0 0 0 2 0 0 4 15 8
85 99 105 130 134 150 152 185 151 145 104 29 86 40 45 22 16 0 0 0 0 0 0 0 0 21 13 3 12 0 2 7 2 1 1 0 0 0 0 0 0 1 0 0 0 19 1
88 99 114 143 161 193 177 107 67 70 70 152 123 71 74 17 13 0 0 0 0 0 0 2 4 13 12 14 10 7 3 8 16 15 8 15 1 0 0 0 0 0 7 3 19 11 0
93 106 116 147 161 114 95 47 53 57 95 131 116 92 29 44 79 0 2 0 0 0 0 0 0 3 2 5 7 7 13 24 17 9 17 0 0 0 0 0 0 0 0 0 0 13 0
106 108 115 123 116 102 54 38 49 84 76 83 98 65 82 12 56 0 2 0 0 0 0 0 1 1 2 0 0 8 16 5 0 9 18 1 0 0 0 0 0 33 1 0 0 0 1
91 105 113 105 104 86 52 57 70 105 76 60 51 15 16 16 26 28 0 0 0 0 0 0 0 0 0 1 0 5 0 0 5 2 1 0 5 0 0 0 0 8 0 21 4 0 0
105 116 114 101 94 69 56 49 60 72 60 66 14 13 60 18 38 14 0 0 0 0 0 0 0 0 0 0 0 3 0 0 0 0 0 0 3 0 8 0 1 4 11 1 2 0 0
107 110 124 115 95 73 51 46 63 65 62 39 13 0 50 72 10 13 0 0 0 0 0 1 0 0 0 0 0 0 0 0 0 0 0 5 39 1 0 0 0 0 0 0 1 0 0
113 120 103 130 107 97 50 45 47 65 88 34 12 51 30 28 3 6 0 0 0 0 0 0 0 0 5 0 0 0 0 0 0 0 0 1 33 3 0 1 1 11 0 0 0 0 0
111 117 104 127 117 90 48 54 48 74 44 16 13 12 39 37 21 0 0 0 0 0 0 2 6 0 0 4 0 0 0 0 0 0 0 1 36 3 0 1 4 13 4 0 1 2 0
118 112 100 104 103 77 42 54 40 62 31 19 14 7 3 1 14 0 2 0 0 0 0 12 20 10 6 23 0 0 0 0 0 0 21 14 4 6 3 0 4 13 9 4 2 0 0
116 101 99 110 88 63 28 73 56 62 45 1 8 1 0 0 0 0 0 0 0 1 18 7 2 0 4 15 0 0 0 0 0 0 4 15 1 0 2 14 2 14 17 16 8 0 0
102 105 84 84 72 20 29 78 66 57 54 11 4 3 2 14 6 0 0 0 0 4 0 0 1 12 12 12 4 1 0 0 0 0 8 5 3 9 0 15 9 11 4 4 4 0 0
83 104 66 70 54 16 24 45 56 63 67 20 16 15 28 9 8 0 0 0 0 7 2 0 1 12 9 6 4 0 0 0 0 0 0 1 5 3 0 5 1 0 0 0 0 0 0
73 75 72 51 47 20 26 21 36 48 45 21 7 15 27 4 10 0 13 0 0 5 4 2 0 2 18 25 22 13 0 0 0 0 0 0 6 8 5 0 0 0 2 0 1 0 0
66 68 73 55 50 37 24 23 18 42 32 7 1 3 7 0 0 0 5 3 2 2 2 6 0 0 22 38 10 17 0 0 0 0 0 0 0 5 1 0 0 0 0 0 0 0 0
27 53 64 44 29 37 22 29 11 44 30 12 4 1 4 2 0 9 4 4 0 0 0 0 0 1 11 27 23 25 0 0 0 0 0 0 0 1 0 0 0 0 0 0 0 0 0
57 32 50 51 35 37 19 28 14 30 47 24 0 4 4 0 0 0 0 0 0 0 0 0 1 7 9 21 25 13 10 0 0 0 0 0 0 0 0 0 0 0 0 0 0 0 0
63 64 63 63 38 37 21 32 16 18 46 29 8 0 2 0 0 0 0 0 0 0 0 0 0 12 13 42 2 1 0 0 0 0 0 0 0 0 0 0 0 0 0 0 0 0 0

GFSGBSN_con_sbcape_009.txt.gz
CAPE
19 19 18 18 20 16 14 14 22 18 23 27 37 96 110 132 117 36 0 0 1 0 14 0 8 11 15 17 13 0 0 0 1 0 9 3 0 0 0 0 0 0 0 0 0 0 0
27 21 25 26 22 20 27 16 15 16 25 27 19 44 51 97 141 101 26 0 0 0 13 5 16 0 0 3 0 0 0 0 1 35 7 1 0 0 0 0 0 0 0 0 0 0 0
25 26 24 24 23 19 29 29 29 18 29 34 21 39 26 71 111 133 20 0 0 0 16 20 22 0 0 0 0 0 0 0 0 3 15 2 0 0 0 0 0 0 0 0 0 0 0
27 30 19 24 20 26 27 28 25 23 21 42 35 22 35 9 92 138 90 28 1 30 43 32 35 0 0 0 0 0 0 0 0 0 0 0 0 12 8 0 0 1 1 0 0 0 0
18 19 36 24 42 41 45 43 36 31 28 54 56 25 37 18 22 110 94 100 50 47 48 68 0 0 0 0 0 0 0 0 0 0 0 0 0 0 2 0 0 0 0 0 0 0 0
30 39 40 59 60 38 30 44 38 42 48 81 60 54 46 13 13 84 78 91 68 19 5 0 0 0 0 0 0 0 0 0 0 0 0 0 0 0 1 3 0 0 0 0 0 0 0
61 66 74 76 86 87 73 41 41 39 55 65 61 77 73 23 28 47 39 17 7 8 5 0 0 0 0 0 0 0 0 0 0 0 0 0 2 1 0 0 0 0 0 0 0 0 0
67 73 86 74 84 90 102 95 67 77 71 98 96 73 68 25 18 21 7 0 0 0 0 0 0 0 0 0 0 0 0 0 0 0 0 0 2 0 0 0 0 0 4 2 0 0 0
67 65 77 82 91 93 95 106 87 126 127 138 118 86 77 59 21 21 4 0 0 0 0 0 0 0 0 0 0 0 0 0 0 0 0 0 0 0 0 0 2 6 5 1 1 0 0
71 74 66 75 77 92 134 150 131 136 143 129 130 77 65 65 25 30 2 0 0 0 0 0 0 0 0 0 0 0 0 0 0 0 1 0 0 0 0 0 0 3 0 0 0 5 2
70 63 72 78 89 110 153 157 170 181 86 73 71 81 92 77 47 50 0 0 0 0 0 0 0 0 2 0 0 0 0 0 0 0 0 0 0 0 3 0 0 0 0 0 0 10 5
58 66 76 86 103 124 132 135 118 52 77 69 59 112 90 72 55 1 1 0 0 0 0 0 1 24 7 2 17 0 8 19 2 1 1 0 0 0 0 0 0 0 1 1 0 10 26
63 65 83 93 123 127 108 80 57 60 103 73 59 84 35 85 6 20 6 7 0 0 0 5 5 32 13 8 10 9 7 14 9 9 2 1 0 0 0 0 0 0 34 11 23 28 1
51 57 84 120 130 125 101 81 67 57 87 108 57 59 17 69 2 2 5 2 0 0 0 0 2 17 10 4 7 9 0 16 10 2 1 0 0 0 0 0 0 0 0 2 8 0 0
47 63 93 127 131 140 110 75 68 118 118 84 81 25 51 8 12 13 13 0 0 0 0 0 4 6 3 1 1 6 16 7 5 1 1 0 0 0 0 0 0 5 2 0 5 0 6
51 74 115 131 131 144 87 99 51 90 110 76 19 42 21 25 2 35 3 0 0 0 0 0 0 0 1 0 2 9 6 0 0 0 2 1 1 0 0 0 0 4 0 9 7 11 16
74 92 119 129 117 130 94 87 63 66 73 83 10 38 55 31 4 23 2 0 0 0 0 0 0 0 0 0 0 3 0 0 0 0 0 0 1 0 5 3 0 3 33 29 17 16 1
59 94 117 120 127 127 97 65 49 54 71 38 14 16 40 7 0 2 2 0 0 0 0 0 0 0 0 0 0 0 0 0 0 0 0 0 5 6 0 0 0 0 0 0 10 0 0
50 92 110 119 129 119 76 29 40 55 85 50 7 24 48 0 5 7 0 0 0 0 0 0 0 0 0 0 0 0 0 0 0 0 0 0 24 0 0 0 0 7 0 0 0 0 0
30 84 107 112 100 90 63 41 32 63 73 46 9 7 26 34 5 0 0 0 0 0 0 0 0 0 0 2 0 0 0 0 0 0 0 0 5 0 0 0 2 12 2 3 3 5 0
32 75 92 90 86 77 27 74 55 32 80 26 18 11 2 4 5 0 0 0 0 0 0 0 4 6 0 17 3 0 0 0 0 0 0 1 6 4 3 0 0 12 11 6 6 0 0
35 59 78 86 75 70 18 73 83 82 69 0 8 7 0 0 0 0 0 0 0 0 0 0 0 2 8 20 0 0 0 0 0 0 5 11 7 3 3 7 6 3 19 18 5 1 0
50 42 66 73 49 66 18 75 79 74 58 7 3 4 1 9 0 0 0 0 0 0 0 1 0 7 13 5 1 1 1 0 1 0 1 8 2 6 0 0 8 9 1 5 9 7 0
44 42 48 66 69 56 29 32 67 72 59 29 2 7 4 12 0 0 0 0 0 0 1 1 0 19 8 4 2 2 0 0 0 0 0 3 3 6 1 3 3 4 0 0 0 0 5
46 35 28 54 40 32 50 10 18 33 47 14 11 7 10 6 5 0 0 0 0 1 1 0 0 1 8 25 0 5 2 0 0 0 0 0 5 6 4 9 0 0 0 0 0 0 0
37 50 37 40 41 44 40 21 15 6 32 11 2 4 7 5 0 0 2 0 0 0 2 3 0 0 3 10 23 14 0 0 0 0 0 0 0 7 12 2 0 0 0 0 0 0 0
25 36 50 54 55 42 45 24 17 4 15 17 6 14 6 5 0 0 0 0 0 1 0 0 0 0 8 19 23 14 3 0 0 0 0 2 1 3 2 3 0 0 0 0 0 0 0
10 13 24 34 45 49 51 28 27 3 11 23 4 6 12 4 0 0 0 0 0 0 0 0 1 2 9 5 30 16 1 0 0 0 0 0 0 0 0 0 0 0 0 0 0 0 0
8 8 17 30 55 63 56 56 9 6 14 27 10 0 2 5 0 0 0 0 0 0 0 0 0 0 3 11 6 6 5 0 0 0 0 0 0 0 0 0 0 0 0 0 0 0 0

GFSGBSN_con_sbcape_012.txt.gz
CAPE
23 27 33 25 31 23 21 26 18 18 12 9 16 18 28 38 48 101 90 4 0 1 0 0 2 7 24 21 4 0 0 0 28 74 29 7 1 0 1 0 0 0 0 0 0 0 0
27 30 28 19 26 23 33 27 31 24 16 11 16 36 19 42 20 98 133 69 0 2 0 10 10 0 0 13 0 0 0 4 52 105 44 5 7 0 0 0 0 0 0 0 0 0 0
22 19 20 32 24 43 54 52 49 36 26 21 23 41 27 5 26 20 116 35 21 2 0 19 10 0 0 0 0 0 0 0 2 100 65 6 3 8 8 12 12 1 0 0 0 0 0
31 25 24 24 45 31 44 52 47 45 38 30 20 53 50 11 38 20 88 97 73 43 8 13 11 0 0 0 0 0 0 0 0 0 60 55 41 12 0 2 2 0 0 0 0 0 0
31 60 59 50 43 73 62 57 61 40 30 30 53 36 42 28 32 16 25 128 78 71 47 40 0 0 0 0 0 0 0 0 0 0 22 41 1 0 0 0 0 0 0 0 0 0 0
77 47 57 73 64 79 81 88 88 70 41 41 43 53 49 46 44 21 10 125 92 60 38 0 0 1 0 0 0 0 0 0 0 3 0 4 13 10 0 5 0 0 0 0 0 0 0
49 44 69 70 61 73 71 97 81 87 69 91 83 91 80 76 41 17 11 66 1 30 18 0 0 0 0 0 0 0 0 0 0 20 24 11 19 3 0 0 0 0 0 0 0 0 0
52 78 62 61 68 78 84 97 107 103 88 100 143 124 125 62 69 24 39 8 0 0 4 0 0 0 0 0 0 0 0 0 0 3 14 9 7 0 0 0 0 1 0 0 0 0 0
67 65 53 82 79 94 110 113 112 130 119 139 110 133 121 87 57 8 24 28 0 0 0 4 0 0 0 0 0 0 0 0 1 7 5 1 0 0 1 3 5 3 6 2 0 0 1
50 36 74 77 94 111 130 123 118 137 159 117 103 112 110 88 47 19 21 22 0 0 2 0 7 1 0 0 0 0 0 0 0 0 4 5 2 0 1 3 1 2 0 0 6 4 1
60 80 70 80 110 132 149 110 107 80 58 162 95 113 111 79 83 14 29 1 0 0 5 0 7 9 9 0 0 2 0 0 2 0 0 0 0 2 2 1 2 0 0 2 8 16 5
74 70 79 98 126 127 124 97 90 65 77 147 49 76 77 61 81 10 47 2 0 2 1 9 18 31 21 10 7 8 14 12 4 5 2 3 0 0 0 0 0 1 10 11 6 8 15
53 64 101 118 123 110 116 95 90 44 28 53 73 66 49 56 41 122 82 5 3 11 0 11 18 22 2 7 28 11 25 25 12 18 20 5 6 0 0 5 6 17 19 5 5 7 1
69 88 97 116 114 100 116 89 82 23 28 43 74 112 38 58 48 84 25 5 2 0 1 3 20 11 16 16 22 22 21 27 19 6 8 4 0 3 0 3 2 8 9 4 0 0 3
61 84 87 100 110 121 106 79 46 34 88 107 85 54 45 44 117 7 14 12 6 0 1 3 23 13 21 6 8 9 12 5 2 1 5 4 1 0 0 0 2 7 11 1 33 7 34
61 84 81 90 105 111 102 71 29 23 87 115 57 11 113 75 21 18 4 36 0 0 0 0 2 1 2 9 5 3 8 0 7 3 2 5 6 0 1 3 0 12 9 23 45 17 31
59 75 92 81 91 99 85 27 38 36 95 104 18 20 137 51 4 3 18 2 8 1 0 0 0 0 0 5 4 4 1 0 0 0 7 11 3 3 8 11 0 7 10 40 23 58 20
57 68 85 85 73 76 56 21 41 55 83 31 6 8 84 33 6 7 15 0 8 0 0 0 0 0 0 1 3 3 1 0 0 0 9 4 11 13 3 0 0 3 4 6 33 7 37
54 59 69 73 64 54 32 17 28 40 62 32 6 20 53 85 52 47 5 4 5 0 0 0 0 0 0 0 0 1 0 0 0 0 0 9 22 7 0 2 0 6 0 2 16 22 15
38 58 61 64 69 80 27 9 21 26 57 51 10 13 14 13 29 0 3 0 3 0 0 0 0 0 0 0 0 0 0 0 0 0 0 0 12 1 0 0 6 44 5 5 21 20 4
49 62 52 63 52 45 30 14 31 70 45 10 11 17 6 36 7 11 0 0 0 0 0 0 0 0 0 1 3 0 0 0 0 0 0 13 16 11 3 2 8 17 11 18 7 1 7
32 37 58 54 60 20 23 22 43 62 20 15 6 15 10 12 1 0 0 0 0 0 0 0 0 0 0 4 1 2 0 0 0 0 1 15 6 15 4 3 8 10 11 13 18 22 18
38 47 54 58 46 21 18 36 45 46 14 23 3 2 15 15 8 2 1 0 0 0 0 1 0 0 7 0 1 10 3 0 1 3 5 11 12 14 2 5 8 9 5 6 4 5 4
33 41 52 49 53 32 15 10 24 29 29 13 17 11 19 11 8 0 0 0 0 0 10 1 0 8 8 11 22 17 14 15 18 13 3 7 3 10 2 6 17 8 0 1 3 1 3
28 26 40 42 52 35 15 14 19 9 14 1 11 10 8 18 3 0 0 0 0 6 10 8 1 3 3 11 26 5 1 13 2 10 19 9 21 21 44 18 0 1 0 11 2 0 0
13 13 15 20 16 37 16 9 22 4 12 0 2 19 15 24 1 0 0 0 0 1 1 0 0 0 15 42 39 19 9 0 0 0 1 0 2 17 24 7 8 0 0 0 0 0 0
8 8 12 19 18 36 31 13 18 1 7 3 9 8 10 8 1 0 5 0 4 6 10 0 0 1 9 34 32 30 7 0 0 0 3 3 6 7 13 7 0 0 0 0 0 0 0
8 8 10 7 6 8 26 7 0 2 2 9 1 12 14 10 1 0 0 0 0 0 1 0 4 12 26 13 29 13 25 1 0 0 0 0 6 3 3 0 0 0 0 0 0 0 0
8 9 10 5 5 5 8 7 4 6 6 11 20 7 13 12 4 0 0 0 0 0 9 1 8 0 5 11 10 9 13 5 0 8 0 0 0 0 0 0 0 0 0 0 0 0 0

GFSGBSN_con_sbcape_015.txt.gz
CAPE
12 11 12 21 22 19 25 26 33 30 22 15 10 7 17 18 13 19 21 114 96 2 6 9 0 0 13 56 20 0 0 0 81 67 24 12 19 13 9 1 1 2 0 0 0 0 0
20 22 17 25 13 29 34 32 26 26 31 23 17 11 10 28 11 12 22 78 127 8 6 9 0 4 7 43 0 0 0 3 15 80 54 24 24 17 24 14 2 6 0 0 0 0 0
18 25 46 41 39 21 46 46 46 34 18 17 19 20 13 18 10 10 18 23 100 55 4 28 0 1 12 1 0 0 0 7 44 63 76 40 15 5 6 7 8 0 0 0 0 0 0
44 59 51 51 51 61 83 98 84 85 74 51 19 25 28 21 28 11 14 16 12 74 16 36 4 4 11 0 0 0 0 8 41 64 77 9 2 15 7 6 1 0 0 0 0 0 0
35 26 52 72 82 71 77 75 98 88 93 93 31 47 44 29 30 29 18 10 5 102 67 60 0 4 5 0 0 0 0 14 11 7 45 39 41 9 7 5 0 0 0 0 0 0 0
48 56 71 79 85 80 91 101 91 108 102 110 80 69 67 68 68 51 30 10 1 72 68 28 7 1 0 0 0 0 0 14 7 6 12 3 2 5 6 6 0 0 0 0 0 0 0
67 64 75 74 84 83 110 123 156 165 134 129 121 84 112 102 89 57 38 0 62 70 68 24 0 0 0 0 0 0 0 16 15 11 3 7 12 2 0 1 0 0 0 0 0 0 0
39 49 78 76 72 98 121 152 151 168 147 151 157 184 147 138 126 89 54 14 6 10 16 13 0 2 2 0 1 2 0 7 6 17 12 4 9 0 4 0 0 0 0 0 0 0 0
33 81 93 75 81 95 137 153 150 145 145 166 160 106 142 149 125 64 40 0 0 5 17 17 6 6 0 0 2 4 0 2 15 8 2 11 0 0 0 1 0 0 0 0 0 0 0
62 59 75 77 87 117 129 123 122 119 107 88 57 54 123 121 69 65 52 18 25 1 13 11 9 3 0 0 1 2 0 4 6 2 1 10 1 0 0 0 0 0 0 0 0 0 0
77 69 82 86 95 114 117 113 135 110 95 59 37 54 71 64 57 46 44 14 8 0 7 0 11 8 7 0 0 6 5 2 6 4 0 3 0 1 1 0 0 0 0 0 1 7 0
51 68 78 75 87 96 103 116 119 84 71 71 45 61 39 22 62 13 50 64 0 2 7 14 9 12 6 9 9 15 13 9 6 1 7 1 0 0 0 0 0 0 1 2 2 2 5
73 71 68 77 84 91 110 110 76 52 39 26 45 73 68 53 7 83 100 86 7 43 1 18 10 27 13 4 7 2 8 19 4 10 11 4 3 1 0 0 3 4 1 5 14 20 0
64 68 68 86 82 104 101 82 43 39 37 59 113 81 57 2 34 140 2 33 17 3 1 2 24 23 18 4 3 10 9 8 6 3 4 2 7 2 2 1 2 2 5 1 0 0 0
64 61 69 76 89 81 74 57 46 58 56 78 62 52 57 67 60 33 37 15 84 3 3 14 14 21 16 5 10 21 7 13 8 8 2 4 0 0 0 0 0 6 8 1 12 3 8
67 55 69 80 69 74 73 37 39 54 75 87 37 19 29 68 21 32 14 52 3 4 0 8 9 7 5 7 13 12 10 2 3 4 4 1 1 0 2 2 2 1 2 6 20 6 0
72 58 63 66 70 48 69 25 44 54 53 103 12 13 66 68 68 26 30 22 15 7 6 5 3 5 2 4 4 2 2 0 5 6 8 4 1 2 1 3 0 3 12 19 6 16 16
70 68 70 62 61 44 54 20 27 47 85 20 1 5 61 56 53 30 43 10 16 3 2 0 2 0 0 1 4 3 2 0 0 1 4 6 5 5 0 0 0 1 1 1 25 1 3
47 51 61 58 59 55 39 21 24 34 48 41 7 12 42 36 51 14 4 18 18 23 38 8 1 0 0 0 0 2 1 0 0 0 5 4 14 5 2 0 0 2 0 1 6 20 19
33 47 42 50 61 70 51 18 35 30 22 9 9 15 11 26 28 2 17 31 31 32 13 0 0 0 0 0 0 2 0 0 0 0 0 13 8 10 0 16 2 26 6 6 10 28 6
32 49 50 41 44 43 43 27 42 15 4 5 16 30 16 12 20 15 15 11 16 11 5 0 0 0 0 0 0 0 1 0 0 0 0 5 33 14 5 2 7 6 3 4 2 8 12
33 30 47 20 46 35 35 43 47 29 0 4 5 11 4 2 13 0 0 21 18 7 0 0 0 0 0 3 5 0 5 6 4 1 2 9 22 16 5 3 1 4 3 4 9 6 7
31 20 27 20 36 37 28 63 50 31 7 9 10 3 9 9 6 1 7 8 0 3 1 0 3 3 5 9 3 10 4 1 3 1 5 7 9 9 0 0 0 2 2 5 3 3 4
18 13 14 12 6 16 24 22 33 10 32 12 13 10 12 9 10 3 0 0 0 4 11 1 2 7 10 1 1 5 8 7 11 2 1 7 4 20 21 0 9 4 0 0 8 3 3
13 9 10 13 9 11 32 25 25 3 10 3 7 18 11 19 2 7 3 1 1 0 7 5 4 3 1 4 14 3 12 2 0 2 17 10 11 31 38 11 0 2 0 1 4 0 0
12 13 7 7 3 1 10 21 7 4 3 0 19 3 12 14 12 3 1 2 2 15 6 0 0 5 5 29 31 6 10 3 5 6 1 10 1 33 30 21 9 1 0 0 0 1 0
17 13 13 5 3 2 0 3 7 7 6 4 28 0 4 13 4 6 0 4 1 7 18 11 4 11 12 30 27 15 12 4 4 12 3 6 7 7 10 12 0 0 0 0 3 0 0
17 16 13 12 3 3 5 2 8 10 6 7 15 10 7 6 0 0 7 13 17 9 19 6 6 3 28 31 18 20 27 15 0 2 10 3 3 5 3 7 1 0 0 0 0 0 0
18 22 18 16 13 3 5 12 8 11 9 13 13 19 23 9 1 1 18 12 19 27 28 6 24 13 15 10 12 16 25 2 11 2 0 2 1 4 0 9 0 0 0 0 0 0 0

GFSGBSN_con_sbcape_018.txt.gz
CAPE
19 21 18 40 35 38 40 35 32 34 38 41 30 28 21 19 13 21 17 16 16 93 71 4 0 0 12 54 46 13 42 49 69 80 6 15 1 0 0 0 0 0 0 0 0 0 0
16 35 61 57 43 51 59 72 81 81 79 58 55 41 40 35 26 26 22 15 20 49 67 17 1 9 0 44 30 0 0 2 45 90 54 21 18 15 16 8 2 2 0 0 0 0 0
53 48 29 34 60 59 67 72 98 113 129 131 122 91 25 41 52 27 30 18 23 37 119 50 25 4 5 0 0 0 0 5 22 108 69 48 35 21 20 16 7 0 0 0 0 0 0
63 48 63 78 87 76 71 92 107 117 120 130 168 151 121 38 50 36 37 27 25 10 70 74 89 4 8 0 0 0 0 6 11 85 93 34 1 13 9 2 4 0 0 0 0 0 0
38 70 49 70 76 73 85 98 123 93 130 149 171 161 134 66 70 68 61 62 21 6 46 64 48 16 1 0 0 0 0 3 55 74 95 26 15 5 1 0 0 0 0 0 0 0 0
51 46 54 78 83 80 86 115 116 133 160 163 155 150 141 105 97 93 72 66 1 0 122 73 54 30 0 0 0 0 0 3 38 71 67 69 2 0 0 0 0 0 0 0 0 0 0
48 57 51 77 84 97 106 114 119 143 152 153 166 159 184 161 124 120 101 42 51 97 32 9 0 2 0 0 0 0 0 3 8 51 4 6 1 0 0 0 0 0 0 0 0 0 0
29 53 62 75 88 98 105 112 126 129 116 123 123 143 147 152 161 172 113 18 0 9 6 12 6 22 1 0 1 0 0 4 2 4 2 1 0 0 0 0 0 0 0 0 0 0 0
42 51 70 80 87 94 94 104 106 119 101 89 69 63 45 119 174 137 85 6 14 14 18 6 11 18 5 0 0 0 0 2 2 5 0 2 0 0 0 0 0 0 0 0 0 0 0
45 55 69 81 76 82 76 85 113 108 76 62 49 24 62 70 86 70 8 39 23 38 3 19 0 14 0 10 4 0 0 1 13 8 11 4 0 0 0 0 0 0 0 0 0 0 0
62 50 69 80 71 80 87 89 86 83 49 44 40 32 42 20 39 11 41 65 43 23 15 12 6 7 0 1 0 6 3 2 5 1 0 1 0 0 0 0 0 0 0 0 0 0 0
42 55 73 74 76 75 77 78 69 38 38 69 56 74 111 42 9 1 23 69 10 4 6 26 2 4 23 19 8 2 7 1 0 1 5 0 0 0 0 0 0 0 0 0 0 0 0
38 58 74 79 75 70 66 57 47 42 64 70 94 129 89 68 12 16 74 29 6 6 3 14 14 16 9 14 21 10 8 7 0 0 3 0 0 0 0 0 0 1 1 0 0 2 0
42 61 74 74 83 72 60 71 17 35 77 84 116 158 66 14 2 36 40 7 1 6 0 1 11 12 4 12 12 14 12 14 8 0 0 0 0 0 0 0 0 3 2 0 0 0 0
34 65 65 68 87 66 62 57 20 59 88 124 175 136 146 98 86 9 32 11 19 3 7 6 24 7 6 6 6 12 14 10 4 2 0 0 0 0 0 0 0 4 0 0 0 0 0
43 56 66 60 83 65 56 28 29 56 84 135 81 64 72 115 32 29 50 37 5 4 3 4 2 7 4 0 9 14 6 0 1 0 0 1 1 0 0 0 0 0 0 0 7 0 0
45 48 59 64 51 38 42 20 27 45 109 27 33 24 49 70 68 47 23 4 12 9 1 5 0 1 0 1 7 3 0 0 0 1 1 0 1 0 0 0 0 0 1 2 0 0 0
41 40 52 66 56 33 39 12 17 36 72 0 4 10 25 65 16 8 35 11 6 1 16 0 5 0 0 0 0 0 0 0 0 0 1 0 1 0 0 0 0 0 0 0 8 0 0
30 39 61 54 56 50 28 9 6 27 54 88 34 35 13 9 16 14 4 9 1 12 23 1 0 1 0 0 1 3 1 0 0 0 2 0 1 0 0 0 0 0 0 0 0 0 0
29 32 40 44 66 58 51 28 20 5 6 22 8 10 3 8 0 0 6 5 18 26 11 2 0 0 0 0 1 0 0 0 0 0 2 2 4 0 0 0 0 0 0 0 0 3 0
31 27 22 30 58 39 19 37 17 5 3 13 22 15 4 5 2 0 8 24 5 2 0 0 0 0 0 1 0 0 2 0 0 0 0 0 2 0 0 0 0 0 0 0 0 2 4
28 20 13 16 18 34 16 36 20 9 0 5 7 3 0 1 0 0 0 7 5 2 9 0 0 1 0 1 10 1 0 1 0 0 0 0 4 1 1 0 0 0 0 0 0 5 6
24 18 12 13 11 31 24 34 20 10 2 9 8 5 5 2 0 0 0 6 4 10 0 0 1 0 8 7 1 0 1 0 0 0 0 7 4 1 0 0 0 0 0 1 1 1 4
19 16 16 12 3 7 24 7 2 4 4 4 16 13 6 1 0 0 5 0 0 9 4 0 3 2 9 0 0 0 0 0 5 0 0 4 1 3 2 0 0 0 0 0 1 0 3
20 18 15 19 5 2 9 4 2 1 1 0 13 8 9 11 4 1 0 0 0 0 0 0 0 1 0 0 0 3 9 0 0 1 0 1 2 17 16 3 0 0 2 0 0 0 0
22 16 14 15 15 7 4 9 3 3 0 0 11 1 7 12 5 1 4 7 0 0 4 0 0 0 0 0 2 1 3 13 0 0 0 0 1 10 25 7 0 0 0 0 0 0 0
38 17 17 16 15 15 12 12 8 4 2 0 17 0 6 9 0 0 6 4 4 7 15 5 2 0 0 1 3 6 2 1 0 1 4 11 4 1 6 13 0 0 0 0 0 0 0
43 22 24 24 19 16 12 17 20 10 4 4 8 8 7 8 0 0 3 12 9 1 7 1 0 1 2 10 5 13 10 6 0 0 0 0 1 2 1 6 0 0 0 0 0 0 0
49 26 12 35 30 20 22 21 26 27 8 6 9 23 11 22 2 0 0 0 5 9 22 9 12 1 4 1 0 5 0 0 0 0 0 1 1 1 0 0 0 0 0 0 0 0 0

GFSGBSN_con_sbcape_021.txt.gz
CAPE
34 54 38 41 47 60 64 65 74 83 90 88 92 95 69 72 45 51 20 30 11 19 38 162 62 58 25 35 0 6 154 77 47 28 0 0 0 0 0 0 0 0 0 0 0 0 0
45 49 35 65 71 77 55 63 81 106 124 118 104 131 118 115 85 53 47 24 20 18 32 111 80 80 30 10 0 3 3 50 59 55 45 0 0 0 0 0 0 0 0 0 0 0 0
33 64 29 36 44 70 72 84 88 116 113 92 122 177 164 151 114 66 31 39 22 26 20 45 115 38 17 0 0 0 0 4 21 60 37 44 27 34 10 1 0 0 0 0 0 0 0
69 55 45 61 70 65 68 79 90 111 144 146 162 151 157 142 110 71 78 59 33 25 16 15 95 54 10 0 0 0 0 0 1 37 58 29 12 14 9 0 0 0 0 0 0 0 0
44 37 47 58 67 73 87 88 91 115 130 163 148 143 162 161 156 119 97 79 34 32 12 4 60 42 1 0 0 0 0 5 13 100 19 31 11 10 1 2 0 0 0 0 0 0 0
49 45 57 60 69 76 83 81 94 109 131 114 108 109 140 155 170 135 118 94 29 17 3 95 36 36 2 0 0 0 0 0 39 95 65 27 4 0 0 0 0 0 0 0 0 0 0
44 42 55 59 56 55 84 78 77 101 100 94 82 86 96 128 138 137 34 4 7 80 47 34 4 0 0 0 0 0 0 2 19 24 4 19 0 0 0 0 0 0 0 0 0 0 0
51 37 58 72 64 63 71 80 78 99 82 47 56 54 67 37 133 175 64 22 30 11 5 40 3 7 0 0 0 0 0 4 7 12 0 0 1 0 0 0 0 0 0 0 0 0 0
50 30 60 77 69 82 77 74 71 74 64 45 33 42 38 54 23 27 32 38 22 0 5 55 40 7 0 0 0 0 0 0 0 2 0 0 0 0 0 0 0 0 0 0 0 0 0
40 24 56 65 75 82 69 68 63 60 46 28 21 21 35 20 2 0 8 47 11 0 1 21 10 5 0 2 0 0 0 0 2 2 0 0 0 0 0 0 0 0 0 0 0 0 0
35 29 60 64 80 81 69 64 76 64 35 50 63 78 99 101 7 0 26 13 1 0 0 6 4 6 14 0 0 2 0 2 1 0 0 0 0 0 0 0 0 0 0 0 0 0 0
25 48 76 65 83 81 57 58 69 37 66 75 82 118 201 108 4 0 0 12 4 0 0 21 1 23 16 11 3 0 1 0 0 8 0 0 0 0 0 0 0 0 0 0 0 0 0
26 46 56 62 76 75 63 58 45 42 68 57 69 208 134 42 32 0 15 14 0 0 5 19 17 7 6 11 2 4 1 0 0 0 1 1 0 0 0 0 0 0 0 0 0 0 0
33 29 47 55 76 57 24 49 39 59 42 35 165 196 43 28 16 0 11 0 0 51 6 0 11 10 7 2 2 6 4 1 0 0 0 0 0 0 0 0 0 0 0 0 0 0 0
30 31 56 63 77 36 48 50 33 50 77 158 89 1 16 25 28 5 17 0 1 25 1 11 7 6 19 14 0 6 6 2 0 0 0 0 0 0 0 0 0 0 0 0 0 0 0
22 36 57 64 63 37 37 43 51 33 151 16 0 0 14 35 23 14 31 8 5 7 1 5 1 8 5 13 0 9 9 0 0 0 0 0 0 0 0 0 0 0 0 0 0 0 0
25 30 31 56 53 29 26 28 29 61 81 0 0 3 7 19 4 1 18 3 7 0 2 1 0 1 0 1 0 2 0 0 0 0 0 0 0 0 0 0 0 0 0 0 0 0 0
23 27 22 41 54 23 19 20 11 20 29 0 0 1 0 0 0 0 2 4 10 0 12 18 0 0 0 0 0 0 0 0 0 0 0 0 0 0 0 0 0 0 0 0 0 0 0
21 28 16 29 40 27 15 14 8 7 3 0 0 0 0 0 0 2 0 1 3 5 1 0 0 0 0 0 0 0 0 0 0 0 0 0 0 0 1 0 0 0 0 0 0 0 0
23 14 11 15 24 26 25 20 13 4 0 0 0 0 0 0 0 0 2 1 0 0 0 0 0 0 0 0 0 0 0 0 0 0 2 0 0 0 0 0 0 0 0 0 0 0 0
23 14 7 15 14 14 13 16 16 8 0 0 0 0 1 0 0 0 0 0 0 0 0 0 0 0 0 0 0 0 0 0 0 0 0 0 0 0 0 0 0 0 0 0 0 0 1
25 22 6 9 8 9 2 1 10 10 0 0 0 3 0 0 0 0 0 0 0 0 0 0 0 0 0 0 0 0 0 0 0 0 0 0 0 0 0 0 0 0 0 0 0 0 1
28 21 17 8 7 8 5 1 3 11 0 1 3 2 7 0 0 0 0 0 0 0 0 0 0 0 0 2 1 0 1 0 0 0 0 1 0 0 0 0 0 0 0 0 0 3 0
21 20 20 19 9 4 6 4 0 1 3 1 11 5 4 0 0 0 0 0 0 0 0 0 0 0 0 0 0 0 0 0 0 0 0 0 0 2 0 0 0 0 0 0 0 0 0
8 23 18 17 23 16 2 4 6 0 0 0 9 4 5 8 0 0 0 0 0 0 0 0 0 0 0 0 0 0 0 0 0 0 0 0 0 6 9 1 0 0 0 0 0 0 0
10 36 9 20 15 19 23 8 5 7 0 0 11 0 4 6 0 0 12 0 0 0 0 0 0 0 0 0 0 0 0 5 0 1 0 0 0 7 16 2 0 0 0 0 0 0 0
7 33 20 11 24 21 15 11 30 14 3 0 0 0 2 9 0 0 8 2 11 1 0 0 0 0 0 0 0 0 0 0 0 0 9 5 7 5 6 5 0 0 0 0 0 0 0
5 25 19 7 13 34 18 21 23 26 23 0 0 1 1 9 0 0 0 0 3 0 5 0 0 0 0 0 0 0 0 0 0 0 0 0 2 4 4 2 0 0 0 0 0 0 0
15 17 13 2 11 17 30 20 27 22 17 4 0 0 21 12 0 0 0 0 0 0 1 2 0 0 0 0 0 0 0 0 0 0 0 0 0 0 0 0 0 0 0 0 0 0 0

GFSGBSN_con_sbcape_024.txt.gz
CAPE
17 23 58 21 42 46 48 61 62 78 93 108 96 94 129 144 118 108 75 32 24 16 0 4 8 137 34 27 0 0 202 308 65 12 0 0 0 0 0 0 0 0 0 0 0 0 0
39 43 29 37 44 57 60 69 70 79 84 102 138 156 179 188 107 113 68 22 10 22 0 1 5 106 3 7 0 11 92 118 60 1 0 0 0 0 0 0 0 0 0 0 0 0 0
34 36 32 39 65 72 72 74 89 85 85 107 115 143 162 159 149 104 88 61 37 27 10 11 2 70 2 0 0 17 177 106 78 57 12 0 7 2 0 0 0 0 0 0 0 0 0
31 40 41 58 64 58 64 61 66 84 92 88 95 96 109 156 156 142 140 111 45 13 11 17 8 57 1 0 0 0 0 0 48 49 39 35 23 6 0 0 0 0 0 0 0 0 0
37 42 40 70 61 64 74 73 74 71 81 81 78 61 89 107 135 148 133 118 67 34 13 12 17 42 0 0 0 0 0 0 10 65 36 66 37 14 1 0 0 0 0 0 0 0 0
33 49 50 66 71 76 83 68 76 71 76 63 64 66 86 99 111 124 130 137 65 13 1 1 64 18 0 0 0 0 0 0 83 105 97 60 15 1 0 0 0 0 0 0 0 0 0
33 49 41 61 75 82 82 90 74 89 72 60 56 46 53 65 62 122 25 0 3 4 22 13 26 0 0 0 0 0 0 21 25 13 21 8 1 2 0 0 0 0 0 0 0 0 0
34 39 34 61 74 84 85 75 72 81 77 73 25 24 10 23 57 42 0 0 15 0 2 0 14 2 0 0 0 0 0 38 59 2 0 0 5 0 1 0 0 0 0 0 0 0 0
25 32 52 67 70 72 82 75 75 88 63 30 36 53 43 49 17 7 0 4 18 4 2 0 47 14 0 0 0 0 0 0 34 0 0 0 0 0 0 0 0 0 0 0 0 0 0
27 34 52 65 75 72 69 65 72 73 52 64 85 124 137 131 20 2 2 37 1 0 0 19 20 25 1 0 0 0 4 0 0 1 0 0 0 0 0 0 0 0 0 0 0 0 0
32 42 45 47 66 60 58 43 63 50 58 67 101 146 176 193 3 7 0 0 0 0 0 17 28 18 5 0 0 1 0 0 0 0 0 0 0 0 0 0 0 0 0 0 0 0 0
22 31 47 50 66 63 35 55 51 50 66 134 206 203 191 7 7 25 1 0 0 0 0 6 5 1 18 0 0 8 2 0 2 10 0 0 0 0 0 0 0 0 0 0 0 0 0
29 26 45 50 54 52 47 40 50 70 225 233 204 122 40 22 24 2 7 1 0 0 6 16 14 13 5 4 3 13 1 1 0 12 3 0 0 0 0 0 0 0 0 0 0 0 0
27 19 41 49 52 53 36 41 56 59 162 111 64 31 30 31 0 0 16 1 0 19 11 6 8 5 2 4 14 4 1 0 0 0 0 0 0 0 0 0 0 0 0 0 0 0 0
23 18 29 26 46 43 33 34 21 34 144 81 0 0 8 7 1 0 0 0 0 7 17 10 0 0 1 0 2 0 0 1 0 0 0 0 0 0 0 0 0 0 0 0 0 0 0
15 15 13 28 39 28 26 25 15 25 85 0 0 0 0 1 0 0 0 10 3 5 0 0 0 0 3 0 0 0 0 0 0 0 0 0 0 0 0 0 0 0 0 0 0 0 0
13 16 9 11 15 18 23 16 10 8 10 0 0 0 0 0 0 0 5 1 10 2 1 6 0 0 1 1 0 0 0 0 0 0 0 0 0 0 0 0 0 0 0 0 0 0 0
5 8 6 9 12 16 16 9 5 10 7 0 0 0 0 0 0 2 5 2 1 1 0 0 0 0 0 0 0 0 0 0 0 0 0 0 0 0 0 0 0 0 0 0 0 0 0
13 4 4 7 9 6 6 3 1 2 4 0 0 0 0 0 0 2 0 0 0 0 0 0 0 0 0 0 0 0 0 0 0 0 0 0 0 0 0 0 0 0 0 0 0 0 0
14 5 2 5 6 4 1 3 5 0 0 0 0 0 0 0 0 0 0 0 0 0 0 0 0 0 0 0 0 0 0 0 0 0 2 0 0 0 0 0 0 0 0 0 0 0 0
9 8 0 2 7 6 2 3 3 0 0 0 0 0 0 0 0 0 0 0 0 0 0 0 0 0 0 0 0 0 0 0 0 1 2 0 0 0 0 0 0 0 0 0 0 0 0
1 11 5 1 9 5 2 2 2 1 0 0 0 1 0 0 0 0 0 0 0 0 0 0 0 0 0 0 0 0 0 0 0 0 0 0 0 0 0 0 0 0 0 0 0 0 0
0 20 8 7 3 11 1 2 2 1 0 0 0 1 7 0 0 0 0 0 0 0 0 0 0 0 0 0 0 0 0 0 0 0 0 0 0 1 0 0 0 0 0 0 0 0 0
0 17 2 11 14 7 8 1 3 4 0 0 6 4 2 0 0 0 0 0 0 0 0 0 0 0 0 0 0 0 0 0 0 0 0 0 0 1 0 0 0 0 0 0 0 0 0
4 13 21 2 24 19 19 2 2 1 1 0 6 1 4 0 0 0 0 0 0 0 0 0 0 0 0 0 0 0 7 2 0 0 0 0 0 0 2 0 0 0 0 0 0 0 0
7 19 31 8 6 25 21 15 8 6 1 0 5 0 2 8 0 0 1 0 0 0 0 0 0 0 0 0 0 0 0 0 1 1 0 0 0 3 20 0 0 0 0 0 0 0 0
5 19 28 13 2 2 25 12 23 27 11 0 0 0 0 9 0 0 0 3 0 0 0 0 0 0 0 0 0 0 0 2 5 1 10 11 13 4 18 1 0 0 0 0 0 0 0
28 20 22 25 9 3 5 22 14 23 22 0 0 0 0 0 0 0 0 0 0 0 12 0 0 0 0 0 0 0 0 0 0 0 0 1 7 13 9 5 0 0 0 0 0 0 0
39 18 20 30 23 2 2 19 10 18 20 3 0 0 0 18 0 0 0 0 0 0 0 1 0 0 0 0 0 0 0 0 0 0 0 1 0 0 0 0 0 0 0 0 0 0 0

GFSGBSN_con_sbcape_027.txt.gz
CAPE
43 21 15 28 27 62 75 67 75 73 88 79 78 88 104 113 152 114 157 116 87 32 9 6 0 5 24 20 0 0 124 298 41 102 10 2 0 0 0 0 0 0 0 0 0 0 0
40 30 31 33 58 60 63 52 62 76 80 71 74 84 79 94 119 127 148 143 69 53 24 16 4 7 39 1 0 0 35 219 160 20 4 0 0 0 0 0 0 0 0 0 0 0 0
27 33 30 35 58 60 81 63 85 75 61 82 80 84 72 61 91 142 165 162 124 84 28 24 17 9 36 0 0 0 220 219 92 1 3 0 0 0 0 0 0 0 0 0 0 0 0
37 29 35 29 39 70 79 98 89 87 101 85 90 78 67 75 99 123 184 197 162 125 32 24 21 19 9 0 0 0 56 125 107 57 29 7 33 26 0 0 0 0 0 0 0 0 0
30 32 47 21 63 75 83 91 98 90 111 111 93 78 88 83 98 132 152 185 176 136 50 30 10 38 0 0 0 0 0 32 86 95 54 78 15 20 0 0 0 0 0 0 0 0 0
33 31 41 27 61 75 79 78 107 95 108 106 91 67 49 42 77 74 115 131 124 73 9 11 12 5 0 0 0 0 0 30 169 111 134 80 50 11 0 1 1 0 0 0 0 0 0
33 39 29 47 68 74 77 80 94 89 110 120 96 28 20 19 23 55 4 0 0 2 43 0 18 3 0 4 4 0 0 75 114 57 113 55 45 26 0 0 0 0 0 0 0 0 0
20 21 45 46 44 72 63 71 76 77 87 106 77 65 97 72 88 17 0 0 5 3 0 0 0 2 0 6 1 0 14 35 56 28 0 5 7 9 0 3 3 0 0 0 0 0 0
20 26 38 56 48 68 72 37 55 67 60 56 60 79 105 159 56 0 0 0 11 0 2 0 14 6 10 10 0 3 0 4 12 7 0 2 2 13 6 5 2 0 0 0 0 0 0
19 33 27 61 38 47 39 48 52 50 140 212 214 131 97 93 13 3 2 35 3 0 0 19 11 14 12 0 0 0 1 0 0 1 0 0 0 2 1 0 0 0 0 0 0 0 0
26 26 35 66 30 54 37 58 76 123 153 161 182 178 150 62 0 2 0 1 0 0 0 9 20 13 1 3 0 2 0 2 0 0 0 0 0 0 0 0 0 0 0 0 0 0 0
16 25 30 38 39 55 37 57 63 84 80 72 64 54 37 0 4 8 1 0 0 0 0 6 4 5 2 0 0 4 4 0 0 0 0 0 0 0 0 0 0 0 0 0 0 0 0
21 18 31 31 30 34 30 51 36 78 87 42 25 22 0 1 7 5 0 0 0 0 5 9 10 7 6 13 12 4 2 0 0 2 1 0 0 0 0 0 0 0 0 0 0 0 0
16 13 21 25 16 22 22 29 31 47 73 80 0 0 0 0 0 0 0 0 0 3 10 6 11 4 0 5 8 2 0 0 0 0 2 0 0 0 0 0 0 0 0 0 0 0 0
21 10 11 11 11 16 22 18 11 9 24 69 0 0 0 0 0 0 1 0 0 4 10 5 1 0 10 0 11 3 0 0 0 0 0 0 0 0 0 0 0 0 0 0 0 0 0
24 9 11 7 4 7 17 14 7 5 6 0 0 0 1 1 0 0 0 3 1 3 0 0 0 0 2 0 0 1 0 0 0 0 0 0 0 0 0 0 0 0 0 0 0 0 0
16 9 13 10 0 2 5 9 11 6 4 0 0 0 0 0 0 0 1 0 4 0 0 0 0 0 0 0 0 0 0 0 0 0 0 0 0 0 0 0 0 0 0 0 0 0 0
12 10 6 11 3 1 2 3 7 6 9 0 0 0 0 0 0 2 1 2 0 0 0 0 0 0 0 0 0 0 0 0 0 0 0 0 0 0 0 0 0 0 0 0 0 0 0
11 12 7 6 7 1 0 1 1 2 7 0 0 0 0 0 0 0 0 0 0 0 0 0 0 0 0 0 0 0 0 0 0 0 0 0 0 0 0 0 0 0 0 0 0 0 0
11 21 7 3 7 3 0 0 0 0 0 0 0 0 0 0 0 0 0 0 0 0 0 0 0 0 0 0 0 0 0 0 0 0 0 0 0 0 0 0 0 0 0 0 0 0 0
5 24 13 4 6 5 2 0 0 0 0 0 0 0 1 1 0 0 0 0 0 0 0 0 0 0 0 0 0 0 0 0 0 13 0 0 0 0 0 0 0 0 0 0 0 0 0
6 11 17 11 1 3 5 1 1 0 0 0 0 0 0 0 0 0 0 0 0 0 0 0 0 0 0 0 0 0 0 0 0 0 0 0 0 0 0 0 0 0 0 0 0 0 0
7 7 34 13 9 6 2 2 3 1 0 0 0 0 2 0 0 0 0 0 0 0 0 0 0 0 0 0 0 0 0 0 0 0 0 0 0 0 0 0 0 0 0 0 0 0 0
8 5 27 12 10 21 4 0 2 5 0 0 8 5 0 0 0 0 0 0 0 0 0 0 0 0 0 0 0 0 0 0 0 0 0 0 0 0 0 0 0 0 0 0 0 0 0
5 9 24 43 3 26 28 5 2 6 1 0 0 0 4 1 0 0 0 0 0 0 0 0 0 0 0 0 0 0 1 1 0 0 0 0 0 0 0 0 0 0 0 0 0 0 0
7 11 23 62 6 6 15 19 11 10 6 0 0 0 0 10 0 0 0 0 0 0 0 0 0 0 0 0 0 0 0 0 0 1 0 0 0 3 11 2 0 0 0 0 0 0 0
34 29 36 38 41 10 5 7 15 16 22 0 0 0 0 5 0 0 0 2 0 0 0 0 0 0 0 0 0 0 0 0 1 5 10 21 20 15 29 12 0 0 0 0 0 0 0
6 30 32 19 36 30 8 0 26 20 25 1 0 0 0 0 0 0 0 0 0 0 0 0 0 0 0 0 0 0 0 0 0 0 0 6 2 24 5 25 0 0 0 0 0 0 0
1 19 18 30 48 34 24 4 1 9 22 3 0 0 1 4 0 0 0 0 0 0 0 0 0 0 0 0 0 0 0 0 0 0 0 0 0 0 0 0 0 0 0 0 0 0 0

GFSGBSN_con_sbcape_030.txt.gz
CAPE
47 36 30 42 44 43 55 67 72 88 103 84 84 92 91 87 84 68 90 142 181 147 102 47 20 25 16 68 0 0 152 298 2 44 20 32 1 0 0 0 0 0 0 0 0 0 0
32 49 51 52 39 34 75 79 94 85 98 107 98 91 81 89 86 77 121 171 180 183 112 11 26 32 27 28 0 0 0 317 32 102 16 9 7 0 0 0 0 0 0 0 0 0 0
40 50 34 52 30 56 84 96 93 84 104 120 114 123 109 88 119 121 149 200 232 180 126 78 39 29 40 16 0 0 28 351 206 183 20 2 0 0 0 0 0 0 0 0 0 0 0
43 46 53 24 45 69 88 87 77 97 99 118 142 137 123 107 106 135 187 238 232 205 124 58 41 37 59 4 0 0 0 187 118 26 1 0 6 2 0 0 0 0 0 0 0 0 0
41 40 44 52 62 62 72 68 71 89 113 98 170 184 142 105 62 109 174 183 198 221 184 69 30 40 58 1 0 0 0 188 110 88 48 62 44 36 0 0 0 0 0 0 0 0 0
41 37 43 43 61 58 73 61 50 57 75 75 99 161 92 43 32 44 138 124 141 106 78 41 15 23 13 5 6 0 0 143 106 110 95 50 69 14 0 1 0 2 0 0 0 0 0
35 36 41 30 67 54 46 31 32 80 114 109 94 61 70 94 73 78 0 0 0 0 42 0 25 17 10 0 7 0 0 65 23 88 22 42 35 12 5 0 0 0 0 0 0 0 0
26 24 45 45 76 49 67 47 58 106 171 205 245 88 69 81 133 39 0 0 0 2 0 1 0 19 4 9 9 0 0 19 30 28 34 32 14 0 0 0 0 0 0 0 0 0 0
27 30 24 54 44 47 47 37 64 86 110 164 193 192 1 31 60 0 0 0 0 0 0 3 4 14 14 11 21 0 8 28 21 36 11 17 0 7 15 12 21 1 0 0 0 0 0
20 31 34 39 37 49 27 24 33 88 112 114 108 131 72 19 9 0 0 0 0 0 0 1 22 15 35 34 3 1 5 5 28 7 1 3 2 0 2 5 1 0 0 0 0 0 0
20 16 20 32 30 29 24 28 18 54 117 93 67 72 38 38 0 1 0 1 0 0 0 5 22 12 4 6 0 1 0 1 2 0 0 1 4 7 15 5 0 0 0 0 0 0 0
16 22 14 31 23 22 20 18 16 26 82 88 62 50 13 0 5 9 0 0 0 0 0 5 6 29 6 8 0 1 0 0 1 0 0 0 0 0 2 0 0 0 0 0 0 0 0
11 19 10 20 14 19 12 15 17 21 69 80 27 1 0 0 0 0 0 0 0 0 6 8 10 0 0 25 5 4 1 0 2 1 2 0 0 0 0 0 0 0 0 0 0 0 0
16 21 9 18 10 9 13 14 14 11 8 40 5 0 0 0 0 0 0 0 0 6 18 3 0 0 4 8 4 7 0 0 0 0 0 0 0 0 0 0 0 0 0 0 0 0 0
11 17 10 13 8 5 7 13 7 9 6 0 0 0 0 1 0 0 2 0 0 4 10 4 0 4 2 2 12 0 0 0 0 0 0 0 0 0 0 0 0 0 0 0 0 0 0
11 18 8 10 9 7 5 6 11 7 3 0 0 0 0 0 0 0 0 3 0 1 0 0 0 0 0 3 0 1 0 0 0 0 0 0 0 0 0 0 0 0 0 0 0 0 0
9 13 14 10 9 8 3 2 3 4 7 0 0 0 0 0 0 0 0 0 1 0 0 0 0 0 0 0 0 0 0 0 0 0 0 0 0 0 0 0 0 0 0 0 0 0 0
7 11 14 12 10 6 5 4 1 1 4 0 0 0 0 0 0 0 1 1 0 0 0 0 0 0 0 0 0 0 0 0 0 0 0 0 0 0 0 0 0 0 0 0 0 0 0
9 10 7 19 8 7 5 3 1 0 4 0 0 0 0 0 0 0 0 0 0 0 0 0 0 0 0 0 0 0 0 0 0 0 0 0 0 0 0 0 0 0 0 0 0 0 0
9 9 20 9 15 5 5 4 3 0 0 0 0 0 0 0 0 0 0 0 0 0 0 0 0 0 0 0 0 0 0 0 0 0 0 0 0 0 0 0 0 0 0 0 0 0 0
7 10 19 9 11 9 4 5 3 0 0 0 0 0 2 0 0 0 0 0 0 0 0 0 0 0 0 0 0 0 0 0 0 3 0 0 0 0 0 0 0 0 0 0 0 0 0
7 7 5 20 6 4 3 4 4 0 0 0 0 1 0 0 0 0 0 0 0 0 0 0 0 0 0 0 0 0 0 0 0 0 0 0 0 0 0 0 0 0 0 0 0 0 0
4 8 6 33 7 3 1 10 4 4 0 1 1 0 5 0 0 0 0 0 0 0 0 0 0 0 0 0 0 0 0 0 0 0 0 0 0 0 0 0 0 0 0 0 0 0 0
5 9 10 28 8 9 0 19 7 15 0 0 4 5 5 0 0 0 0 0 0 0 0 0 0 0 0 0 0 0 0 0 0 0 0 0 0 0 0 0 0 0 0 0 0 0 0
18 11 7 26 38 10 0 13 8 10 4 0 0 0 3 0 0 0 0 0 0 0 0 0 0 0 0 0 0 0 3 3 0 0 0 0 0 0 0 1 0 0 0 0 0 0 0
18 26 22 40 52 22 2 3 25 3 8 0 0 0 0 8 0 2 0 0 0 0 0 0 0 0 0 0 0 0 0 0 0 0 0 0 0 0 1 0 0 0 0 0 0 0 0
31 23 32 37 33 49 40 3 0 25 7 0 0 0 0 0 0 0 6 1 0 0 0 0 0 0 0 0 1 0 0 0 0 0 1 13 22 13 1 1 0 0 0 0 0 0 0
22 4 23 29 26 26 40 43 5 9 11 0 0 0 0 0 0 0 0 0 0 2 0 0 0 0 0 0 0 0 0 0 0 0 0 0 0 1 3 0 0 0 0 0 0 0 0
1 15 29 31 30 24 52 51 41 7 5 2 1 0 0 1 0 0 0 0 0 0 0 0 0 0 0 0 0 0 0 0 0 0 0 0 0 0 0 0 0 0 0 0 0 0 0

GFSGBSN_con_sbcape_033.txt.gz
CAPE
22 29 40 43 45 34 45 80 72 86 88 107 127 151 157 134 158 156 113 117 96 58 120 129 38 65 26 30 11 0 0 35 34 55 128 2 6 2 3 0 0 0 0 0 0 0 0
26 29 41 45 50 53 55 72 72 89 103 114 145 181 199 232 182 178 146 125 128 140 186 168 84 90 27 31 9 0 0 11 7 150 142 10 0 0 0 0 0 0 0 0 0 0 0
21 31 39 33 55 60 47 64 74 70 83 101 154 159 212 227 194 174 196 180 202 220 255 227 110 50 16 0 0 0 0 169 9 218 128 5 1 0 0 0 0 0 0 0 0 0 0
22 24 36 26 46 49 51 64 52 37 40 86 93 106 175 175 192 144 191 245 230 211 258 152 149 58 10 10 2 7 0 183 69 299 168 12 0 0 0 0 0 0 0 0 0 0 0
25 28 40 29 38 64 55 65 55 89 113 146 198 193 97 129 82 89 107 234 241 242 237 176 56 47 8 59 10 0 0 117 221 150 43 107 37 31 0 0 0 0 0 0 0 0 0
20 20 36 35 41 48 73 73 71 109 139 126 157 188 100 86 37 21 81 143 111 139 154 112 63 34 2 12 0 0 0 39 138 118 130 116 36 17 0 0 0 0 0 0 0 0 0
28 25 28 27 25 50 63 68 75 112 126 96 128 136 115 12 53 124 0 0 0 0 43 0 2 1 23 10 0 5 38 151 112 62 59 33 5 9 14 0 0 0 0 0 0 0 0
15 27 19 25 29 56 41 68 58 85 97 86 31 78 64 3 69 63 0 0 0 0 0 1 4 12 17 16 3 9 0 89 20 15 24 30 12 0 1 0 0 0 0 0 0 0 0
19 23 19 17 27 33 44 63 33 47 85 67 68 66 22 1 34 0 0 0 0 2 2 2 0 2 35 31 26 14 63 29 0 7 11 2 23 0 0 1 3 0 0 0 0 0 0
20 21 22 18 19 23 44 36 18 19 63 26 16 57 14 2 8 2 0 0 0 0 0 16 3 15 10 19 21 4 23 22 35 3 26 11 4 13 2 1 0 0 0 0 0 0 0
14 15 14 20 18 14 19 25 13 15 6 26 13 16 12 10 0 0 0 0 0 0 0 4 6 8 5 0 16 0 0 4 0 23 16 5 14 26 31 16 0 0 0 0 0 0 0
15 11 12 17 15 12 8 16 21 10 5 38 0 0 0 0 0 0 0 0 0 0 0 2 7 19 11 11 5 7 0 0 6 1 0 0 0 0 3 0 0 0 0 0 0 0 0
6 9 9 12 16 10 6 10 13 5 8 4 0 0 0 0 0 0 0 0 0 0 2 9 5 12 1 7 1 2 9 0 6 1 5 4 0 0 0 0 0 0 0 0 0 0 0
11 14 9 13 14 14 7 5 9 7 5 7 0 0 0 0 0 0 0 0 0 19 28 3 0 0 8 3 0 0 0 0 0 0 1 0 2 0 0 0 0 0 0 0 0 0 0
10 10 9 9 12 10 9 6 5 5 6 4 0 0 0 0 0 0 0 0 0 0 11 0 0 0 0 0 0 0 0 0 0 0 0 0 0 0 0 0 0 0 0 0 0 0 0
10 5 10 10 13 11 6 7 6 1 13 1 0 0 0 0 0 0 0 7 0 0 0 0 0 0 0 0 0 0 0 0 0 0 0 0 0 0 0 0 0 0 0 0 0 0 0
9 7 8 9 9 13 10 4 4 2 4 0 0 0 0 0 0 0 0 0 0 0 0 0 0 0 0 0 0 0 0 0 0 0 0 0 0 0 0 0 0 0 0 0 0 0 0
7 8 19 13 11 9 9 4 2 1 4 0 0 0 0 0 0 0 0 1 0 0 0 0 0 0 0 0 0 0 0 0 0 0 0 0 0 0 0 0 0 0 0 0 0 0 0
7 7 13 18 15 10 8 5 1 0 4 0 0 0 0 0 0 0 0 0 0 0 0 0 0 0 0 0 0 0 0 0 0 0 0 0 0 0 0 0 0 0 0 0 0 0 0
8 8 10 24 16 13 7 7 1 0 0 0 0 0 0 0 0 0 0 0 0 0 0 0 0 0 0 0 0 0 0 0 0 0 0 0 0 0 0 0 0 0 0 0 0 0 0
4 2 9 12 15 15 7 5 2 0 0 0 0 0 0 0 0 0 0 0 0 0 0 0 0 0 0 0 0 0 0 0 0 0 0 0 0 0 0 0 0 0 0 0 0 0 0
2 3 8 15 25 14 4 9 8 0 0 0 0 0 0 0 0 0 0 0 0 0 0 0 0 0 0 0 0 0 0 0 0 0 0 0 0 0 0 0 0 0 0 0 0 0 0
11 3 8 12 37 16 0 17 13 4 0 0 0 0 4 0 0 0 0 0 0 0 0 0 0 0 0 0 0 0 0 0 0 0 0 0 0 0 0 0 0 0 0 0 0 0 0
7 14 10 10 37 16 1 1 13 19 0 0 0 3 4 0 0 0 0 0 0 0 0 0 0 0 0 0 0 0 0 0 0 0 0 0 0 0 0 0 0 0 0 0 0 0 0
28 26 26 35 37 39 17 0 1 16 3 0 0 0 2 0 0 0 0 0 0 0 0 0 0 0 0 0 0 0 0 0 0 0 0 0 0 0 0 0 0 0 0 0 0 0 0
31 39 36 50 38 36 30 6 4 18 2 0 0 0 0 0 0 0 1 0 0 0 0 0 0 0 0 0 0 1 0 0 0 1 0 0 0 0 0 0 0 0 0 0 0 0 0
21 37 28 35 43 29 32 39 33 3 3 0 0 0 0 0 0 0 0 0 1 0 0 0 0 0 0 0 2 2 0 0 0 0 24 19 31 0 4 0 0 0 0 0 0 0 0
37 21 20 35 43 51 34 24 37 20 4 0 0 0 0 0 0 0 0 0 0 0 3 0 0 0 0 1 3 0 0 0 0 0 0 0 1 3 1 4 0 0 0 0 0 0 0
26 13 29 36 43 35 14 16 12 26 19 1 0 0 0 0 0 0 0 0 0 0 0 0 0 0 0 0 0 0 0 0 0 0 0 0 0 0 0 0 0 0 0 0 0 0 0

GFSGBSN_con_sbcape_036.txt.gz
CAPE
19 26 32 36 57 51 54 57 74 67 76 69 84 129 165 186 164 189 216 181 150 117 71 64 58 29 4 15 0 0 69 7 395 88 74 85 53 88 53 5 0 0 0 0 0 0 0
16 32 40 39 52 40 57 42 39 25 26 42 96 92 129 164 171 164 203 182 163 122 106 120 64 100 16 6 0 30 0 0 228 63 110 137 12 91 45 24 0 0 0 0 0 0 0
24 33 51 52 46 53 41 36 56 56 96 137 150 178 136 127 150 187 177 175 212 194 173 170 75 30 19 0 84 74 2 0 217 32 172 184 42 29 30 24 4 0 0 0 0 0 0
24 26 30 40 59 54 56 67 51 87 116 115 118 156 178 134 134 136 167 197 242 221 196 205 173 110 11 0 0 0 3 0 70 134 224 254 137 70 26 6 0 4 0 0 0 0 0
19 29 36 27 36 54 52 46 67 91 92 77 81 112 127 133 36 19 69 80 228 233 265 197 116 103 5 29 0 1 0 4 182 265 288 222 110 29 11 4 9 10 0 0 0 0 0
17 23 20 25 32 30 38 66 58 85 74 77 78 88 70 79 38 29 39 89 73 211 256 172 84 43 0 27 40 1 0 14 144 321 127 124 124 89 36 11 0 0 0 0 0 0 0
17 27 20 18 23 26 43 55 63 72 47 52 58 107 81 14 35 57 0 0 31 71 90 0 0 5 78 98 56 34 7 154 185 100 37 60 59 22 16 5 0 0 0 0 0 0 0
11 19 21 18 19 25 28 41 59 57 21 19 81 70 25 33 75 4 1 0 0 8 2 2 7 8 0 31 74 70 67 58 63 53 39 46 43 27 41 20 5 0 0 0 0 0 0
10 20 14 16 14 21 19 29 47 34 35 12 31 2 0 0 5 1 1 5 0 0 50 48 19 11 71 60 59 76 12 12 44 61 50 28 18 18 18 20 16 0 0 0 0 0 0
7 15 10 12 10 16 14 20 31 25 28 12 1 3 1 0 0 1 4 8 0 0 45 19 14 34 50 69 111 26 53 1 7 6 39 14 38 0 11 25 21 7 0 0 0 0 0
7 12 11 8 7 12 13 9 15 14 8 23 0 0 0 0 0 5 16 3 0 6 56 5 3 0 12 1 4 18 36 41 9 13 13 19 30 21 15 17 16 2 0 0 0 0 0
7 16 13 9 8 8 12 9 10 8 5 3 3 0 0 0 0 0 0 0 1 8 12 2 27 2 3 13 21 24 18 8 11 6 0 5 0 1 12 0 18 0 0 0 0 0 0
5 11 12 14 10 9 8 8 6 7 6 2 4 0 0 0 0 0 0 4 13 16 3 27 24 13 6 8 5 4 3 7 5 4 4 5 4 0 0 0 0 0 1 12 4 5 1
7 8 11 14 11 12 9 8 4 3 6 4 3 0 0 0 0 0 8 0 7 6 14 11 23 8 9 4 4 5 9 5 0 0 12 10 8 7 3 3 2 0 2 4 0 0 0
10 10 7 10 10 15 14 9 6 3 6 3 0 0 0 0 0 4 1 4 6 1 7 6 1 0 4 0 4 8 0 0 0 0 0 0 6 0 0 0 0 1 3 0 0 0 0
8 5 14 12 8 9 11 10 6 2 7 1 0 0 0 0 1 3 1 15 6 0 0 0 0 0 2 6 0 0 0 0 0 0 0 0 4 0 0 0 0 0 0 0 0 0 0
2 7 14 15 11 11 10 7 8 2 1 0 0 0 0 0 1 0 1 13 7 1 0 0 0 0 0 0 0 0 0 0 0 0 0 0 0 1 0 0 0 0 0 0 0 0 0
7 5 5 30 9 12 7 10 4 3 7 0 0 0 0 0 0 1 5 0 0 3 0 0 0 0 0 0 0 0 0 0 0 0 0 0 0 6 1 0 0 0 0 0 0 0 0
2 7 8 9 17 5 5 10 6 4 3 6 0 0 0 0 0 0 0 0 1 0 0 0 0 0 0 0 0 0 0 0 0 0 0 0 0 5 2 0 0 0 0 0 0 0 0
4 8 6 6 17 13 4 7 5 2 1 0 0 0 0 0 0 0 0 0 0 0 0 0 0 0 0 0 0 0 0 0 0 0 0 0 0 0 0 0 0 0 0 0 0 0 0
3 7 6 7 22 20 4 8 5 0 0 0 0 1 1 0 0 0 0 0 0 0 0 0 0 0 0 0 0 0 0 0 0 0 0 0 0 0 0 0 0 0 0 0 0 0 0
4 4 3 6 5 25 5 1 8 0 0 0 4 2 1 1 1 0 0 0 0 0 0 0 0 0 0 0 0 0 0 0 0 0 0 0 1 0 0 0 0 0 0 0 0 0 0
0 7 6 20 21 38 31 8 9 2 0 0 0 1 6 0 0 0 0 0 0 0 0 0 0 0 0 0 0 0 0 0 0 0 0 0 0 0 0 0 0 0 0 0 0 0 0
8 14 30 35 31 42 44 35 16 10 0 0 0 3 8 1 0 0 0 0 0 0 0 0 0 0 0 0 0 0 0 0 0 0 0 0 6 1 1 0 0 0 0 0 0 0 0
15 22 23 27 30 34 31 45 23 24 0 0 0 1 6 0 0 0 0 1 0 0 0 0 0 0 0 0 1 1 3 0 0 0 0 0 3 5 4 1 0 0 0 0 0 0 0
10 18 36 17 16 39 15 28 42 40 0 0 0 0 0 0 0 0 0 0 2 0 0 0 0 0 0 8 13 7 9 1 5 9 2 1 7 15 5 0 0 0 0 0 0 2 0
49 30 24 18 27 33 35 13 12 42 21 0 0 0 0 0 0 0 0 0 1 4 2 0 0 2 0 33 21 1 7 0 2 2 15 24 26 23 21 1 0 0 0 0 7 2 0
39 39 18 23 31 38 25 14 17 25 15 6 3 0 0 1 0 0 0 0 0 0 3 0 9 4 0 37 29 13 6 0 0 0 1 2 10 23 24 17 0 0 0 0 0 0 0
24 17 6 25 29 18 19 12 4 8 17 7 8 0 0 1 0 0 0 0 0 0 0 0 1 0 4 31 8 11 1 0 1 2 0 1 0 0 0 0 0 0 0 0 0 0 0

GFSGBSN_con_sbcape_039.txt.gz
CAPE
21 28 33 35 38 34 51 35 57 44 62 90 122 155 167 159 128 154 144 175 139 131 85 72 71 34 3 19 0 176 133 614 389 118 14 68 16 53 27 8 0 0 0 0 0 0 0
16 28 34 31 43 42 38 65 39 70 90 127 130 141 158 184 149 136 138 179 105 146 81 82 43 55 13 14 2 128 62 38 437 192 87 42 7 77 47 34 7 2 1 0 0 0 0
20 23 29 38 24 41 52 27 58 82 103 124 100 121 125 179 178 145 122 189 166 198 169 101 36 8 16 7 14 242 17 1 36 416 25 37 37 165 70 41 33 22 6 1 0 0 0
15 18 23 24 24 27 37 48 58 83 115 91 102 119 102 125 124 52 60 163 183 197 152 112 78 28 6 0 0 3 83 16 14 364 25 76 164 68 43 34 47 26 29 11 0 0 0
18 15 19 19 20 34 42 42 53 85 101 57 90 96 70 55 9 0 41 53 129 182 212 178 78 98 13 10 0 0 55 16 147 351 44 370 339 100 82 46 66 42 2 0 0 0 0
13 15 18 17 18 28 38 33 52 72 82 43 75 53 63 18 46 32 50 45 121 244 274 204 124 94 4 15 1 23 109 4 213 145 190 225 336 96 49 56 12 0 0 0 0 0 0
10 10 15 16 17 22 24 33 44 61 65 24 40 32 34 14 25 46 79 77 213 138 98 36 34 14 106 154 151 99 64 19 155 124 99 154 91 34 8 0 0 0 0 0 0 0 0
7 12 11 14 18 16 13 24 40 51 54 25 7 0 18 37 15 0 25 21 9 6 23 4 17 0 1 0 46 21 89 60 66 59 18 68 9 12 19 16 8 0 1 0 0 0 0
4 9 12 12 18 13 20 13 27 34 33 45 11 1 0 0 0 9 8 5 3 19 37 23 6 5 40 25 38 70 0 5 43 70 41 10 2 9 33 21 27 15 4 0 0 0 0
4 10 10 12 15 13 15 17 13 21 12 9 25 1 0 0 2 0 0 2 3 0 49 23 10 29 57 56 37 47 16 18 9 55 40 38 8 18 34 20 30 26 13 1 0 0 0
5 9 7 10 11 10 12 13 13 10 12 7 8 9 0 0 0 0 0 2 5 9 119 9 11 8 62 54 30 10 48 14 4 11 4 9 25 16 16 26 38 40 2 0 0 0 0
4 6 8 11 10 12 9 12 12 9 10 9 5 4 0 1 0 0 0 2 7 8 24 36 20 42 15 24 11 23 25 1 2 5 0 3 0 8 23 1 35 0 0 0 0 0 3
2 3 7 10 11 12 13 10 10 9 4 8 5 9 1 0 2 0 2 1 6 32 2 16 23 14 11 11 21 26 19 9 4 2 3 2 3 3 0 2 0 0 13 26 18 22 2
1 4 7 11 9 9 16 11 10 7 5 12 7 0 0 0 1 4 2 8 18 5 7 20 17 6 10 14 10 4 4 23 13 7 16 17 5 2 0 1 0 0 19 59 9 8 1
1 2 2 16 8 12 10 17 9 7 13 16 0 0 0 0 5 2 3 8 28 11 7 2 4 4 7 5 1 16 7 8 4 4 16 13 20 9 11 0 0 2 2 0 0 0 0
2 3 6 15 9 9 10 11 9 8 5 9 0 0 0 0 2 2 5 10 28 5 1 0 4 2 8 4 6 11 8 0 0 0 0 0 6 1 7 2 0 4 0 2 0 0 0
3 5 7 5 11 7 6 10 10 6 2 0 0 0 0 0 2 9 4 2 16 3 0 0 0 0 1 1 2 11 1 0 0 0 0 0 0 2 0 1 0 1 4 0 0 0 0
5 6 5 3 6 11 8 7 9 7 5 0 1 14 0 0 13 12 10 4 1 1 0 0 0 0 1 0 0 1 0 0 0 0 0 0 2 3 4 0 0 0 0 0 1 0 0
5 6 6 5 4 15 4 4 7 8 0 9 1 0 0 0 11 8 0 0 0 0 0 0 0 0 0 1 1 3 0 0 0 0 0 0 0 3 3 1 0 0 0 0 0 0 0
3 7 8 7 5 16 7 2 4 4 0 3 1 3 0 0 0 2 0 0 0 0 0 0 0 0 0 0 0 0 0 0 0 0 0 0 0 0 0 1 0 0 0 0 0 0 0
0 3 8 7 12 25 20 5 2 1 0 1 1 4 3 16 0 0 0 0 0 0 0 0 0 0 0 0 0 0 0 0 0 0 0 0 0 0 0 0 0 0 0 0 0 0 0
0 7 6 12 26 38 29 19 5 0 0 0 5 6 5 1 0 0 0 0 0 0 0 0 0 0 0 0 0 0 0 0 0 0 0 0 0 0 0 0 0 0 0 0 0 0 0
0 0 2 14 28 28 22 25 5 3 0 0 0 7 9 0 3 0 1 1 3 0 0 0 0 1 1 4 0 0 0 0 0 0 0 1 0 0 1 0 0 0 0 0 0 0 0
0 0 6 17 17 29 31 36 35 19 0 0 0 4 5 0 1 3 0 0 0 1 2 0 0 5 0 0 0 0 0 0 0 0 0 4 5 5 8 0 0 0 0 0 0 0 0
0 3 23 33 16 31 26 20 18 18 0 1 1 0 0 0 0 0 0 0 0 0 0 0 1 0 0 0 9 7 12 8 8 0 0 2 7 5 3 3 0 0 0 0 0 0 0
18 15 32 28 15 28 9 4 13 30 3 2 0 0 0 0 0 0 0 0 1 7 9 5 2 0 0 38 26 3 6 5 6 13 7 5 10 4 0 1 0 0 0 0 0 5 0
43 39 45 23 22 25 17 21 17 22 2 1 4 0 0 0 0 0 0 1 2 11 3 3 2 26 10 46 22 4 4 3 5 3 2 17 16 16 5 4 0 0 0 0 6 1 0
23 14 21 8 26 10 31 30 5 9 23 10 10 0 0 2 0 0 0 0 0 0 2 0 10 21 13 48 33 11 5 4 1 1 0 2 6 8 8 3 0 0 0 3 1 0 0
6 0 0 3 29 33 36 45 39 38 15 19 1 1 0 14 0 0 0 0 0 0 0 0 0 0 4 42 60 29 9 12 0 7 0 1 0 2 0 0 0 0 0 0 0 0 0

GFSGBSN_con_sbcape_042.txt.gz
CAPE
17 20 24 31 34 37 37 36 47 72 89 104 97 111 125 198 224 226 141 146 130 100 101 46 91 55 62 8 0 125 111 117 186 282 55 65 3 14 20 0 0 0 0 0 2 0 0
12 18 25 27 25 30 35 48 60 65 85 86 70 94 102 153 198 196 122 107 51 120 79 79 69 69 44 1 0 127 129 197 387 289 4 88 0 87 63 41 0 0 0 0 4 0 0
13 15 17 19 19 27 42 36 43 63 83 47 57 77 87 130 154 117 124 75 160 165 155 126 70 27 31 1 16 230 81 0 250 172 8 0 0 31 146 131 23 12 0 0 0 0 0
10 12 17 16 14 27 27 30 48 68 76 33 39 35 26 23 36 26 40 113 130 166 130 91 57 52 9 0 0 2 43 1 0 99 73 93 41 24 112 116 46 16 12 10 0 0 0
9 8 13 12 14 16 26 30 39 58 64 23 35 29 22 5 0 0 29 46 91 156 165 122 7 3 1 37 0 0 6 35 44 237 280 147 285 45 64 40 39 37 0 0 0 0 0
9 9 11 9 12 16 31 21 27 47 55 20 12 24 15 8 25 53 42 8 75 134 158 86 7 4 0 0 0 0 6 58 150 267 382 129 74 55 31 15 7 0 0 0 0 0 0
8 10 9 13 12 14 20 15 21 36 34 54 12 26 6 13 21 17 48 122 124 70 70 20 8 2 0 0 63 111 211 52 125 76 44 82 31 0 0 0 0 0 0 0 0 0 0
4 10 7 10 10 13 14 17 10 21 25 26 40 1 11 14 7 19 24 11 0 0 23 1 0 0 0 0 33 93 71 307 112 36 20 33 22 0 0 0 0 5 0 0 0 0 0
2 9 5 8 12 14 17 18 14 10 7 14 14 24 2 0 5 12 1 6 6 0 2 1 0 0 44 16 35 19 37 4 5 9 19 10 1 37 11 2 6 0 0 0 0 0 0
3 6 5 8 11 11 19 19 12 13 10 9 6 9 17 0 0 0 0 0 0 0 7 2 16 31 30 11 41 52 1 1 9 21 12 31 8 15 6 22 14 9 0 1 0 0 0
2 4 5 7 10 6 12 12 16 6 8 7 7 6 7 0 0 4 0 1 5 4 42 4 15 18 7 21 15 48 1 0 5 24 31 22 5 0 24 18 5 24 14 1 1 0 0
1 5 4 6 8 9 13 14 15 12 3 4 5 6 4 1 6 0 0 4 4 6 0 21 6 26 71 28 14 21 2 0 0 2 1 1 0 6 17 20 22 33 0 0 0 1 0
1 4 3 10 8 9 9 9 11 12 9 1 3 6 3 0 1 0 6 6 2 4 0 2 33 27 22 10 20 10 7 8 2 0 0 3 2 0 0 11 2 0 1 4 19 12 0
1 2 3 5 11 6 12 9 8 9 5 3 1 1 0 0 3 5 5 6 0 1 6 5 16 11 8 0 3 8 17 11 1 0 8 4 1 1 0 0 0 0 0 8 0 0 0
0 3 4 4 10 9 13 11 7 11 15 1 0 0 0 0 3 3 5 0 0 7 5 1 2 14 9 15 3 5 13 10 15 14 5 9 6 6 0 0 0 0 0 0 0 0 0
1 3 7 9 7 8 14 14 10 11 8 0 2 0 0 0 0 0 8 0 6 2 2 0 3 1 1 4 6 12 1 0 2 1 0 0 7 9 5 1 0 0 0 0 0 0 0
3 4 5 8 8 18 10 13 11 8 5 0 0 0 0 0 2 1 0 0 0 0 0 0 0 0 2 0 1 6 0 0 0 0 0 0 0 13 7 7 5 0 0 0 0 0 0
2 3 6 6 8 7 15 7 6 8 5 0 0 0 0 0 9 27 11 1 0 0 0 0 0 0 0 0 0 1 0 0 0 0 0 0 0 4 2 0 0 0 0 0 0 0 0
0 5 7 7 6 9 17 8 8 8 6 2 0 0 0 0 13 0 0 0 0 0 0 0 0 0 0 0 0 0 0 0 0 0 0 0 0 0 0 0 0 0 0 0 0 0 0
0 9 7 8 14 18 15 11 6 5 0 1 0 0 4 0 0 1 3 0 0 0 0 0 0 0 0 0 0 0 0 0 0 0 0 0 0 0 0 0 0 0 0 0 0 0 0
0 5 6 17 18 27 16 11 3 0 0 0 2 0 0 0 0 0 0 1 3 7 0 0 0 0 0 0 0 0 0 0 0 0 0 0 0 0 0 0 0 0 0 0 0 0 0
0 1 3 4 13 21 22 15 5 0 0 0 0 1 0 0 0 0 0 7 8 13 0 3 0 1 0 0 0 0 0 0 0 0 0 0 0 0 0 0 0 0 0 0 0 0 0
0 0 3 13 10 18 17 19 15 0 0 0 0 0 5 0 0 0 0 0 3 2 1 0 0 1 0 10 1 0 0 0 0 0 0 0 0 0 0 0 0 0 0 0 0 0 0
0 0 9 25 3 18 17 13 10 4 0 0 0 0 0 0 0 0 0 0 1 0 0 0 0 8 0 0 0 0 0 0 0 0 0 0 0 0 0 0 0 0 0 0 0 0 0
0 0 9 21 9 31 19 15 19 24 7 4 0 0 0 0 0 0 0 0 0 0 0 11 16 0 0 0 1 0 2 0 5 0 0 2 0 1 0 0 0 0 0 0 0 0 0
0 7 29 16 2 17 25 16 8 10 2 7 1 0 0 0 0 0 0 0 0 0 0 25 5 0 0 15 17 8 8 2 1 3 0 2 3 3 9 0 0 0 0 0 0 0 0
0 1 0 0 0 15 21 28 7 5 14 8 23 0 0 1 0 0 0 0 0 0 0 2 0 6 6 20 27 6 3 0 1 0 0 4 2 2 7 3 0 0 0 0 0 0 0
0 0 0 0 3 33 40 53 48 14 32 10 28 1 2 1 0 0 0 0 0 0 0 0 0 1 12 23 18 4 0 0 0 0 0 0 0 3 5 7 0 0 0 1 0 0 0
0 0 0 6 19 16 23 23 17 1 1 18 9 0 0 10 0 0 0 0 0 0 0 0 0 0 5 4 7 19 5 0 0 0 0 0 0 0 0 0 0 0 0 0 0 0 0

GFSGBSN_con_sbcape_045.txt.gz
CAPE
8 14 16 15 20 27 31 30 27 45 67 25 58 40 41 64 92 169 129 90 54 93 80 118 43 13 9 6 4 0 29 1 136 241 112 32 0 131 15 12 7 0 0 3 5 0 0
14 16 16 14 18 22 22 20 29 38 43 25 40 24 20 33 21 100 68 47 35 40 83 100 111 71 26 2 1 247 133 28 171 146 115 40 0 0 45 8 0 0 0 2 0 0 0
15 13 17 15 19 19 20 30 24 29 38 17 45 30 23 14 13 15 49 54 141 112 155 128 72 31 21 0 0 114 138 4 79 124 94 34 10 1 15 23 0 0 2 0 0 0 0
9 10 17 17 16 13 9 23 23 34 27 6 19 26 35 3 0 0 5 82 106 161 138 92 49 18 5 3 0 0 26 20 0 30 179 66 3 2 87 39 12 19 0 1 0 0 0
6 13 15 13 15 12 10 8 23 20 29 43 5 7 39 20 0 0 0 7 59 133 162 138 22 9 0 17 0 0 0 0 1 21 109 113 60 17 25 29 12 21 1 0 0 0 0
6 8 8 10 12 11 10 11 11 17 15 18 26 4 5 2 1 2 0 14 95 81 73 111 24 1 1 0 0 0 0 0 32 76 32 111 42 25 22 1 1 0 0 0 0 0 0
6 7 7 11 14 10 10 9 14 16 8 16 12 23 1 0 5 0 0 0 0 5 0 7 1 0 0 0 23 9 0 18 39 32 3 9 0 0 0 0 0 0 0 0 0 0 0
4 7 8 12 12 12 14 13 9 14 17 11 4 13 7 0 0 0 0 0 4 2 0 0 0 0 0 0 42 79 67 36 114 30 8 6 2 0 0 0 0 0 0 0 0 0 0
2 5 9 12 12 5 11 8 10 13 11 13 12 6 8 0 0 0 0 0 0 0 4 1 0 0 19 10 42 30 22 67 41 0 11 2 0 0 0 0 0 0 0 0 0 0 0
2 4 6 9 10 7 8 10 10 10 12 11 13 5 8 4 0 0 0 0 0 0 0 16 21 33 49 40 4 11 25 9 33 8 22 11 0 0 0 0 0 0 0 0 0 0 0
2 3 6 8 8 11 12 8 10 11 10 12 16 10 10 4 0 0 0 0 0 0 0 25 29 16 10 3 1 36 23 0 3 28 4 4 9 16 7 11 4 0 0 0 0 0 0
2 2 4 4 10 11 12 9 11 10 17 11 6 5 5 0 0 0 0 0 0 0 0 2 11 21 12 15 18 10 0 0 0 1 0 1 0 1 7 10 10 0 0 0 0 0 0
1 5 8 9 14 13 13 10 7 7 15 12 6 3 0 0 0 0 0 0 0 0 0 13 12 28 7 12 15 5 2 1 2 8 5 0 1 0 0 0 0 0 0 2 7 6 0
0 5 7 6 11 13 15 15 4 7 6 10 1 0 0 0 0 0 0 0 0 0 2 2 7 10 5 1 12 18 12 9 0 0 8 0 21 2 0 0 0 0 0 0 0 0 0
0 4 4 4 9 12 6 13 19 10 16 6 0 0 0 0 0 0 1 0 0 2 1 2 2 7 14 9 2 8 9 3 3 0 0 0 2 3 0 0 0 0 0 0 0 0 0
1 3 3 4 11 16 10 20 16 16 15 1 0 0 0 0 0 0 0 0 0 0 0 0 0 0 0 0 0 4 9 3 8 0 0 0 3 8 3 1 0 0 0 0 0 5 0
1 4 6 7 12 18 16 10 17 13 20 0 0 0 0 0 0 2 0 0 0 0 0 0 0 0 0 0 0 3 0 0 0 0 0 0 0 13 5 5 4 0 0 0 0 0 0
0 5 8 11 16 20 9 8 15 15 15 0 0 0 0 0 0 1 0 0 0 0 0 0 0 0 0 0 0 0 0 0 0 0 0 0 0 5 1 2 0 0 0 0 0 1 0
0 5 5 12 13 17 10 8 10 10 5 0 0 0 0 0 6 0 0 0 0 0 0 0 0 0 0 0 0 0 0 0 0 0 0 0 0 0 1 0 2 5 0 0 0 0 0
0 1 4 4 7 13 13 8 4 0 0 0 0 0 0 0 0 0 0 0 0 0 0 0 0 0 0 0 0 0 0 0 0 0 0 0 0 0 0 0 0 0 0 0 0 0 0
0 0 1 4 7 14 10 7 2 0 0 0 0 0 0 0 0 0 0 2 0 0 0 0 0 0 0 0 0 0 0 0 0 0 0 0 0 0 0 0 0 0 0 0 0 0 0
0 0 0 6 6 9 8 8 3 0 0 0 0 0 0 0 0 0 0 1 3 3 0 0 0 0 0 0 0 0 0 0 0 0 0 0 0 0 0 0 0 0 0 0 0 0 0
0 0 0 11 10 8 3 4 4 0 0 0 0 0 0 0 0 0 0 0 0 2 7 0 0 0 0 3 0 0 0 0 0 0 0 0 0 0 0 0 0 0 0 0 0 0 0
0 0 1 16 9 9 6 2 2 4 0 0 0 0 0 0 0 0 0 0 0 0 0 0 1 6 0 0 0 0 0 0 0 0 0 0 0 0 0 0 0 0 0 0 0 0 0
0 0 21 23 2 2 0 2 0 0 2 0 0 0 0 0 0 0 0 0 0 0 0 1 5 0 0 0 0 0 0 0 0 0 0 0 0 0 0 0 0 0 0 0 0 0 0
0 6 23 10 0 0 2 3 2 0 1 0 0 0 0 0 0 0 0 0 0 0 0 0 0 0 0 1 11 8 7 1 0 0 0 0 1 0 0 0 0 0 0 0 0 0 0
0 3 6 0 0 1 6 9 23 4 13 0 5 0 0 0 0 0 0 0 0 0 0 0 0 0 0 0 9 4 1 0 0 0 0 3 0 0 0 1 0 0 0 0 0 0 0
0 0 2 4 3 8 9 7 7 1 0 0 0 0 0 0 0 0 0 0 0 0 0 0 0 0 0 17 2 0 0 0 0 0 0 0 0 0 0 3 0 0 0 0 0 0 0
0 0 1 11 7 10 19 10 13 0 8 3 5 0 0 6 0 0 0 0 0 0 0 0 0 0 8 5 5 1 0 0 0 0 0 0 0 0 0 0 0 0 0 0 0 0 0

GFSGBSN_con_sbcape_048.txt.gz
CAPE
8 15 11 13 13 16 26 20 23 48 24 11 28 20 17 37 45 66 17 54 13 89 54 144 31 4 6 6 0 0 28 69 4 122 101 0 30 41 84 9 81 0 0 0 45 65 27
9 12 8 15 16 14 22 20 28 34 48 16 15 12 14 11 24 27 63 56 67 118 132 118 155 49 14 12 0 3 0 13 0 160 126 77 0 39 0 16 65 0 0 1 0 11 34
8 7 9 14 16 14 16 18 18 25 30 30 14 9 15 9 6 17 18 87 122 112 163 144 99 86 21 0 0 21 24 1 86 258 121 90 0 43 0 6 0 0 51 0 0 0 0
10 13 12 13 13 11 16 17 9 18 31 21 28 6 10 5 4 1 0 56 67 141 138 79 53 6 7 29 0 0 12 30 12 35 144 141 34 25 0 0 1 6 0 1 0 0 0
7 8 10 11 12 13 16 17 16 14 14 15 17 17 3 7 0 1 0 7 29 87 92 99 3 1 0 3 1 0 0 44 33 23 89 131 15 2 4 1 2 6 0 0 0 0 0
4 6 10 6 12 15 15 17 18 20 15 10 8 18 14 3 5 1 2 15 5 19 8 22 37 0 0 0 0 0 0 41 65 38 150 111 44 12 0 8 2 0 0 0 0 0 0
3 6 9 5 7 12 15 16 14 17 15 14 11 9 14 4 0 0 0 0 0 0 0 0 0 0 0 0 0 2 40 8 0 8 4 48 13 0 0 0 0 0 0 0 0 0 0
4 3 8 6 7 10 12 14 19 22 12 16 11 10 7 4 0 0 0 0 0 0 0 0 0 0 0 0 29 20 75 0 5 17 0 44 7 0 0 2 0 0 0 0 0 0 0
4 3 6 6 6 12 14 10 11 13 8 16 14 15 4 7 2 0 0 0 0 0 1 0 0 0 0 10 33 39 41 29 20 6 8 5 7 0 1 0 0 0 0 0 0 0 0
3 4 9 5 21 10 17 15 12 13 20 10 8 15 5 17 0 0 0 0 0 0 0 14 8 9 26 53 28 3 1 70 17 15 0 19 1 0 2 0 0 0 0 0 0 0 0
2 2 6 11 15 19 27 13 10 17 17 8 13 11 6 10 0 0 0 0 0 0 0 1 24 8 2 1 1 40 35 37 34 5 10 9 2 0 0 0 0 0 0 0 0 0 0
0 2 5 5 12 12 12 27 14 15 21 12 7 6 8 0 0 0 0 0 0 0 0 1 0 13 4 0 26 17 14 0 3 4 0 0 0 3 0 0 3 0 0 0 0 0 0
0 2 3 2 7 8 8 18 11 15 16 13 6 0 4 0 0 0 0 0 0 0 0 4 21 5 4 32 16 0 5 7 2 0 0 0 0 0 0 2 5 0 0 0 0 0 0
0 2 4 4 5 7 14 12 9 12 14 11 4 0 0 0 0 0 0 0 0 0 15 9 6 0 2 7 11 9 4 0 0 0 0 0 1 0 0 0 3 1 0 0 0 0 0
0 2 4 3 5 10 15 15 12 8 23 15 0 0 0 0 0 0 0 0 0 0 0 1 7 12 9 10 2 6 8 0 0 0 0 0 0 0 0 0 0 0 0 0 0 0 0
0 3 2 5 6 15 13 11 13 19 17 2 0 0 0 0 0 0 0 0 0 0 0 0 0 0 3 1 12 15 6 0 5 0 0 0 3 5 1 0 0 0 0 0 0 0 0
0 2 5 10 14 13 10 12 12 12 5 0 0 0 0 0 0 3 0 0 0 0 0 0 0 0 0 0 0 0 0 0 0 0 0 0 0 12 4 2 9 4 3 0 0 0 0
0 2 5 8 7 6 9 8 9 13 8 0 0 0 0 0 1 0 0 0 0 0 0 0 0 0 0 0 0 0 0 0 0 0 0 0 0 1 1 2 0 0 0 0 0 0 0
0 0 4 2 4 6 6 4 5 5 0 0 0 0 0 0 3 0 0 0 0 0 0 0 0 0 0 0 0 0 0 0 0 0 0 0 0 0 0 0 0 12 3 0 0 0 0
0 0 1 3 4 5 4 7 3 0 0 0 0 0 0 0 0 0 0 0 0 0 0 0 0 0 0 0 0 0 0 0 0 0 0 0 0 0 0 0 0 0 6 0 0 0 0
0 0 1 2 3 6 4 6 3 0 0 0 0 0 0 0 0 0 0 1 0 0 0 0 0 0 0 0 0 0 0 0 0 0 0 0 0 0 0 0 0 0 0 0 0 0 0
0 0 2 2 2 6 5 5 2 0 0 0 0 0 0 0 0 0 0 0 1 19 0 2 0 0 0 0 0 0 0 0 0 0 0 0 0 0 0 0 0 0 0 0 0 0 0
0 0 0 1 0 6 3 3 3 0 0 0 0 0 0 0 0 0 0 0 0 0 3 0 0 0 0 0 0 0 0 0 0 0 0 0 0 0 0 0 0 0 0 0 0 0 0
0 0 0 1 0 3 2 3 2 2 0 0 0 0 0 0 0 0 0 0 0 0 0 0 0 6 0 0 0 0 0 0 0 0 0 0 0 0 0 0 0 0 0 0 0 0 0
0 0 5 0 0 1 9 13 9 2 0 0 0 0 0 0 0 0 0 0 0 0 0 0 1 0 0 0 0 0 0 0 0 0 0 0 0 0 0 0 0 0 0 0 0 0 0
0 0 0 0 0 6 10 25 30 11 0 0 0 0 0 0 0 0 0 0 0 0 0 0 0 0 0 0 1 0 0 0 0 1 0 0 0 0 0 0 0 0 0 0 0 0 0
0 0 0 0 1 7 13 11 15 0 0 0 0 0 0 0 0 0 0 0 0 0 0 0 0 0 0 0 0 2 0 0 0 0 0 1 0 3 0 2 0 0 0 0 0 0 0
0 0 0 0 4 2 15 9 7 1 0 0 0 0 0 0 0 0 0 0 0 0 0 0 0 0 1 3 2 0 0 0 0 0 0 0 0 0 0 5 0 0 0 0 0 0 0
0 0 0 0 1 0 5 24 30 34 34 0 0 2 1 0 0 0 0 0 0 0 0 0 0 0 12 6 3 4 0 0 0 0 0 0 0 0 0 0 0 0 0 0 0 0 0

GFSGBSN_con_sbcape_051.txt.gz
CAPE
7 7 10 11 10 14 10 15 26 36 43 34 14 16 21 8 13 14 16 15 31 78 80 131 52 24 6 19 0 0 30 15 13 10 4 7 0 0 10 3 54 0 5 1 86 58 4
7 8 7 11 14 11 13 14 11 28 41 42 38 19 15 13 3 6 2 28 68 148 137 173 136 25 15 4 0 1 0 0 0 18 0 19 0 0 26 23 76 2 24 45 58 25 19
7 7 9 12 8 21 15 17 15 17 21 36 40 34 23 13 10 1 2 50 51 104 135 133 94 109 24 0 0 0 0 3 12 7 5 71 1 71 2 6 0 0 4 2 50 47 15
5 6 8 10 14 18 12 32 20 18 22 8 29 37 22 16 6 2 0 5 29 55 116 49 33 1 20 4 0 0 0 37 82 41 83 99 42 30 1 0 0 0 0 0 0 2 3
4 4 6 4 16 12 16 14 22 32 27 18 12 14 18 24 9 2 0 26 8 29 30 70 0 0 0 41 43 1 0 13 85 136 125 182 37 33 4 2 0 0 0 0 0 0 0
2 3 6 6 10 5 7 12 27 23 20 29 15 10 7 12 22 8 0 0 5 0 0 0 1 0 0 1 6 44 36 13 60 120 141 81 50 39 0 1 1 0 0 0 0 0 0
1 4 6 6 7 7 19 18 28 28 20 11 13 25 10 5 19 8 0 0 0 0 0 0 0 0 0 0 0 9 49 1 15 58 148 10 28 1 0 0 0 0 0 0 0 0 0
1 5 7 6 5 8 17 16 10 24 17 7 14 19 8 4 8 7 0 0 0 0 0 0 0 0 0 0 6 56 113 8 4 2 34 24 10 0 0 0 0 0 0 0 0 0 0
2 3 7 5 9 10 17 9 22 22 20 13 23 15 17 5 10 0 0 0 0 0 0 0 0 0 0 1 21 64 56 18 6 12 9 4 0 0 16 0 2 0 0 0 0 0 0
0 3 6 2 7 10 11 14 10 17 20 9 18 8 18 10 0 0 0 0 0 0 0 6 1 5 38 36 5 3 56 25 14 8 6 5 0 7 11 2 0 0 0 0 0 0 0
0 2 4 7 9 19 9 16 13 9 14 12 7 18 14 16 0 0 0 0 0 0 0 0 14 1 2 15 0 9 0 47 1 17 10 4 2 0 0 0 0 0 0 0 0 0 0
0 0 4 6 8 13 9 7 9 12 16 17 18 19 3 2 1 0 0 0 0 0 0 3 4 3 4 6 4 16 26 22 7 12 2 2 0 0 0 0 0 0 0 0 0 0 0
0 0 3 4 5 8 7 8 12 9 12 27 12 5 3 0 0 0 0 0 0 0 0 1 10 2 1 11 12 7 34 17 2 0 0 1 0 0 0 2 0 0 0 0 0 0 0
0 0 2 2 2 4 7 17 11 12 14 23 9 0 5 0 0 0 0 0 0 0 9 8 4 6 6 2 3 3 7 9 1 0 0 1 2 0 0 0 0 0 0 0 0 0 0
0 0 1 2 6 11 10 9 13 13 30 24 0 0 0 0 0 0 0 0 0 0 0 3 8 8 14 13 1 3 3 1 0 0 0 0 1 0 0 0 0 0 0 0 0 0 0
0 0 0 1 7 9 14 15 13 17 19 5 0 0 0 0 0 0 0 0 0 0 0 0 0 0 5 11 2 3 1 0 0 0 0 0 1 0 0 0 0 0 0 0 0 0 0
0 0 0 1 1 6 11 14 10 10 3 0 0 0 0 0 0 4 0 0 0 0 0 0 0 0 0 0 3 3 2 0 0 0 0 0 0 3 7 2 4 0 1 0 0 0 0
0 0 0 0 1 2 6 10 8 8 4 0 0 0 0 0 3 3 0 0 0 0 0 0 0 0 0 0 0 0 0 0 0 0 0 0 0 1 1 1 0 0 0 0 0 0 0
0 0 0 0 1 1 3 4 4 5 0 0 0 0 0 0 2 0 0 0 0 0 0 0 0 0 0 0 0 0 0 0 0 0 0 0 0 0 0 0 1 11 6 0 0 0 0
0 0 0 0 1 1 1 2 1 0 0 0 0 0 0 1 0 0 0 0 0 0 0 0 0 0 0 0 0 0 0 0 0 0 0 0 0 0 0 0 0 1 1 3 1 0 0
0 0 0 0 2 2 1 0 0 0 0 0 0 0 0 0 0 0 0 0 0 0 0 0 0 0 0 0 0 0 0 0 0 0 0 0 0 0 0 0 0 0 0 1 3 0 0
0 0 0 0 1 1 0 0 0 0 0 0 0 0 0 0 0 0 0 0 0 0 0 0 0 0 0 0 0 0 0 0 0 0 0 0 0 0 0 0 0 0 0 0 0 0 0
0 0 0 0 0 0 0 0 0 0 0 0 0 0 0 0 0 0 0 0 0 0 0 0 0 0 0 0 0 0 0 0 0 0 0 0 0 0 0 0 0 0 0 0 0 0 0
0 0 0 0 0 0 0 0 0 1 0 0 0 0 0 0 0 0 0 0 0 0 0 0 0 1 0 0 0 0 0 0 0 0 0 0 0 0 0 0 0 0 0 0 0 0 0
0 0 0 0 0 0 0 1 0 0 0 0 0 0 0 0 0 0 0 0 0 0 0 0 0 0 0 0 0 0 0 0 0 0 0 0 0 0 0 0 0 0 0 0 0 0 0
0 0 0 0 0 0 0 0 0 0 0 0 0 0 0 0 0 0 0 0 0 0 0 0 0 0 0 0 0 0 0 0 0 0 0 0 0 0 0 0 0 0 0 0 0 0 0
0 0 0 0 0 0 0 0 0 0 0 0 0 0 0 0 0 0 0 0 0 0 0 0 0 0 0 0 4 0 0 0 0 0 0 0 0 0 1 4 0 0 0 0 0 0 0
0 0 0 0 0 0 0 0 0 2 5 0 0 0 0 0 0 0 0 0 0 0 0 0 0 1 1 0 0 0 0 0 0 0 0 0 0 0 0 6 0 0 0 0 0 0 0
0 0 0 0 4 0 3 2 0 2 8 0 0 0 2 0 0 0 0 0 0 0 0 0 0 1 7 5 3 1 0 0 0 0 0 0 0 0 0 0 0 0 0 0 0 0 0

GFSGBSN_con_sbcape_054.txt.gz
CAPE
6 7 6 10 6 8 14 15 21 13 24 41 64 48 14 36 16 16 9 3 5 55 101 115 58 68 19 18 0 1 35 0 3 120 43 45 4 0 0 2 82 41 0 0 28 2 0
6 5 7 10 9 11 15 23 19 20 19 18 49 51 42 17 20 10 8 12 25 71 105 139 163 45 19 0 0 0 0 0 0 0 0 8 4 0 0 1 5 21 27 13 30 13 33
4 5 6 7 13 9 12 9 21 23 26 25 19 31 40 22 16 14 7 3 15 8 71 111 92 82 25 0 0 0 0 0 0 0 0 2 19 12 0 3 8 15 56 54 54 58 60
3 6 8 7 3 6 18 23 12 22 20 25 42 14 23 28 21 16 10 7 8 0 5 75 54 0 1 1 3 10 0 0 7 5 22 67 81 29 11 0 24 32 4 60 6 23 22
1 4 7 6 7 6 10 21 16 19 32 32 32 33 13 7 23 26 12 3 5 6 7 4 0 7 1 41 33 1 0 4 71 75 90 7 79 39 6 0 10 0 4 0 0 18 31
2 3 5 8 7 10 15 26 22 31 42 39 30 35 22 8 10 24 9 0 0 0 0 0 8 2 0 0 0 24 51 76 78 183 93 194 36 12 2 4 0 0 0 0 0 0 3
0 2 3 5 6 12 27 12 27 26 45 42 41 35 28 7 11 16 0 0 0 0 0 0 0 0 0 0 0 29 73 2 30 66 32 32 2 0 0 0 0 0 0 0 0 0 0
0 2 3 5 6 9 14 8 17 27 42 37 32 31 27 9 5 21 0 0 0 0 0 0 0 0 0 0 9 58 8 0 6 26 19 28 2 0 0 0 0 0 0 0 0 0 0
0 3 5 5 4 12 16 18 10 29 38 31 31 34 22 6 10 0 0 0 0 0 0 0 0 0 0 8 38 51 2 0 0 5 1 3 0 0 0 16 2 0 0 0 0 0 0
0 2 5 6 6 12 13 8 14 26 30 28 32 21 12 6 0 0 0 0 0 0 0 1 4 17 50 58 5 36 30 0 1 4 2 4 0 0 9 24 0 0 0 0 0 0 0
0 0 3 6 4 7 7 8 12 8 23 26 17 12 10 12 0 0 0 0 0 0 0 0 18 7 3 13 0 17 4 0 0 6 4 2 1 18 4 8 6 0 0 0 0 0 0
0 0 1 3 4 12 11 14 15 20 24 12 7 9 5 6 5 0 0 0 0 0 0 6 8 6 9 9 8 26 37 7 5 12 8 4 0 0 0 0 0 0 0 0 0 0 0
0 0 1 1 3 8 4 11 9 14 17 10 7 5 1 0 0 0 0 0 0 0 0 1 6 1 2 10 24 14 11 13 4 0 0 1 3 0 0 1 0 0 0 0 0 0 0
0 0 0 0 5 5 7 6 9 10 11 15 3 0 2 0 0 0 0 0 0 0 0 15 18 13 18 9 11 11 11 9 1 0 0 1 12 0 0 0 0 0 0 0 0 0 0
0 0 0 2 5 4 6 8 13 11 11 9 0 0 0 0 0 0 0 0 0 0 2 5 4 9 14 6 0 3 7 4 0 0 0 0 3 0 0 0 0 0 0 0 0 0 0
0 0 0 2 1 2 5 10 13 10 6 0 0 0 0 0 0 0 1 0 0 0 0 3 1 2 35 0 2 1 1 0 0 0 0 0 1 0 0 0 0 0 0 0 0 0 0
0 0 0 0 0 1 4 8 8 5 1 0 0 0 0 0 0 5 0 0 0 0 0 0 0 0 2 7 2 1 0 0 0 0 0 0 0 4 0 0 2 0 0 0 0 0 0
0 0 0 0 0 1 2 5 6 2 0 0 0 0 0 0 2 4 0 0 0 0 0 0 0 0 0 0 0 1 0 0 0 0 0 0 0 0 0 0 0 0 0 0 0 0 0
0 0 0 0 0 0 0 2 3 0 0 0 0 0 0 0 3 0 0 0 0 0 0 0 0 0 0 0 0 0 0 0 0 0 0 0 0 1 1 0 0 9 0 0 0 0 0
0 0 0 0 0 0 0 1 1 0 0 0 0 0 0 1 0 0 0 0 0 0 0 0 0 0 0 0 0 0 0 0 0 0 0 0 0 0 0 0 0 1 1 0 0 0 0
0 0 0 0 0 0 0 0 0 0 0 0 0 0 0 0 0 0 0 0 0 0 0 0 0 0 0 0 0 0 0 0 0 0 0 0 0 0 0 0 0 0 0 1 2 0 0
0 0 0 0 0 0 0 0 0 0 0 0 0 0 0 0 0 0 0 0 0 0 0 0 0 0 0 0 0 0 0 0 0 0 0 0 0 0 0 0 0 0 0 0 0 0 9
0 1 0 0 0 0 1 0 1 0 0 0 0 0 0 0 0 0 0 0 0 0 0 0 0 0 0 0 0 0 0 0 0 0 0 0 0 0 0 0 0 0 0 0 0 0 0
0 2 1 0 0 0 0 1 3 0 0 0 0 0 0 0 0 0 0 0 0 0 0 0 0 0 0 0 0 0 0 0 0 0 0 0 0 0 0 0 0 0 0 0 0 0 0
1 2 3 0 0 0 0 0 1 0 0 0 0 0 0 0 0 0 0 0 0 0 0 0 0 0 0 0 0 0 0 0 0 0 0 0 0 0 0 0 0 0 0 0 0 0 0
1 4 1 0 0 0 0 0 0 0 0 0 0 0 0 0 0 0 0 0 0 0 0 0 0 0 0 0 1 0 0 0 0 0 0 0 0 0 0 0 0 0 0 0 0 0 0
3 4 0 0 0 0 0 0 0 0 0 0 0 0 0 0 0 0 0 0 0 0 0 0 0 0 0 4 18 0 0 0 0 0 0 0 1 0 0 3 0 0 0 0 0 0 0
5 1 0 0 0 0 0 0 0 0 0 0 0 0 0 0 0 0 0 0 0 0 0 0 0 0 1 0 0 0 0 0 0 0 0 0 0 0 0 1 0 0 0 0 0 0 0
3 0 0 0 1 2 6 0 0 0 0 0 0 0 0 0 0 0 0 0 0 0 0 0 0 2 1 2 0 0 0 0 0 0 0 0 0 0 0 0 0 0 0 0 0 0 0

GFSGBSN_con_sbcape_057.txt.gz
CAPE
3 4 4 8 10 12 20 13 10 12 30 25 15 25 28 45 8 14 9 27 27 38 20 45 55 28 13 0 0 0 9 0 0 63 75 62 28 3 2 8 43 5 11 1 26 21 0
2 3 2 4 6 11 17 23 18 20 24 31 22 17 13 29 41 9 19 14 24 7 18 44 50 82 3 0 0 0 0 0 2 57 56 91 42 0 3 45 18 0 24 3 50 59 46
1 4 1 4 5 7 14 16 16 30 35 42 36 25 18 11 28 30 13 25 18 4 1 25 4 1 0 0 0 0 0 0 1 13 24 18 70 10 10 17 1 1 50 38 34 64 79
2 2 2 4 5 8 13 19 24 30 40 45 39 30 19 22 10 23 31 22 43 29 0 0 2 0 0 0 11 3 0 0 0 0 22 30 19 9 16 6 12 33 4 40 36 68 41
2 3 4 5 1 5 9 17 32 28 43 49 40 33 28 25 17 14 24 19 40 7 36 2 0 0 0 21 12 0 0 6 21 13 49 52 84 33 2 49 13 9 0 0 0 43 38
1 2 3 4 4 3 11 28 27 28 36 55 37 31 36 25 22 15 15 0 0 1 0 0 0 0 0 0 0 2 40 75 63 76 89 50 59 48 0 24 2 0 0 0 0 25 31
1 2 4 3 6 3 9 16 18 28 37 46 34 29 34 22 15 16 0 0 0 0 0 0 0 0 0 0 0 27 74 111 122 96 34 28 3 8 8 0 0 0 0 0 0 0 76
2 1 2 2 4 3 9 8 18 32 41 42 36 34 31 18 9 20 0 0 0 0 0 0 0 0 0 0 7 46 61 6 82 47 0 2 8 0 0 0 0 0 0 0 0 0 15
3 1 1 2 3 2 7 16 24 27 28 35 32 29 24 13 8 0 0 0 0 0 0 0 0 0 0 6 14 20 9 6 27 11 2 8 3 0 1 0 0 0 0 0 0 0 0
2 0 1 3 3 3 4 13 16 24 22 29 23 23 20 5 0 0 0 0 0 0 0 0 10 16 19 32 12 25 38 0 1 6 9 8 0 0 0 0 0 0 0 0 0 0 0
3 0 0 1 2 2 8 17 9 14 20 23 16 22 18 3 0 0 0 0 0 0 0 0 17 18 13 26 0 23 0 0 0 2 0 3 0 0 9 7 0 0 0 0 0 0 0
1 0 0 0 1 2 6 7 14 9 14 7 15 11 9 0 3 0 0 0 0 0 0 3 13 6 9 1 31 36 59 0 0 4 0 2 0 4 0 0 0 0 0 0 0 0 0
0 0 0 0 0 4 5 8 5 7 16 7 10 3 2 0 0 0 0 0 0 0 0 1 4 6 8 15 47 25 6 0 0 1 4 26 10 0 0 0 0 0 0 3 12 3 0
0 0 0 0 1 2 4 5 8 6 14 4 0 1 0 0 0 0 0 0 0 0 8 20 32 4 8 5 10 14 2 1 0 1 2 4 2 0 0 0 0 0 0 0 0 0 0
0 0 0 0 0 0 3 7 6 6 9 2 0 0 0 0 0 0 0 0 0 0 6 0 1 0 9 5 7 15 12 16 4 1 4 1 6 1 0 0 0 0 0 0 0 0 0
0 0 0 0 0 0 2 5 6 3 5 0 0 0 0 0 0 0 0 0 0 0 0 2 1 4 4 0 4 7 7 0 2 6 0 0 3 0 0 0 0 0 0 0 0 0 0
0 0 0 0 0 0 1 3 2 1 1 0 0 0 0 0 0 2 0 0 0 0 0 0 0 0 6 9 0 0 0 0 0 0 0 0 0 1 0 4 0 0 0 0 0 0 0
0 0 0 0 0 0 0 1 2 0 0 0 0 0 0 0 1 5 0 0 0 0 0 0 0 0 0 0 5 0 0 0 0 0 0 0 0 1 2 0 0 0 0 0 0 0 0
0 0 0 0 0 0 0 0 1 0 0 0 0 0 0 0 3 0 0 0 0 0 0 0 0 0 0 0 0 0 0 0 0 0 0 0 0 1 0 0 0 1 0 0 0 0 0
0 0 0 0 0 0 0 0 0 0 0 0 0 0 0 5 0 0 0 0 0 0 0 0 0 0 0 0 0 0 0 0 0 0 0 0 0 0 0 0 0 0 1 2 0 2 0
0 0 0 0 0 0 0 0 0 0 0 0 0 0 0 0 0 0 0 0 0 0 0 0 0 0 0 0 0 0 0 0 0 0 0 0 0 0 0 0 0 0 0 0 0 0 0
0 1 0 0 0 0 0 0 0 0 0 0 0 0 0 0 0 0 0 0 0 0 0 0 0 0 0 0 0 0 0 0 0 0 0 0 0 0 0 0 0 0 0 0 0 0 1
1 1 0 0 0 0 0 0 0 0 0 0 0 0 0 0 0 0 0 0 5 0 0 0 0 0 0 0 0 0 0 0 0 0 0 0 0 0 0 0 0 0 0 0 0 0 0
1 1 0 0 0 0 0 0 0 0 0 0 0 0 0 0 0 0 0 0 0 0 0 0 0 0 0 0 0 0 0 0 0 0 0 0 0 0 0 0 0 0 0 0 0 0 0
1 1 1 0 0 0 0 0 0 0 0 0 0 0 0 0 0 0 0 0 0 0 0 0 0 0 0 0 0 0 0 0 0 0 0 0 0 0 0 0 0 0 0 0 0 0 0
2 5 1 1 0 0 0 0 0 0 0 0 0 0 0 0 0 0 0 0 0 0 0 0 0 0 0 0 0 0 0 0 0 0 0 0 0 0 0 0 0 0 0 0 0 0 0
4 8 1 1 0 0 0 0 0 0 0 0 0 0 0 0 0 0 0 0 0 0 0 0 0 0 0 0 16 0 0 0 0 0 0 0 2 0 0 0 0 0 0 0 0 0 0
6 8 1 0 0 0 0 0 0 0 0 0 0 0 0 0 0 0 0 0 0 0 0 0 0 0 1 1 0 0 0 0 0 0 0 0 0 0 0 0 0 0 0 1 0 0 0
11 5 2 1 0 0 1 0 0 0 0 0 0 0 0 0 0 0 0 0 0 0 0 0 0 2 1 4 0 0 0 0 0 0 0 0 0 0 0 0 0 0 0 0 0 0 0

GFSGBSN_con_sbcape_060.txt.gz
CAPE
6 4 8 6 3 7 12 15 17 22 28 31 31 29 20 17 39 8 7 6 13 2 3 1 0 0 14 22 0 0 0 0 13 26 0 48 122 113 9 29 202 115 180 143 120 26 36
8 4 6 6 3 5 6 10 19 28 29 42 36 34 28 21 15 32 5 15 8 2 1 2 5 0 0 0 0 0 0 0 20 69 12 34 87 64 17 18 155 70 93 163 152 82 53
2 3 4 2 3 5 9 12 20 23 31 45 41 38 32 21 22 5 21 12 11 10 1 2 8 6 2 0 0 0 0 0 15 78 2 26 76 54 27 49 35 42 127 136 78 78 0
3 4 1 4 3 2 6 11 20 37 29 48 47 38 43 36 13 6 11 27 3 11 6 2 17 17 1 0 1 13 4 0 0 47 5 60 4 83 63 57 90 37 112 90 57 101 40
5 5 1 1 2 4 5 13 25 33 26 38 49 43 34 35 19 7 8 16 12 1 5 35 19 12 0 40 2 5 8 5 15 6 32 69 8 93 84 87 106 91 14 26 75 129 150
6 6 4 2 0 3 3 9 16 29 31 42 49 39 35 28 19 11 8 4 0 0 0 0 1 10 0 0 0 7 11 93 60 69 39 16 9 72 78 80 21 10 19 21 34 100 100
8 4 6 2 0 3 3 9 12 24 27 33 38 38 32 26 23 13 13 0 0 0 0 0 0 0 0 0 50 49 53 41 45 38 42 33 5 23 4 0 1 5 29 39 50 110 166
10 6 3 1 1 1 0 5 12 21 29 29 29 34 30 23 16 16 4 0 0 0 0 0 0 0 0 0 13 2 113 51 48 39 14 22 21 0 31 14 2 10 6 16 4 147 162
8 8 3 2 1 0 0 1 14 21 24 33 29 26 24 18 13 9 1 0 0 0 0 0 0 0 3 19 38 2 70 28 23 20 15 1 7 3 36 7 25 20 0 2 0 168 37
8 8 3 1 0 0 0 2 12 18 17 25 25 24 23 21 1 0 0 0 0 0 3 5 15 23 19 90 29 54 32 0 8 15 12 11 5 4 55 18 19 37 7 4 24 13 1
9 4 2 0 0 0 0 3 9 8 14 13 23 22 18 14 4 0 0 0 0 0 18 0 12 29 38 23 20 8 35 9 9 9 4 9 17 11 77 16 12 3 0 0 1 0 0
11 4 1 0 0 0 0 3 8 2 8 12 15 16 7 2 7 0 0 0 0 4 3 7 7 8 2 1 40 20 42 26 2 2 10 28 10 2 16 14 0 0 0 0 0 3 0
7 2 0 0 0 0 0 2 4 3 7 12 9 5 0 0 0 0 0 0 4 5 0 3 13 12 6 8 25 52 22 4 7 28 11 30 27 7 1 23 0 6 13 25 18 17 1
6 1 0 0 0 0 0 1 1 4 3 7 2 1 0 0 0 0 0 0 5 0 16 12 10 21 12 11 5 12 1 8 7 11 3 14 33 17 13 33 2 21 9 3 0 0 0
4 1 0 0 0 0 0 0 1 6 5 0 0 0 0 0 0 0 13 8 8 0 16 0 8 3 38 26 9 17 14 28 8 0 42 24 4 0 0 0 2 2 16 0 0 0 0
4 1 0 0 0 0 0 0 1 3 2 0 0 0 0 0 0 1 14 1 1 0 0 7 6 9 5 16 11 7 8 2 3 5 0 0 9 15 0 1 1 9 0 1 1 0 0
4 3 0 0 0 0 0 0 0 2 0 0 0 2 0 0 0 9 15 3 0 0 0 0 1 14 3 13 10 8 10 0 6 0 0 0 1 7 15 32 14 0 3 0 3 0 1
7 4 0 0 0 0 0 0 0 0 0 0 0 7 0 0 18 19 7 0 0 0 0 0 0 0 0 0 2 1 8 7 10 0 0 0 5 19 20 2 2 0 10 15 17 4 0
8 3 0 0 0 0 0 0 0 0 0 0 1 4 0 1 24 8 0 0 0 0 0 0 0 0 0 0 2 3 0 0 0 0 0 0 0 7 7 0 0 13 0 0 0 0 8
8 2 0 0 0 0 0 0 0 0 0 0 0 3 1 21 3 0 2 2 2 0 0 0 0 0 0 0 0 0 0 0 0 0 0 0 0 0 0 0 0 0 2 1 1 19 4
9 3 0 0 0 0 0 0 0 0 0 0 0 0 0 3 0 0 0 0 1 2 0 0 0 0 0 0 0 0 0 0 0 0 0 0 0 0 0 0 0 0 0 0 1 0 13
8 3 0 0 0 0 0 0 0 0 0 0 0 0 0 0 0 0 0 0 0 0 0 0 0 0 0 0 0 0 0 0 0 0 0 0 1 0 0 0 0 0 0 0 0 0 8
12 5 0 0 0 0 0 0 0 0 0 0 0 0 0 0 0 0 0 0 1 0 0 0 0 0 0 0 0 0 0 0 0 0 0 0 0 0 0 0 0 0 0 0 0 0 0
14 9 1 1 0 0 0 0 0 0 0 0 0 0 0 0 0 0 0 0 3 1 0 0 0 0 0 0 0 0 0 0 0 0 0 0 0 0 0 0 0 0 0 0 0 0 0
11 10 2 1 1 0 0 0 0 0 0 0 0 0 0 0 0 0 0 0 0 0 0 0 0 0 0 0 1 5 3 0 0 0 0 0 0 0 0 0 0 0 0 0 0 0 0
15 10 4 2 1 0 0 0 0 0 0 0 0 0 0 0 0 0 0 0 0 0 0 0 0 0 0 4 13 3 7 0 0 0 0 0 0 0 0 0 0 0 0 0 0 12 0
21 15 6 3 1 0 0 0 0 0 0 0 0 0 0 0 0 0 0 0 0 0 0 0 0 0 0 19 37 17 2 0 4 1 2 11 7 17 13 7 0 0 0 0 0 5 0
23 12 11 1 1 1 1 0 0 0 0 0 2 0 0 0 1 0 0 0 0 0 0 0 0 0 2 16 22 9 3 0 0 0 0 2 10 7 7 12 0 0 0 1 0 0 0
16 15 11 5 1 0 2 1 0 0 0 0 0 0 0 0 0 0 0 0 0 0 0 0 0 1 1 7 2 2 1 0 0 4 0 4 0 1 1 6 0 0 0 0 0 0 0

GFSGBSN_con_sbcape_063.txt.gz
CAPE
6 2 1 1 3 7 5 4 10 16 23 39 52 51 35 28 21 20 47 13 29 18 5 6 6 0 0 15 14 3 0 0 4 200 2 2 93 138 129 43 185 165 165 201 120 41 26
1 0 1 0 1 3 4 10 9 14 28 33 47 49 32 35 30 22 19 44 26 36 9 2 4 0 1 0 0 0 0 0 1 72 9 54 56 102 76 28 115 132 38 185 176 86 53
6 8 6 1 1 2 4 5 6 13 33 41 49 45 36 33 35 20 14 19 54 29 23 4 1 4 4 0 0 0 0 0 0 51 63 29 53 103 65 37 19 125 10 30 185 98 155
10 11 9 3 2 1 6 5 9 14 19 34 45 43 34 29 39 26 11 8 29 33 36 16 1 10 6 0 0 0 14 20 0 39 2 35 14 7 21 43 83 108 36 10 98 136 54
17 8 11 2 3 1 5 8 8 15 15 33 42 37 40 33 39 30 12 12 31 31 29 36 18 16 9 2 12 0 24 23 10 39 18 62 1 15 108 71 82 81 53 44 48 66 65
96 24 9 7 3 2 3 9 9 14 14 27 31 29 31 33 31 28 15 11 2 0 4 3 3 4 13 3 1 8 48 75 70 75 68 58 5 14 131 123 55 33 18 52 50 90 51
81 66 10 6 6 5 2 5 10 13 11 22 30 27 31 29 26 21 12 18 15 7 2 3 0 0 1 16 37 87 89 91 83 64 15 10 2 58 23 7 1 0 0 13 12 35 13
60 51 7 6 5 3 1 2 6 8 13 22 28 27 32 22 26 18 17 10 0 0 8 0 0 0 0 4 29 49 151 67 35 38 34 14 6 6 19 40 1 25 45 73 42 75 44
53 99 6 8 7 1 0 1 3 6 12 17 19 28 21 22 25 5 6 0 0 0 10 4 3 9 17 39 43 29 14 46 22 11 20 9 6 2 4 20 2 22 43 75 27 12 94
48 49 8 7 3 0 0 1 2 4 5 12 17 17 21 23 0 4 5 0 0 0 16 14 13 29 46 108 62 85 26 22 12 34 34 29 15 0 3 17 7 1 0 0 8 54 2
3 21 9 4 2 0 0 0 1 5 1 10 8 16 25 19 2 5 1 0 0 2 27 2 6 13 44 11 8 6 1 69 28 13 0 13 6 2 47 39 42 22 13 26 99 97 22
0 15 7 5 1 0 0 0 0 1 1 10 7 18 14 2 5 2 0 0 6 2 1 14 11 1 12 15 28 15 24 35 19 0 0 10 14 4 56 27 13 5 81 64 67 23 8
16 3 9 3 1 0 0 0 0 2 1 6 5 2 2 2 10 0 0 2 25 14 0 4 30 2 8 20 43 41 33 24 4 3 4 15 8 10 32 32 20 8 31 21 20 25 8
63 2 7 2 1 0 0 0 0 1 0 3 0 0 0 4 3 0 16 12 12 6 8 4 21 5 22 24 18 4 9 6 11 3 21 58 28 7 7 24 8 28 14 23 3 2 2
38 1 8 3 1 0 0 0 0 0 0 0 0 7 5 6 1 3 15 33 13 7 25 4 17 32 2 7 16 4 2 9 8 45 13 54 4 3 11 1 26 38 32 0 0 0 1
14 3 7 3 3 0 0 0 0 0 0 0 5 10 4 2 2 17 39 3 13 0 0 20 7 7 171 17 15 41 14 15 19 9 4 8 16 8 0 8 10 26 12 3 2 4 0
3 3 7 8 6 0 0 0 0 0 0 0 15 14 6 0 10 23 38 8 3 3 1 0 5 2 4 10 23 28 14 2 7 4 0 31 15 11 45 42 17 2 13 20 23 10 18
2 5 12 12 9 0 0 0 0 0 0 0 13 9 6 1 23 19 24 3 0 8 0 0 7 13 3 6 2 6 18 11 2 0 2 0 7 17 31 2 4 31 22 24 21 8 0
0 10 13 13 10 0 0 0 0 0 0 1 12 1 8 12 29 36 2 0 3 8 0 0 1 0 0 7 9 3 12 0 8 0 0 0 19 19 21 5 0 9 7 7 23 9 18
2 15 16 14 9 0 0 0 0 0 0 0 6 1 14 20 4 10 20 11 10 0 0 0 0 0 0 3 0 9 8 6 3 5 0 0 9 7 8 9 0 2 3 11 33 45 0
4 16 18 13 10 0 0 0 0 0 0 0 0 2 1 4 2 1 14 15 15 7 0 0 0 0 0 10 7 6 5 4 6 0 0 8 9 0 0 0 0 0 0 2 9 0 28
5 20 20 17 14 0 0 0 0 0 0 0 0 0 0 1 0 7 9 20 17 0 9 0 0 0 0 0 0 4 3 10 8 2 4 0 0 0 0 0 0 0 0 0 2 4 16
10 26 19 13 10 0 0 0 0 0 0 0 0 0 0 0 0 7 7 15 2 0 1 1 0 5 1 0 0 0 0 0 4 12 15 12 0 0 7 0 0 0 0 0 0 0 1
21 27 20 17 3 1 0 0 0 0 0 0 0 0 0 0 0 6 0 0 1 0 2 1 0 13 0 0 0 0 0 0 0 0 0 3 2 0 1 0 0 0 0 0 0 0 0
25 23 18 19 6 0 0 0 0 0 0 0 0 0 0 0 0 0 0 0 2 0 1 3 0 0 0 0 9 4 9 2 0 0 0 0 10 7 10 4 0 0 0 0 0 0 0
28 22 16 13 8 0 0 0 0 0 0 0 0 0 0 0 0 0 0 0 0 5 1 0 0 0 0 15 15 7 6 6 3 0 0 0 0 4 0 1 0 5 0 0 0 14 0
36 27 18 12 2 0 0 0 0 0 0 0 0 0 0 0 0 0 0 0 0 0 5 0 0 0 0 31 20 10 8 0 5 7 7 16 15 16 14 8 3 0 0 0 0 0 0
46 30 29 12 2 1 0 0 0 0 0 0 0 0 0 0 1 0 0 0 0 0 0 0 0 0 2 38 19 16 18 4 3 2 13 10 10 8 6 13 3 0 0 0 0 0 0
42 34 29 4 9 1 0 0 0 0 0 0 0 0 0 0 3 0 0 0 0 0 0 0 0 0 1 5 5 1 2 1 1 4 0 4 0 3 2 5 0 0 0 0 0 0 0

GFSGBSN_con_sbcape_066.txt.gz
CAPE
7 11 11 5 1 0 0 2 5 9 11 29 25 24 47 47 45 44 30 22 50 31 24 3 5 1 0 2 6 0 0 0 0 160 129 18 0 92 69 14 68 60 105 113 126 67 60
7 11 15 11 4 1 1 0 4 8 10 36 38 25 37 41 37 52 38 18 19 60 27 25 4 3 7 0 0 0 0 0 0 73 18 8 0 0 14 36 61 43 108 153 86 19 28
86 20 14 13 5 3 2 1 3 10 14 27 30 27 30 41 43 38 46 14 11 22 37 43 12 1 15 0 0 0 0 0 0 28 45 11 0 13 35 35 11 140 126 50 26 55 82
100 102 41 15 11 5 5 3 5 8 17 23 33 32 32 36 43 45 42 14 12 8 50 42 35 2 13 0 0 0 2 4 3 5 55 41 6 29 64 37 20 59 106 79 7 10 44
106 84 118 40 16 9 6 5 5 12 12 19 28 30 21 35 36 33 30 14 9 15 16 30 26 29 3 5 13 1 0 16 13 42 51 59 50 10 0 32 38 59 83 57 0 0 52
132 121 97 62 24 8 6 7 4 9 7 16 21 21 21 26 34 29 20 3 1 0 0 10 11 2 1 4 10 11 22 65 42 71 40 16 9 1 5 52 4 5 39 14 0 0 24
101 132 122 45 10 7 5 6 4 4 5 14 15 21 29 28 28 29 9 2 1 0 6 0 2 3 0 0 22 81 96 78 87 56 10 8 6 1 0 0 0 0 0 2 0 4 20
142 105 123 88 4 7 6 3 3 2 3 9 12 16 21 21 24 24 10 5 0 0 0 0 0 0 0 0 13 56 158 41 47 14 12 13 3 0 3 1 14 0 0 2 11 53 46
147 174 115 72 3 8 8 3 2 0 2 5 7 15 10 19 22 2 1 4 0 0 10 5 1 0 14 3 35 106 52 48 22 4 4 17 4 1 11 34 9 4 0 22 13 48 54
18 172 137 100 9 12 5 1 0 0 2 1 4 10 16 25 0 2 1 2 0 0 11 14 11 14 14 36 24 7 2 9 4 5 18 8 3 6 1 0 0 23 46 72 38 28 0
19 10 132 62 7 8 6 1 0 0 0 0 3 7 15 31 0 2 1 0 0 2 10 8 1 0 19 11 0 8 1 32 8 5 14 15 11 0 23 4 3 0 0 7 1 24 32
39 33 52 56 4 10 5 2 0 0 0 0 0 11 15 0 0 2 2 0 1 5 0 6 0 0 12 22 36 6 52 31 23 11 15 32 1 0 1 18 24 37 12 15 16 27 6
39 62 24 70 4 11 4 1 0 0 0 0 0 0 0 2 8 0 0 0 12 4 0 4 1 0 6 22 34 15 15 23 19 13 1 10 3 0 1 10 21 41 11 0 0 0 0
81 53 34 43 5 11 5 2 0 0 0 0 0 0 0 4 1 1 9 8 1 2 11 11 4 5 24 43 2 3 8 0 1 0 6 19 0 0 26 18 0 23 6 2 0 0 0
101 37 43 20 6 12 7 4 0 0 0 0 0 1 6 1 0 14 9 12 2 8 9 2 13 3 0 0 8 0 8 0 0 8 17 5 4 7 18 0 16 6 15 0 0 0 0
61 33 48 17 6 13 10 4 0 0 0 0 0 6 6 6 0 25 17 3 8 0 0 14 10 12 26 1 9 6 0 1 0 0 5 1 0 1 0 0 0 13 0 0 0 0 0
70 60 59 62 8 15 14 8 0 1 0 0 1 15 3 0 1 24 15 13 5 6 0 1 0 0 4 1 5 6 3 1 0 0 0 0 0 0 6 8 2 0 0 6 4 0 9
42 23 53 47 9 14 15 17 1 1 0 0 11 12 5 10 6 10 18 0 2 6 0 0 7 0 5 17 2 27 8 4 5 0 1 0 0 15 16 0 0 3 1 0 2 0 0
29 30 32 28 13 16 14 17 3 1 0 0 6 3 2 7 3 11 1 3 5 7 0 0 1 0 0 5 0 17 4 3 1 1 0 0 2 2 2 0 0 7 6 1 0 0 4
34 61 42 10 13 17 13 17 5 0 0 0 0 1 20 9 0 0 5 5 4 0 0 0 0 0 0 4 2 9 1 4 0 0 0 0 2 2 0 0 0 0 1 5 13 1 0
57 77 26 16 19 16 12 17 6 0 0 0 0 0 0 4 0 0 7 12 4 0 0 0 0 0 0 6 5 0 3 8 1 0 0 0 0 0 0 0 0 0 0 1 2 0 1
68 64 10 19 16 13 11 14 5 0 0 0 0 0 0 0 0 0 0 1 4 0 1 0 0 0 0 0 0 2 0 0 0 0 6 0 0 0 0 0 0 0 0 0 0 2 4
61 45 36 20 16 13 15 14 2 0 0 0 0 0 0 0 0 0 0 6 11 2 0 0 1 1 0 0 0 0 0 0 1 0 1 0 0 0 0 0 0 0 0 0 0 0 0
53 37 39 17 14 11 12 6 0 3 0 0 0 0 0 0 0 0 0 0 0 0 1 0 0 2 0 0 0 0 0 0 0 0 4 6 0 0 0 0 0 0 0 0 0 0 0
45 16 19 30 15 14 13 1 0 1 0 0 0 0 0 0 0 0 0 0 0 0 0 1 0 0 0 0 0 0 0 1 0 0 0 0 2 0 0 0 0 0 0 0 0 0 0
27 24 47 22 13 12 12 0 0 0 0 0 0 0 0 0 0 0 0 0 0 1 0 0 0 0 0 0 0 3 3 1 0 0 0 0 0 0 0 0 0 0 0 0 0 1 0
47 26 29 21 19 21 13 0 0 1 0 0 0 0 0 0 0 0 0 0 0 0 0 0 0 0 0 6 5 3 1 0 1 0 0 0 0 0 0 1 0 0 0 0 0 0 0
40 26 18 23 30 22 3 0 0 0 0 0 0 0 0 0 0 0 0 0 0 0 0 0 0 0 0 20 14 2 0 0 0 0 1 0 0 0 0 3 0 0 0 0 0 0 0
23 17 35 32 40 20 6 0 0 0 0 0 0 0 0 0 0 0 0 0 0 0 0 0 0 0 0 0 0 0 0 0 0 0 0 0 0 0 0 0 0 0 0 0 0 0 0

GFSGBSN_con_sbcape_069.txt.gz
CAPE
88 56 54 13 9 5 2 4 2 0 4 8 23 38 32 41 44 36 46 38 10 11 49 37 10 0 0 0 0 8 0 0 0 170 110 128 50 26 54 74 48 58 42 39 66 195 67
136 118 92 78 15 11 4 5 3 1 5 3 21 29 29 39 39 42 34 39 19 1 18 42 34 0 0 1 0 3 0 0 0 72 30 58 2 13 35 67 76 3 6 72 114 114 58
137 155 137 108 88 29 8 6 3 3 4 7 20 34 30 38 44 41 41 38 22 10 11 51 35 17 2 0 0 0 0 0 0 16 39 42 5 15 1 22 0 3 49 76 134 57 16
138 194 179 148 110 90 15 7 3 3 7 6 17 33 27 25 30 36 39 28 18 7 3 45 39 13 1 0 0 0 0 0 25 20 64 49 11 8 14 0 3 0 56 119 24 117 8
36 165 180 155 127 125 68 8 3 3 6 8 14 27 19 19 22 30 27 17 5 3 13 24 7 11 0 3 5 0 3 4 29 62 47 47 38 32 37 6 14 17 20 32 1 23 1
43 49 153 160 120 140 127 10 5 5 6 6 9 15 17 21 25 27 13 0 0 1 0 0 1 13 0 4 9 9 18 49 47 44 14 10 4 12 14 24 24 6 14 38 5 0 9
10 35 43 105 148 148 156 12 9 2 2 2 8 12 10 15 16 6 2 0 0 0 0 0 0 0 0 0 10 55 85 87 38 37 8 7 9 17 3 0 0 0 0 13 0 0 0
34 11 46 33 57 134 100 14 11 2 2 1 8 9 6 2 6 22 1 0 0 0 0 0 0 0 1 2 4 72 108 57 15 21 23 10 10 4 1 5 0 19 23 23 2 2 0
63 37 28 37 36 31 67 8 10 6 3 2 3 4 2 4 17 3 0 0 0 0 0 0 0 3 12 1 20 43 58 34 5 11 11 13 3 11 3 4 4 6 7 15 3 0 2
36 79 52 33 3 21 52 7 8 8 0 5 0 0 0 6 0 0 0 0 0 0 0 0 13 7 11 1 16 1 25 11 9 10 4 10 7 19 1 3 4 0 1 50 24 18 6
66 69 60 41 45 13 26 6 10 9 0 2 0 0 1 7 0 1 1 0 0 0 0 7 0 0 27 10 1 3 14 1 1 6 16 11 5 23 3 13 0 0 1 34 46 4 3
70 83 73 35 66 23 39 8 10 9 2 0 0 0 5 0 0 0 0 0 0 0 0 6 0 0 5 21 1 0 23 4 5 14 0 6 7 1 5 0 0 2 15 14 13 12 5
91 83 76 11 90 41 29 7 8 10 0 0 0 0 0 0 3 0 0 0 0 0 0 13 0 0 9 23 22 8 16 5 0 0 2 5 1 0 0 0 0 0 0 0 0 1 0
202 112 43 10 85 22 30 14 8 11 0 0 0 0 0 2 0 0 0 0 0 0 13 10 1 4 19 14 9 1 4 0 0 0 1 0 0 0 0 0 0 0 0 0 0 0 0
91 40 48 138 80 22 37 12 11 7 0 0 0 0 0 0 0 0 0 0 0 4 9 8 12 1 0 0 8 1 0 0 0 0 1 4 2 0 0 0 0 14 0 0 0 0 0
75 91 83 90 50 16 48 17 17 11 0 0 0 0 1 0 0 3 1 0 0 2 0 19 13 11 7 1 0 0 2 0 0 0 0 0 0 1 0 0 0 0 0 0 0 0 0
77 171 116 67 50 21 30 20 14 10 0 0 0 2 0 0 0 11 1 0 1 7 0 3 0 1 0 1 0 0 0 0 0 0 0 0 0 0 0 0 0 0 0 0 0 0 0
125 75 98 39 55 39 19 42 13 9 0 0 0 2 1 0 0 2 12 1 1 5 0 1 12 2 0 0 2 0 0 0 0 0 0 0 0 0 0 0 0 0 0 0 0 0 0
74 61 77 30 54 37 46 37 11 22 2 0 0 1 8 2 0 2 9 0 1 5 0 0 6 0 16 4 11 10 0 5 0 0 0 0 0 0 0 0 0 0 0 0 0 0 0
119 74 58 80 39 7 18 32 20 23 0 0 0 1 15 10 0 0 0 0 0 0 0 0 0 0 0 0 4 0 2 5 0 0 0 0 0 0 0 0 0 0 0 0 0 0 0
129 88 36 59 32 20 22 30 19 18 0 0 0 0 0 3 0 0 0 0 4 0 0 0 0 0 0 2 3 3 0 7 1 0 0 0 0 0 0 0 0 0 0 0 0 0 0
116 82 49 40 54 41 28 25 26 7 4 0 0 0 0 0 0 0 0 0 9 0 0 0 0 0 0 0 0 0 0 2 0 0 0 0 0 0 0 0 0 0 0 0 0 0 0
105 90 54 45 40 75 22 24 34 24 0 0 0 0 0 0 0 0 0 0 16 0 0 0 0 0 0 0 0 0 0 0 0 0 0 0 0 0 0 0 0 0 0 0 0 0 0
98 72 37 53 26 51 23 19 30 28 0 0 0 0 0 0 0 0 0 0 0 0 0 0 0 0 0 0 0 0 0 0 0 0 0 0 0 0 0 0 0 0 0 0 0 0 0
81 44 56 27 29 41 24 24 25 8 0 0 0 0 0 0 0 0 0 0 0 0 0 0 0 0 0 0 0 0 0 0 0 0 0 0 0 0 0 0 0 0 0 0 0 0 0
75 54 48 9 50 19 29 27 17 1 0 0 0 0 0 0 0 0 0 0 0 0 0 0 0 0 0 0 0 0 0 0 0 0 0 0 0 0 0 0 0 0 0 0 0 0 0
74 45 44 50 18 24 27 41 15 2 7 0 0 0 0 0 0 0 0 0 0 0 0 0 0 0 0 0 0 0 0 0 0 0 0 0 0 0 0 0 0 0 0 0 0 0 0
72 21 22 32 54 22 16 31 9 4 2 0 0 0 0 0 0 0 0 0 0 0 0 0 0 0 0 2 0 0 0 0 0 0 0 0 0 0 0 7 5 0 0 0 0 0 0
28 18 18 30 18 15 6 18 2 11 0 0 0 0 0 0 0 0 0 0 0 0 0 0 0 0 0 0 0 0 0 0 0 0 0 0 0 0 0 0 0 0 0 0 0 0 0

GFSGBSN_con_sbcape_072.txt.gz
CAPE
73 106 136 132 145 113 47 10 9 7 9 7 8 11 29 27 25 27 27 28 40 21 1 34 35 7 0 0 0 0 0 0 0 31 28 10 26 24 23 23 35 18 5 89 116 244 213
25 49 84 135 172 167 136 71 9 8 6 8 8 12 26 27 24 31 33 36 30 27 1 23 42 9 0 0 0 4 0 0 0 41 65 33 44 16 35 19 18 0 0 41 134 152 155
17 20 27 52 105 137 153 149 49 8 6 9 4 11 17 18 16 18 32 38 39 15 5 12 48 13 3 0 0 0 0 0 0 11 56 0 1 37 27 32 16 29 79 78 65 111 124
13 13 11 16 46 37 134 114 103 7 7 12 15 11 11 11 12 13 23 36 26 11 7 1 35 3 0 0 0 0 0 0 17 15 49 1 4 31 9 0 18 41 40 95 43 113 61
10 10 9 4 6 44 15 115 117 7 12 11 11 13 8 9 10 14 21 14 5 9 6 28 0 0 0 0 0 0 0 14 28 45 48 49 51 23 48 10 49 44 33 33 44 157 83
39 13 10 24 13 6 13 21 52 26 14 14 1 5 3 10 13 12 1 1 0 1 1 0 2 13 0 0 0 4 15 37 72 36 31 24 5 12 15 5 5 28 25 29 11 20 1
43 29 12 8 22 30 7 14 13 23 8 12 2 5 0 9 12 2 1 0 0 0 0 0 0 0 0 0 3 5 72 91 75 25 10 12 9 1 4 3 0 0 2 12 4 2 0
44 46 53 42 33 25 28 15 10 33 7 7 9 2 1 1 3 4 0 0 0 0 0 0 0 0 0 0 2 40 120 11 37 7 7 2 11 0 3 1 0 0 6 46 16 34 8
32 45 34 46 60 37 34 26 18 29 7 8 5 0 0 0 6 3 0 0 0 0 0 0 0 0 0 1 9 24 52 36 4 3 12 15 10 1 3 3 14 10 7 12 19 37 43
33 37 48 36 47 63 65 56 21 53 6 6 6 3 1 0 0 0 0 0 0 0 0 0 2 0 0 12 8 0 7 7 22 10 8 13 18 18 10 2 3 1 5 0 2 14 21
44 40 29 62 64 78 55 73 41 45 6 6 7 2 0 1 0 0 0 0 0 0 0 0 0 0 21 13 0 11 15 18 10 5 7 10 16 18 9 6 1 0 3 3 2 3 4
67 56 96 78 90 55 56 14 47 48 6 12 4 2 4 4 0 0 0 0 0 0 0 0 0 0 9 12 1 2 10 9 0 12 6 7 1 19 0 0 0 0 25 14 6 0 0
58 88 108 110 192 84 42 47 87 18 11 8 0 2 0 0 0 0 0 0 0 0 0 0 0 0 4 13 7 0 2 6 2 1 0 4 2 9 4 4 0 0 1 1 0 0 0
96 107 143 135 58 175 104 33 64 44 15 14 0 0 0 0 0 0 0 0 0 0 0 0 0 10 3 0 0 0 0 0 0 0 6 1 0 7 0 0 0 0 0 0 0 0 0
78 172 119 121 145 112 60 60 30 33 18 17 3 0 0 0 0 0 0 0 0 0 1 1 2 1 0 0 0 0 0 0 0 0 0 0 1 0 0 0 0 0 0 0 0 0 0
99 255 154 104 88 77 25 28 36 16 21 22 0 0 0 0 0 0 0 0 0 1 1 1 14 14 0 0 0 0 0 0 0 0 0 0 0 0 0 0 0 0 0 0 0 0 0
278 266 147 122 90 60 44 42 93 31 36 2 0 0 1 0 0 12 0 0 0 7 2 2 0 1 0 0 0 0 0 0 0 0 0 0 0 0 0 0 0 0 0 0 0 0 0
224 184 103 89 91 61 42 40 64 57 43 7 0 1 1 0 2 17 1 8 2 10 0 1 4 0 0 0 0 0 0 0 0 0 0 0 0 0 0 0 0 0 0 0 0 0 0
193 169 94 116 98 52 51 34 73 17 40 0 0 5 7 0 7 4 7 0 9 3 0 2 19 1 1 0 0 0 0 0 0 0 0 0 0 0 0 0 0 0 0 0 0 0 0
167 127 110 110 97 60 44 25 88 55 17 2 0 2 28 25 0 0 10 2 9 0 0 0 0 0 0 8 0 0 0 0 0 0 0 0 0 0 0 0 0 0 0 0 0 0 0
142 93 73 93 101 32 48 14 70 25 23 15 0 0 0 0 3 0 0 0 1 0 0 0 0 0 0 7 4 0 0 8 0 0 0 0 0 0 0 0 0 0 0 0 0 0 0
138 96 77 82 33 53 53 26 13 26 32 0 0 0 0 0 0 0 0 0 0 0 0 0 0 0 0 0 0 0 2 4 0 0 0 0 0 0 0 0 0 0 0 0 0 0 0
119 90 79 81 77 38 5 19 13 8 16 0 0 0 0 0 0 0 0 0 4 0 0 0 0 0 0 0 0 0 0 0 0 0 0 0 0 0 0 0 0 0 0 0 0 0 0
143 97 70 62 30 15 27 28 28 21 0 0 0 0 0 0 0 0 0 0 0 0 0 0 0 0 0 0 0 0 0 0 0 0 0 0 0 0 0 0 0 0 0 0 0 0 0
96 76 61 39 44 17 35 20 20 36 0 0 0 0 0 0 0 0 0 0 0 0 0 0 0 0 0 0 0 0 0 0 0 0 0 0 0 0 0 0 0 0 0 0 0 0 0
82 35 41 39 80 38 26 11 26 50 30 0 0 0 0 0 0 0 0 0 0 0 0 0 0 0 0 0 0 0 0 0 0 0 0 0 0 0 0 0 0 0 0 0 0 0 0
67 37 28 22 53 43 13 17 38 50 14 0 0 0 0 0 0 0 0 0 0 0 0 0 0 0 0 0 0 0 0 0 0 0 0 0 0 0 0 0 0 0 0 0 0 0 0
72 36 15 15 58 47 36 9 13 43 0 0 0 0 0 0 0 0 0 0 0 0 0 0 0 0 0 0 0 0 0 0 0 0 0 0 0 0 0 1 0 0 0 0 0 0 0
60 24 3 7 36 27 19 11 36 45 0 0 0 0 0 0 0 0 0 0 0 0 0 0 0 0 0 0 0 0 0 0 0 0 0 0 0 0 0 0 0 0 0 0 0 0 0

GFSGBSN_con_sbcape_075.txt.gz
CAPE
19 19 16 15 14 29 45 94 129 161 67 10 14 17 15 24 25 20 17 37 33 38 32 1 42 35 0 0 0 0 38 1 2 10 0 0 0 11 1 34 12 53 1 49 145 312 425
8 9 7 15 14 13 34 27 42 109 174 13 16 17 12 12 19 4 10 29 39 42 20 4 39 13 0 0 0 0 8 0 0 21 6 0 3 5 22 0 25 21 1 0 173 130 297
20 12 10 11 12 17 10 13 23 17 110 39 18 13 15 6 17 15 5 20 20 26 18 1 16 8 3 0 0 0 0 0 0 0 12 0 3 2 11 15 0 1 29 1 28 78 129
18 17 11 13 10 9 22 22 11 9 13 128 29 16 12 11 5 0 17 12 16 19 10 3 33 3 0 0 0 0 0 0 0 3 30 3 12 9 18 12 22 39 46 14 4 58 92
35 43 39 12 15 19 12 38 38 16 17 50 10 11 7 7 3 0 20 3 1 4 7 4 7 0 0 0 0 0 0 0 9 35 44 25 14 39 17 6 3 23 58 0 122 125 137
48 51 53 47 32 22 29 25 21 20 8 28 9 9 5 11 2 4 2 0 0 0 2 5 12 5 0 0 0 0 0 15 34 41 46 41 16 7 13 9 11 12 16 10 54 54 56
34 40 57 47 38 45 47 35 25 21 29 21 9 4 6 11 1 6 0 0 0 0 0 0 0 0 0 0 0 0 11 3 0 29 22 28 36 7 0 2 1 0 7 0 5 56 42
33 23 51 57 46 52 45 53 30 28 17 11 9 4 2 10 0 2 0 0 0 0 0 0 0 0 0 0 0 0 5 0 16 0 17 10 13 0 3 11 10 2 12 34 0 4 33
28 30 37 28 71 55 50 47 39 26 34 41 9 9 16 2 0 3 0 0 0 0 0 0 0 0 0 0 10 0 2 0 0 2 2 13 0 0 5 9 9 1 3 12 3 0 11
18 17 20 22 28 32 49 59 44 32 55 43 11 12 11 2 0 0 0 0 0 0 0 0 0 0 0 16 4 0 0 2 27 3 3 29 0 4 10 0 0 1 2 50 38 17 46
34 39 69 65 40 34 33 20 76 63 79 51 12 12 9 0 0 0 0 0 0 0 0 0 0 0 0 4 1 13 13 6 4 15 13 14 27 47 1 0 11 0 4 0 0 1 9
75 82 79 83 87 112 93 111 33 111 61 42 10 23 14 15 0 0 0 0 0 0 0 0 0 0 0 1 0 4 4 15 7 7 8 13 1 13 9 1 0 0 23 0 5 4 0
87 79 78 84 83 212 188 167 143 173 71 40 20 30 21 0 0 0 0 0 0 0 0 0 0 0 0 0 0 0 20 7 22 3 1 24 47 61 0 22 1 0 0 0 2 1 5
90 83 83 78 101 305 262 146 202 125 52 53 24 33 16 0 0 0 0 0 0 0 0 0 0 0 0 0 0 0 0 6 2 7 4 1 3 7 11 0 0 0 0 0 0 0 0
92 96 131 154 253 240 157 117 120 100 51 58 39 11 0 0 0 0 0 0 0 0 0 0 0 0 0 0 0 0 0 0 0 0 0 0 2 0 0 0 0 0 0 0 0 0 0
89 145 237 233 276 196 66 94 104 79 73 5 6 9 6 0 0 0 0 0 0 0 0 0 0 0 0 0 0 0 0 0 0 0 0 0 1 0 0 0 0 0 0 0 0 0 0
152 220 284 257 173 100 69 86 71 74 29 11 11 23 2 0 0 8 1 0 0 1 0 0 0 0 0 0 0 0 0 0 0 0 0 0 0 0 0 0 0 0 0 0 0 0 0
197 319 264 227 124 65 72 67 73 45 62 41 21 6 1 0 12 0 0 0 0 1 0 0 0 0 0 0 0 0 0 0 0 0 0 0 0 0 0 0 0 0 0 0 0 0 0
222 285 259 191 133 70 60 61 28 33 70 16 26 24 13 0 0 0 0 0 1 3 1 2 0 0 0 0 0 0 0 0 0 0 0 0 0 0 0 0 0 0 0 0 0 0 0
257 210 189 142 137 101 79 43 37 32 69 5 13 1 31 46 0 0 0 2 18 1 0 0 0 0 0 0 0 0 0 0 0 0 0 0 0 0 0 0 0 0 0 0 0 0 0
181 153 128 145 103 76 53 63 33 18 77 34 5 2 0 3 5 0 0 6 7 2 0 0 0 0 0 1 0 0 0 0 0 0 0 0 0 0 0 0 0 0 0 0 0 0 0
132 118 131 87 80 49 78 42 13 17 44 2 6 0 0 0 0 0 0 4 0 0 0 0 0 0 0 0 0 0 0 0 0 0 0 0 0 0 0 0 0 0 0 0 0 0 0
154 120 84 75 80 66 40 23 8 24 55 1 0 0 0 0 0 0 0 0 0 0 0 0 0 0 0 0 0 0 0 0 0 0 0 0 0 0 0 0 0 0 0 0 0 0 0
192 99 75 90 58 41 22 0 8 8 0 0 0 0 0 0 0 0 0 0 0 0 0 0 0 0 0 0 0 0 0 0 0 0 0 0 0 0 0 0 0 0 0 0 0 0 0
123 90 119 69 32 40 0 7 30 2 0 0 0 0 0 0 0 0 0 0 0 0 0 0 0 0 0 0 0 0 0 0 0 0 0 0 0 0 0 0 0 0 0 0 0 0 0
90 117 72 18 36 57 29 28 51 0 0 0 0 0 0 0 0 0 0 0 0 0 0 0 0 0 0 0 0 0 0 0 0 0 0 0 0 0 0 0 0 0 0 0 0 0 0
75 77 39 3 52 37 21 14 8 43 0 0 0 0 0 0 0 0 0 0 0 0 0 0 0 0 0 0 0 0 0 0 0 0 0 0 0 0 0 0 0 0 0 0 0 0 0
64 56 18 1 30 39 35 25 36 7 0 0 0 0 0 0 0 0 0 0 0 0 0 0 0 0 0 0 0 0 0 0 0 0 0 0 0 0 0 0 0 0 0 0 0 0 0
48 32 3 3 41 39 13 7 0 6 0 0 0 0 0 0 0 0 0 0 0 0 0 0 0 0 0 0 0 0 0 0 0 0 0 0 0 0 0 0 0 0 0 0 0 0 0

GFSGBSN_con_sbcape_078.txt.gz
CAPE
12 15 11 10 6 9 16 16 16 11 22 85 84 157 23 17 22 6 16 12 26 28 37 15 2 44 0 0 0 0 43 10 4 9 0 0 0 0 3 1 2 16 0 1 0 0 68
29 35 30 23 17 13 9 19 16 18 21 38 56 127 19 15 21 20 11 15 12 21 45 8 0 23 0 0 0 0 0 0 0 2 0 0 0 1 5 0 18 2 0 0 4 13 53
65 58 40 30 39 29 24 10 30 32 23 19 29 37 37 15 11 19 12 3 15 15 34 11 0 26 0 0 0 0 0 0 0 0 6 3 10 16 20 12 0 0 4 24 11 0 106
52 57 75 57 47 49 32 23 49 41 29 12 29 41 7 10 4 14 7 0 13 1 28 12 0 6 0 0 0 0 0 0 0 0 29 11 27 22 21 26 20 42 10 36 10 1 131
54 23 57 71 66 55 38 46 29 25 16 19 1 25 5 10 12 7 4 7 3 1 28 9 1 0 0 0 0 0 0 0 0 23 41 49 30 28 47 28 64 1 21 2 39 2 99
36 43 26 37 40 45 73 55 57 36 24 23 12 5 38 7 7 4 6 0 5 0 13 4 4 3 0 0 0 0 0 0 13 10 38 56 26 10 26 25 0 0 2 107 2 49 86
42 37 42 40 36 26 40 34 41 49 24 22 34 22 25 9 5 20 0 0 0 0 0 0 0 0 0 0 0 0 0 0 0 9 2 24 44 13 0 12 4 3 0 1 69 135 99
51 59 44 45 48 47 36 29 36 37 22 24 45 30 19 10 15 10 0 0 0 0 0 0 0 0 0 0 0 2 0 0 2 0 0 6 7 0 2 11 10 1 16 53 27 92 87
63 48 65 55 40 35 39 39 49 74 31 26 21 39 16 18 22 13 0 0 0 0 0 0 0 0 0 0 1 0 0 0 0 0 0 6 0 0 2 1 11 5 4 16 7 2 0
61 54 67 42 44 25 36 25 28 46 28 22 29 22 45 24 4 0 0 0 0 0 0 0 0 0 0 2 11 0 1 9 20 3 0 5 0 4 9 4 18 52 26 55 1 0 3
48 59 66 57 36 37 44 35 40 43 13 21 24 4 64 4 0 0 0 0 0 0 0 0 0 0 0 6 0 3 5 6 2 18 8 6 1 2 6 2 0 5 39 9 0 0 1
74 102 88 76 64 66 57 66 71 81 64 82 68 29 30 19 0 0 0 0 0 0 0 0 0 0 0 1 0 0 5 1 8 7 6 6 5 35 0 1 24 1 2 3 0 0 1
93 104 83 98 113 100 198 210 222 227 117 156 71 60 30 12 0 0 0 0 0 0 0 0 0 0 0 0 0 0 15 11 7 4 2 8 23 32 2 4 14 56 1 0 0 0 0
114 91 115 164 186 302 260 269 238 116 64 104 56 67 23 5 3 0 0 0 0 0 0 0 0 0 0 0 0 0 1 7 5 4 28 0 1 2 0 0 7 9 0 0 0 0 0
98 102 182 214 293 308 271 202 131 126 82 84 63 23 29 16 0 0 0 0 0 0 0 0 0 0 0 0 0 0 0 3 1 2 0 0 2 11 3 0 0 0 0 0 0 0 0
91 118 187 303 304 261 218 143 108 76 76 21 1 13 18 11 0 1 0 0 0 0 0 0 0 0 0 0 0 0 0 0 0 0 0 0 3 0 0 0 0 0 0 0 0 0 0
105 192 243 268 269 211 144 111 96 77 66 74 3 13 40 3 9 20 2 0 0 0 0 0 0 0 0 0 0 0 0 0 0 0 0 0 0 0 0 0 0 0 0 0 0 0 0
90 227 259 229 200 108 116 88 75 73 44 39 40 4 9 14 22 10 0 0 0 0 0 0 0 0 0 0 0 0 0 0 0 0 0 0 0 0 0 0 0 0 0 0 0 0 0
165 181 233 209 219 113 112 85 70 19 52 44 13 20 14 13 18 12 0 0 0 0 0 0 0 0 0 0 0 0 0 0 0 0 0 0 0 0 0 0 0 0 0 0 0 0 0
130 176 200 167 181 142 90 68 14 45 46 32 7 1 23 45 0 0 0 0 18 0 0 0 0 0 0 0 0 0 0 0 0 0 0 0 0 0 0 0 0 0 0 0 0 0 0
123 145 146 108 101 77 41 59 47 36 38 3 6 6 3 3 12 0 0 2 3 0 0 0 0 0 0 0 0 0 0 0 0 0 0 0 0 0 0 0 0 0 0 0 0 0 0
114 126 95 81 62 78 54 25 15 24 39 2 5 0 0 0 0 0 0 21 3 0 0 0 0 0 0 0 0 0 0 0 0 0 0 0 0 0 0 0 0 0 0 0 0 0 0
137 117 73 99 77 37 21 17 33 24 48 9 0 0 0 0 0 0 0 12 2 0 0 0 0 0 0 0 0 0 0 0 0 0 0 0 0 0 0 0 0 0 0 0 0 0 0
120 111 132 78 29 58 3 2 20 20 9 0 0 0 0 0 0 0 1 10 0 0 0 0 0 0 0 0 0 0 0 0 0 0 0 0 0 0 0 0 0 0 0 0 0 0 0
115 125 97 43 88 25 3 0 0 40 0 0 0 0 0 0 0 0 1 0 0 0 0 0 0 0 0 0 0 0 0 0 0 0 0 0 0 0 0 0 0 0 0 0 0 0 0
80 93 59 24 54 21 41 14 0 0 0 0 0 0 0 0 0 0 0 0 0 0 0 0 0 0 0 0 0 0 0 0 0 0 0 0 0 0 0 0 0 0 0 0 0 0 0
36 49 26 17 40 22 46 12 0 0 0 0 0 0 0 0 0 0 0 0 0 0 0 0 0 0 0 0 0 0 0 0 0 0 0 0 0 0 0 0 0 0 0 0 0 0 0
42 26 11 4 26 15 17 5 0 0 0 0 0 0 0 0 0 0 0 0 0 0 0 0 0 0 0 0 0 0 0 0 0 0 0 0 0 0 0 0 0 0 0 0 0 0 0
32 24 4 13 21 4 2 0 0 0 0 0 0 0 0 0 0 0 0 0 0 0 0 0 0 0 0 0 0 0 0 0 0 0 0 0 0 0 0 0 0 0 0 0 0 0 0

GFSGBSN_con_sbcape_081.txt.gz
CAPE
35 52 53 50 35 54 39 32 36 44 52 31 34 35 34 18 27 7 13 17 1 8 19 14 11 10 0 0 0 0 4 4 0 0 0 0 0 0 1 0 1 18 0 0 0 2 0
54 58 56 49 56 51 42 59 56 48 55 32 37 7 15 4 50 7 1 3 1 4 5 12 0 11 0 0 0 0 0 0 0 0 0 0 0 0 2 7 9 0 0 0 0 0 0
44 63 55 55 43 76 65 55 52 50 34 20 41 19 9 8 7 13 10 7 2 19 5 13 0 17 2 0 0 0 0 0 0 0 2 4 13 30 20 9 8 2 6 0 2 0 0
59 76 80 84 61 45 34 62 48 42 45 23 19 30 37 20 15 7 13 0 0 11 0 12 0 11 12 0 0 0 0 0 0 0 6 14 20 35 29 9 3 20 8 5 0 1 0
42 77 71 76 76 77 63 57 43 30 38 22 37 22 23 13 29 8 0 0 0 19 10 9 2 5 0 0 0 0 0 0 1 4 33 51 48 32 37 15 8 22 9 4 0 111 4
52 71 88 93 83 61 71 65 61 48 35 24 32 27 20 18 14 13 4 0 1 8 15 14 7 0 0 0 0 0 0 0 1 2 17 35 47 80 23 37 2 1 10 2 0 117 88
75 102 68 69 84 62 47 63 73 53 60 54 34 29 26 47 7 13 0 1 0 0 2 0 0 0 0 0 0 0 0 0 7 8 0 9 84 6 3 0 4 15 13 10 31 0 57
72 96 85 84 78 93 73 64 41 51 49 64 22 24 16 74 25 20 0 0 0 0 0 0 0 0 0 0 0 2 0 0 0 4 0 15 7 0 0 7 35 12 3 6 60 8 75
80 114 91 90 98 96 92 74 59 50 30 55 31 25 17 8 20 7 0 0 0 0 0 0 0 0 0 0 0 0 0 1 1 5 0 0 0 0 13 26 24 19 2 0 31 46 17
68 85 83 79 91 85 84 71 62 45 57 57 65 41 14 17 9 1 7 0 0 0 0 0 0 0 0 4 3 0 0 1 13 5 0 0 1 1 2 28 7 22 0 6 64 21 136
75 83 88 94 90 105 97 94 106 79 66 81 68 59 33 56 0 3 0 0 0 0 0 0 0 0 0 0 0 0 4 0 5 7 15 0 20 2 11 5 2 7 34 39 0 6 26
92 79 117 113 115 162 177 266 261 244 235 229 96 65 68 12 0 0 0 0 0 0 0 0 0 0 1 0 1 4 9 3 15 7 5 10 2 4 0 2 18 0 12 0 0 0 0
89 72 88 146 195 175 311 274 290 268 265 250 215 74 60 59 8 0 0 0 0 0 0 4 0 0 0 0 0 4 14 9 10 4 5 10 2 19 11 13 23 20 0 0 0 0 3
83 77 119 179 274 286 291 264 232 208 180 114 22 15 18 20 2 0 3 0 0 0 0 0 0 0 0 0 0 0 1 5 4 1 16 0 0 0 0 6 5 0 0 0 1 0 0
91 90 152 241 342 335 261 241 193 162 103 90 71 22 24 9 3 4 2 0 0 0 0 0 0 0 0 0 0 0 0 13 10 7 1 1 3 5 0 0 0 0 0 0 0 0 0
76 147 176 333 315 261 203 142 145 133 115 56 15 35 9 7 8 15 9 0 0 0 0 0 0 0 0 0 0 0 0 4 2 0 0 1 5 0 0 0 0 0 0 0 0 0 0
106 139 220 262 252 195 168 149 120 130 65 39 10 5 39 18 16 13 7 0 0 0 0 0 0 0 0 0 0 0 0 0 0 0 0 0 0 2 0 0 0 0 0 0 0 0 0
102 148 237 265 199 119 84 90 111 87 58 40 15 5 44 25 4 6 1 0 0 0 0 0 0 0 0 0 0 0 0 0 0 0 0 0 0 0 0 0 0 0 0 0 0 0 0
85 119 219 175 115 88 71 73 40 27 54 14 7 23 36 27 15 21 0 0 0 0 0 0 0 0 0 0 0 0 0 0 0 0 0 0 0 0 0 0 0 0 0 0 0 0 0
69 94 81 68 75 71 45 38 44 36 22 8 5 0 26 23 2 0 0 0 12 0 0 0 0 0 0 0 0 0 0 0 0 0 0 0 0 0 0 0 0 0 0 0 0 0 0
71 75 68 70 48 35 52 43 1 1 1 1 1 4 4 5 5 0 0 0 8 0 0 0 0 0 0 0 0 0 0 0 0 0 0 0 0 0 0 0 0 0 0 0 0 0 0
84 107 101 86 37 20 49 36 24 3 3 0 4 0 0 0 0 0 0 1 6 0 0 0 0 0 0 0 0 0 0 0 0 0 0 0 0 0 0 0 0 0 0 0 0 0 0
84 97 82 52 44 6 4 0 11 3 3 0 0 0 0 0 0 0 0 7 6 0 0 0 0 0 0 0 0 0 0 0 0 0 0 0 0 0 0 0 0 0 0 0 0 0 0
74 71 65 63 28 11 5 3 0 0 0 0 0 0 0 0 0 0 1 3 0 0 0 0 0 0 0 0 0 0 0 0 0 0 0 0 0 0 0 0 0 0 0 0 0 0 0
63 60 36 52 15 21 14 0 12 0 0 0 0 0 0 0 0 0 0 0 0 0 0 0 0 0 0 0 0 0 0 0 0 0 0 0 0 0 0 0 0 0 0 0 0 0 0
30 34 13 28 33 7 4 0 0 0 0 0 0 0 0 0 0 0 0 0 0 0 0 0 0 0 0 0 0 0 0 0 0 0 0 0 0 0 0 0 0 0 0 0 0 0 0
24 14 2 5 65 24 1 0 0 0 0 0 0 0 0 0 0 0 0 0 0 0 0 0 0 0 0 0 0 0 0 0 0 0 0 0 0 0 0 0 0 0 0 0 0 0 0
22 13 3 9 45 35 20 0 0 0 0 0 0 0 0 0 0 0 0 0 0 0 0 0 0 0 0 0 0 0 0 0 0 0 0 0 0 0 0 0 0 0 0 0 0 0 0
18 9 1 29 21 14 1 0 0 0 0 0 0 0 0 0 0 0 0 0 0 0 0 0 0 0 0 0 0 0 0 0 0 0 0 0 0 0 0 0 0 0 0 0 0 0 0

GFSGBSN_con_sbcape_084.txt.gz
CAPE
40 54 53 44 46 44 50 55 59 40 39 40 30 28 23 0 20 1 42 16 12 0 0 4 0 3 0 0 0 0 0 18 3 0 0 0 0 0 0 1 3 1 0 0 0 4 3
42 68 58 73 66 60 42 53 49 55 50 56 60 54 36 49 23 56 23 10 3 0 0 7 0 5 0 0 0 0 0 0 0 0 0 0 0 0 0 1 1 0 2 3 4 1 1
43 27 63 64 63 71 85 80 68 56 52 57 42 54 32 36 16 70 16 8 1 0 1 11 4 3 8 0 0 0 0 0 0 0 0 1 2 4 9 3 2 7 1 0 0 0 9
36 47 50 60 58 63 68 82 87 71 55 62 60 32 30 13 17 23 8 10 0 1 8 5 6 12 2 0 0 0 0 0 0 0 0 5 29 28 38 21 10 12 1 12 0 0 0
42 57 71 67 54 66 63 57 73 84 65 49 64 35 34 28 15 29 11 3 8 7 12 9 10 6 0 0 0 0 0 0 11 2 7 14 36 44 37 35 29 14 4 2 1 1 1
76 69 89 74 88 72 72 67 51 49 77 49 38 39 21 23 15 19 6 3 18 14 13 15 10 0 0 0 0 0 0 0 1 16 28 30 46 37 36 26 10 17 10 9 8 39 59
71 82 83 96 130 122 132 98 88 31 33 36 35 33 11 24 83 10 3 9 5 4 21 0 0 0 0 0 0 0 0 1 19 15 14 3 11 10 6 8 15 30 23 32 73 98 93
78 90 94 122 133 106 133 136 114 93 71 34 29 29 9 23 23 4 0 0 0 0 0 0 0 0 0 0 0 0 0 4 5 7 1 30 15 0 10 12 17 51 26 7 36 96 87
57 90 82 92 112 135 131 134 133 140 128 74 44 35 17 8 41 5 0 0 0 0 0 0 1 0 0 0 0 8 3 9 7 10 2 8 0 0 6 12 30 17 10 3 56 70 180
74 88 88 90 105 157 172 176 199 172 174 99 78 86 35 18 12 2 3 0 0 0 1 0 1 0 0 0 6 1 1 1 20 5 5 8 1 0 2 15 25 42 2 14 24 64 84
92 63 118 82 173 214 271 230 19 287 220 216 203 153 70 29 19 12 0 0 0 0 5 1 4 0 0 9 8 4 0 12 11 8 17 2 5 43 21 3 9 39 1 18 1 149 109
80 53 165 185 235 266 306 244 111 174 200 254 264 219 75 13 24 4 0 0 0 6 0 20 12 8 10 13 12 20 11 6 4 8 11 11 2 5 21 3 23 51 74 40 22 58 71
70 65 186 283 276 275 318 280 183 209 195 215 97 135 50 44 14 5 0 8 20 13 0 16 9 6 6 23 16 20 17 15 17 10 9 3 3 19 25 21 45 17 100 145 116 97 53
59 84 235 305 225 295 253 189 176 180 176 139 65 48 6 3 24 16 10 26 7 1 0 4 0 1 12 4 6 14 21 9 6 7 7 29 2 9 3 8 42 9 28 52 28 43 14
55 77 173 221 315 266 222 135 158 144 143 79 44 18 11 13 16 20 17 14 5 0 1 2 6 9 0 0 1 1 6 13 18 8 50 98 3 1 1 7 8 8 7 0 0 0 4
26 80 131 230 262 181 88 114 119 132 86 72 33 36 10 18 6 13 19 14 0 0 0 0 0 0 0 0 0 2 7 1 3 7 2 8 27 6 5 2 0 2 0 0 1 8 15
54 72 90 131 91 74 67 43 67 78 69 4 11 13 41 29 7 10 41 2 0 0 0 0 0 0 0 0 0 0 7 1 2 2 1 0 7 28 0 2 0 0 0 0 0 0 5
67 70 80 75 60 51 51 28 29 50 42 0 3 10 30 33 13 9 20 0 0 2 7 0 0 0 0 0 0 2 3 2 0 0 0 0 10 32 0 0 0 0 0 0 0 0 0
53 72 66 37 21 32 52 29 24 7 7 4 15 10 36 45 21 15 0 0 0 2 0 6 0 0 0 0 0 0 0 0 0 0 0 0 0 32 9 2 0 0 0 0 0 0 0
56 48 66 53 59 33 16 22 0 0 0 6 19 9 3 15 11 1 1 7 11 0 0 0 0 0 0 0 0 0 0 0 0 0 0 0 0 0 0 0 0 0 0 0 0 0 0
60 62 48 48 47 13 4 6 0 0 0 0 10 14 10 19 7 0 0 6 17 7 0 0 0 0 0 0 0 0 0 0 0 0 0 0 0 0 0 0 0 0 0 0 0 0 0
48 33 44 57 17 3 3 3 0 0 0 2 1 2 6 3 0 0 0 28 13 0 0 0 0 0 0 0 0 0 0 0 0 0 0 0 0 0 0 0 0 0 0 0 0 0 0
45 36 53 57 10 2 1 0 0 0 0 0 1 0 0 0 0 0 1 2 4 0 0 0 0 0 0 0 0 0 0 0 0 0 0 0 0 0 0 0 0 0 0 0 0 0 0
42 34 63 49 20 1 0 0 0 1 0 0 0 0 0 1 0 0 0 0 0 0 0 0 0 0 0 0 0 0 0 0 0 0 0 0 0 0 0 0 0 0 0 0 0 0 0
30 25 34 35 24 5 8 0 0 0 0 0 0 0 0 0 0 0 0 0 0 0 0 0 0 0 0 0 0 0 0 0 0 0 0 0 0 0 0 0 0 0 0 0 0 0 0
16 11 6 35 8 2 2 0 0 0 0 0 0 0 0 0 0 0 0 0 0 0 0 0 0 0 0 0 0 0 0 0 0 0 0 0 0 0 0 0 0 0 0 0 0 0 0
20 15 12 9 33 5 0 0 0 0 0 0 0 0 0 0 0 0 0 0 0 0 0 0 0 0 0 0 0 0 0 0 0 0 0 0 0 0 0 0 0 0 0 0 0 0 0
22 4 7 21 2 22 13 0 0 0 0 0 0 0 0 0 0 0 0 0 0 0 0 0 0 0 0 0 0 0 0 0 0 0 0 0 0 0 0 0 0 0 0 0 0 0 0
21 7 1 36 5 0 0 0 0 0 0 0 0 0 0 0 0 0 0 0 0 0 0 0 0 0 0 0 0 0 0 0 0 0 0 0 0 0 0 0 0 0 0 0 0 0 0

GFSGBSN_con_sbcape_087.txt.gz
CAPE
57 63 68 82 86 87 74 67 66 66 64 45 55 52 66 46 27 28 17 15 44 4 0 6 0 0 1 0 0 0 0 16 0 0 0 0 0 0 0 0 0 0 0 0 0 0 0
57 74 68 74 77 77 85 71 60 33 51 59 54 64 46 47 29 22 26 95 25 4 0 11 0 0 2 0 0 0 0 0 3 0 0 0 0 0 0 0 0 0 1 2 4 2 3
68 79 68 64 63 54 54 66 64 56 45 54 46 39 42 41 40 32 6 60 13 3 9 12 1 2 2 0 0 0 0 0 0 0 1 4 2 2 2 1 1 2 1 1 0 0 0
37 30 26 60 77 75 71 74 79 66 36 37 50 41 46 24 17 22 0 57 5 4 16 20 6 7 0 0 0 0 0 0 0 1 0 7 14 26 16 13 13 17 12 1 0 0 0
33 36 35 58 52 90 98 98 90 88 49 25 26 23 28 19 12 8 34 10 8 23 15 10 14 7 0 0 0 0 0 0 3 8 1 3 29 24 7 11 14 27 37 28 1 9 2
45 26 19 34 68 110 134 122 134 122 95 61 21 8 16 21 37 8 14 7 41 16 13 6 2 2 0 0 0 0 0 0 5 11 24 19 16 7 20 35 12 24 24 20 18 86 82
58 75 56 49 77 101 138 158 143 159 141 79 27 11 12 15 29 51 12 7 1 4 5 1 0 0 0 0 0 0 0 0 6 16 20 3 16 17 14 24 17 13 20 13 19 47 85
94 110 62 49 107 107 154 161 168 171 159 111 52 10 4 22 25 33 2 0 0 0 4 5 1 0 0 1 3 3 0 3 7 20 2 6 16 8 15 18 16 14 17 16 10 47 35
120 79 37 92 112 180 232 244 116 234 153 184 75 2 16 23 48 24 3 0 0 0 1 8 5 2 0 0 4 3 1 7 1 8 3 12 1 5 1 2 13 12 30 8 15 28 107
29 76 84 133 127 217 247 255 231 28 50 182 133 92 66 1 55 9 3 0 0 0 30 3 8 1 0 1 3 9 4 11 3 5 3 3 5 5 2 10 10 23 3 18 63 41 46
87 81 54 134 151 251 222 239 223 104 100 177 221 181 49 3 34 34 21 0 0 2 20 1 9 1 2 12 7 8 4 13 11 23 23 6 10 2 14 8 6 1 19 15 19 36 27
51 6 83 144 169 274 281 261 187 111 132 173 145 68 9 34 3 21 11 0 7 20 15 25 17 29 13 16 6 10 7 4 2 11 18 10 1 5 1 4 32 13 5 6 14 13 62
12 23 47 124 134 209 212 155 124 138 122 115 117 0 0 47 24 53 16 12 29 34 1 12 13 18 13 7 8 9 14 16 23 15 11 4 5 2 6 6 6 62 61 159 133 183 49
10 21 15 40 82 135 115 104 132 136 118 78 19 32 30 42 19 35 36 11 48 3 18 5 8 15 10 3 10 27 23 17 6 21 33 11 44 2 4 11 37 32 35 131 65 47 21
7 25 28 56 95 104 82 106 95 79 49 43 35 29 18 18 44 29 12 70 24 6 8 6 13 9 5 4 12 15 14 12 24 5 31 18 40 0 8 4 23 11 89 2 29 0 15
23 37 54 70 65 76 53 70 68 71 63 38 22 41 32 20 43 24 7 17 9 7 8 1 0 0 5 6 3 5 7 2 2 1 1 13 43 0 1 0 0 2 0 0 18 34 15
40 36 42 44 48 55 55 49 44 46 46 21 37 30 67 43 4 9 20 32 6 25 26 15 0 0 4 4 3 8 0 1 1 8 4 6 10 18 4 7 18 7 9 0 0 0 8
27 26 36 65 61 41 43 24 23 16 0 0 4 2 24 35 19 19 36 5 1 42 13 0 0 0 4 2 5 6 0 6 0 0 0 0 16 50 1 0 0 0 0 0 1 0 0
18 43 68 60 39 24 2 0 0 0 0 1 10 13 16 42 28 34 0 16 3 10 14 13 0 0 0 1 2 5 4 0 0 0 0 0 1 91 31 3 1 2 0 0 0 3 0
36 42 61 59 27 5 0 0 0 0 0 0 15 9 5 10 3 8 10 6 16 0 1 0 0 0 0 0 0 0 0 0 0 0 0 0 0 0 3 1 0 0 0 0 0 0 0
28 29 66 57 31 0 0 0 0 0 0 1 3 9 11 27 9 9 5 1 13 14 1 0 0 0 0 0 0 0 0 0 0 0 0 0 0 0 0 0 0 0 0 0 0 0 0
32 28 66 61 30 21 2 0 0 0 0 1 0 4 2 5 1 2 0 10 0 1 0 1 0 0 0 0 0 0 0 0 0 0 0 0 0 0 0 0 0 0 0 0 0 0 0
33 25 55 51 33 18 0 0 0 0 0 0 0 0 0 0 0 5 6 4 4 2 0 0 0 0 0 0 0 0 0 0 0 0 0 0 0 0 0 0 0 0 0 0 0 0 0
14 29 30 6 24 20 5 0 0 0 0 0 0 0 0 0 2 4 1 0 0 0 0 0 0 1 0 0 0 0 0 0 0 0 0 0 0 0 0 0 0 0 0 0 0 0 0
8 4 25 2 0 6 0 0 0 0 0 0 0 0 0 0 0 3 0 0 0 0 0 0 0 0 0 0 0 0 0 0 0 0 0 0 0 0 0 0 0 0 0 0 0 0 0
8 6 9 18 0 9 8 0 0 0 0 0 0 0 0 0 0 0 0 0 3 0 0 0 0 0 0 0 0 0 0 0 0 0 0 0 0 0 0 0 0 0 0 0 0 0 0
11 3 2 17 19 0 0 0 0 0 0 0 0 0 0 0 0 0 0 0 0 0 0 0 0 0 0 0 0 0 0 0 0 0 0 0 0 0 0 0 0 0 0 0 0 0 0
5 4 0 6 1 6 1 0 0 0 0 0 0 0 0 0 0 0 0 0 0 0 3 0 0 0 0 0 0 0 0 0 0 0 0 0 0 0 0 0 0 0 0 0 0 0 0
1 8 1 0 4 0 0 6 0 0 0 0 0 0 0 0 0 0 0 0 0 0 0 0 0 0 0 0 0 0 0 0 0 0 0 0 0 0 0 0 0 0 0 0 0 0 0

GFSGBSN_con_sbcape_090.txt.gz
CAPE
54 51 61 56 59 43 23 26 40 43 44 48 51 61 58 56 43 39 35 27 19 35 5 0 0 0 0 0 0 0 21 22 0 0 0 0 0 0 0 0 0 0 0 0 0 0 0
32 40 43 46 67 63 58 58 58 60 40 29 23 54 56 41 58 30 28 51 22 62 2 4 2 0 0 0 0 0 0 9 0 0 0 0 0 0 0 0 0 0 0 0 0 0 0
42 44 36 31 34 58 76 67 59 63 77 60 26 19 23 27 39 27 15 20 6 65 9 18 0 0 1 0 0 0 0 0 0 0 0 0 0 0 0 0 0 0 0 0 0 0 0
61 54 42 14 20 35 75 75 72 66 80 86 80 25 30 31 24 15 12 4 55 7 23 14 4 0 0 0 0 0 0 0 0 0 0 0 0 0 0 0 0 0 0 0 0 0 0
86 93 69 64 18 49 72 89 86 76 85 100 84 56 33 17 18 28 12 62 17 19 41 17 0 0 0 0 0 0 0 0 0 0 0 0 0 0 1 2 0 0 0 0 0 6 6
119 141 83 89 69 75 95 65 115 114 142 126 127 78 16 11 8 29 102 31 45 30 7 0 0 0 0 0 0 0 0 1 5 6 1 3 6 1 2 12 0 0 1 0 0 0 38
35 68 82 110 96 120 125 104 117 103 86 237 180 95 31 13 16 15 25 7 2 9 9 0 0 0 0 0 0 0 0 0 3 1 1 2 1 1 0 0 2 1 1 0 0 0 0
0 1 53 78 91 155 188 184 173 20 25 107 82 114 34 9 13 87 30 28 1 0 4 0 0 0 0 0 0 2 1 5 5 6 3 0 1 0 0 1 9 7 8 0 0 0 9
0 23 58 55 98 147 169 148 141 130 64 5 165 130 50 12 6 60 0 8 1 0 2 5 0 1 0 0 0 2 0 7 3 0 1 2 0 1 0 0 12 0 2 0 8 0 0
80 47 54 46 66 120 166 196 186 171 97 49 184 156 73 5 29 22 8 5 0 0 1 4 6 2 0 0 0 11 2 6 5 2 0 1 0 0 0 10 6 6 0 5 16 33 7
56 48 43 48 85 103 131 175 130 130 96 73 103 112 20 12 15 30 13 1 0 0 1 0 4 2 1 0 1 10 10 12 7 7 2 0 2 1 4 0 2 11 3 21 18 24 12
31 40 24 30 38 100 122 105 93 89 117 87 34 34 5 46 34 35 30 2 11 7 5 32 13 14 4 5 19 5 13 0 0 10 5 0 0 1 0 0 2 20 5 5 10 26 0
15 49 65 55 76 123 150 113 90 103 92 84 41 31 5 38 26 57 10 19 5 5 0 7 10 5 4 5 12 5 6 4 12 7 1 0 0 0 0 5 5 22 3 1 0 0 4
11 46 75 90 94 124 95 68 75 44 26 18 49 21 9 27 0 40 18 6 4 27 14 7 1 0 6 1 8 9 4 6 1 5 16 5 4 1 1 8 6 1 21 11 1 2 14
21 56 75 99 112 128 99 72 84 63 35 24 18 2 13 19 2 26 2 7 13 24 5 3 2 10 4 7 2 1 3 3 3 0 26 8 0 0 0 0 2 0 13 3 16 1 15
16 61 100 118 89 78 89 70 61 57 37 0 0 6 14 25 14 8 2 12 11 12 0 0 0 5 0 0 1 7 4 0 0 1 3 1 2 0 0 0 0 1 0 0 0 0 4
45 46 82 74 56 50 47 49 53 57 42 0 7 3 42 15 7 1 9 5 13 17 18 10 0 0 0 0 0 8 0 0 0 3 0 0 2 6 0 4 5 0 1 0 0 0 2
52 42 57 26 24 29 0 1 26 30 35 15 11 6 7 24 1 12 11 3 2 14 22 0 0 0 0 0 5 2 0 1 0 0 0 0 0 11 11 0 0 0 0 0 0 0 0
39 58 24 31 14 7 0 0 0 0 9 0 5 14 4 32 18 5 4 3 0 13 6 0 0 0 0 0 0 1 0 0 0 1 0 0 0 0 0 0 0 0 0 0 0 0 0
33 46 12 21 23 11 0 0 0 0 0 3 1 3 10 14 0 0 2 1 1 0 0 0 0 0 0 0 0 0 0 0 0 0 0 0 0 0 0 0 0 0 0 0 0 0 0
27 51 11 2 3 0 0 0 2 0 0 0 0 3 3 0 0 0 0 2 0 0 0 0 0 0 0 0 0 0 0 0 0 0 0 0 0 0 0 0 0 0 0 0 0 0 0
14 38 17 1 2 0 0 0 0 0 0 0 5 0 0 0 0 0 0 3 0 0 0 0 0 0 0 0 0 0 0 0 0 0 0 0 0 0 0 0 0 0 0 0 0 0 0
9 20 13 1 0 0 0 0 0 0 0 0 0 0 0 0 0 0 0 0 0 0 0 0 0 0 0 0 0 0 0 0 0 0 0 0 0 0 0 0 0 0 0 0 0 0 0
4 8 13 1 0 0 0 0 0 0 0 0 0 0 0 0 0 0 0 0 0 0 0 0 0 0 0 0 0 0 0 0 0 0 0 0 0 0 0 0 0 0 0 0 0 0 0
4 6 15 7 11 0 0 0 0 0 0 0 0 0 0 0 0 0 0 0 0 0 0 0 0 0 0 0 0 0 0 0 0 0 0 0 0 0 0 0 0 0 0 0 0 0 0
4 6 7 5 0 3 1 0 0 0 0 0 0 0 0 0 0 0 0 0 0 0 0 0 0 0 0 0 0 0 0 0 0 0 0 0 0 0 0 0 0 0 0 0 0 0 0
1 5 4 4 1 0 0 1 0 0 0 0 0 0 0 0 0 0 0 0 0 0 0 0 0 0 0 0 0 0 0 0 0 0 0 0 0 0 0 0 0 0 0 0 0 0 0
0 1 2 0 0 0 0 0 0 0 0 0 0 0 0 0 0 0 0 0 0 0 0 0 0 0 0 0 0 0 0 0 0 0 0 0 0 0 0 0 0 0 0 0 0 0 0
0 1 0 0 0 1 0 0 0 0 0 0 0 0 0 0 0 0 0 0 0 0 0 0 0 0 0 0 0 0 0 0 0 0 0 0 0 0 0 0 0 0 0 0 0 0 0

GFSGBSN_con_sbcape_093.txt.gz
CAPE
36 26 45 64 47 40 57 60 85 83 72 70 64 35 45 35 22 34 26 24 24 18 27 17 4 0 0 0 0 0 0 0 0 0 0 0 0 0 0 0 0 0 0 0 0 0 0
47 38 65 64 55 37 48 69 77 91 137 131 83 52 18 22 13 11 17 8 16 27 81 14 0 0 0 0 0 0 0 0 0 0 0 0 0 0 0 0 0 0 0 0 0 0 0
236 177 167 101 93 85 53 62 63 85 117 131 154 114 57 40 27 19 22 41 10 18 24 15 0 0 0 0 0 0 0 0 0 0 0 0 0 0 0 0 0 0 0 0 0 0 0
166 170 32 55 84 122 103 83 82 111 138 125 116 122 86 44 22 18 14 22 3 1 99 23 1 0 0 0 0 0 0 0 0 0 0 0 0 0 0 0 0 0 0 0 0 0 0
31 12 7 40 82 99 140 147 116 116 143 157 152 125 101 34 19 2 76 80 106 143 29 14 0 0 0 0 0 0 0 0 0 0 0 0 0 0 0 0 0 0 0 0 0 0 0
38 29 30 73 84 190 205 236 239 187 190 151 222 246 136 37 15 13 67 131 116 38 28 1 0 0 0 0 0 0 0 0 0 0 0 0 0 0 0 0 0 0 0 0 0 0 0
62 40 42 54 111 168 186 184 221 262 243 205 145 156 179 20 9 36 12 0 0 0 2 0 0 0 0 0 0 0 0 0 0 3 0 1 0 0 0 0 0 0 0 0 0 0 0
64 54 36 55 113 144 200 208 216 255 237 116 56 185 91 49 1 81 20 9 14 6 6 0 0 0 0 0 0 0 0 0 1 1 1 0 0 0 0 0 0 0 0 0 0 0 6
55 44 26 41 68 146 184 241 272 201 185 107 129 140 68 7 4 28 4 11 4 0 5 10 3 0 0 0 0 0 0 4 4 1 0 1 0 0 0 0 0 0 0 0 0 0 3
36 40 43 59 83 88 179 188 161 162 140 97 94 109 21 1 0 6 9 7 0 0 0 15 2 0 0 0 4 5 1 6 10 1 1 0 0 0 0 0 0 5 0 0 20 36 0
34 52 75 96 144 79 204 239 181 162 126 71 8 0 0 0 0 16 1 0 0 0 0 2 4 3 0 0 2 23 10 17 5 1 0 0 0 0 0 0 0 1 4 17 19 7 2
50 58 60 63 165 202 157 148 102 161 66 56 0 0 0 0 0 0 2 0 0 0 0 30 4 0 0 9 7 7 8 0 0 2 2 0 0 0 0 0 0 0 3 5 3 11 1
43 51 56 53 115 124 95 58 86 73 43 20 0 0 0 0 0 0 0 0 0 0 10 1 17 4 1 15 3 3 0 2 3 0 0 0 0 0 0 0 0 0 2 0 0 0 0
40 50 78 55 29 71 45 55 52 50 6 10 26 4 0 0 0 0 0 1 0 37 3 1 0 0 5 0 1 14 5 0 0 0 0 1 0 0 0 0 0 2 6 2 0 0 1
50 63 60 48 12 2 17 25 7 0 0 3 4 0 0 0 0 0 0 0 3 11 1 0 1 7 3 1 3 0 0 0 2 0 2 2 0 0 0 0 1 0 11 0 14 4 0
68 67 55 27 3 2 13 12 8 32 3 0 0 0 6 0 0 0 0 3 6 1 0 0 0 0 0 0 0 0 0 0 0 1 0 0 3 0 0 0 0 0 0 0 0 0 6
69 59 34 7 2 3 15 18 14 8 2 1 0 10 1 0 0 0 0 2 0 5 0 6 0 0 0 0 0 0 0 0 0 0 0 0 5 0 0 0 0 0 0 0 0 0 0
77 36 17 1 1 0 0 13 37 43 36 0 0 1 0 0 0 2 0 0 0 0 0 0 0 0 0 0 3 0 0 0 0 0 0 0 0 0 0 0 0 0 0 0 0 0 0
66 27 12 0 0 0 0 0 0 0 18 0 0 1 0 0 1 1 1 0 1 0 0 0 0 0 0 0 0 0 0 0 0 0 0 0 0 0 0 0 0 0 0 0 0 0 0
42 39 16 0 0 0 0 0 0 0 0 0 0 0 0 0 0 0 0 0 0 0 0 0 0 0 0 0 0 0 0 0 0 0 0 0 0 0 0 0 0 0 0 0 0 0 0
20 22 24 1 0 0 0 0 0 0 0 0 0 0 0 0 0 0 0 0 0 0 0 0 0 0 0 0 0 0 0 0 0 0 0 0 0 0 0 0 0 0 0 0 0 0 0
2 19 8 3 0 0 0 0 0 0 0 0 0 0 0 0 0 0 0 0 0 0 0 0 0 0 0 0 0 0 0 0 0 0 0 0 0 0 0 0 0 0 0 0 0 0 0
4 4 6 2 0 0 0 0 0 0 0 0 0 0 0 0 0 0 0 0 0 0 0 0 0 0 0 0 0 0 0 0 0 0 0 0 0 0 0 0 0 0 0 0 0 0 0
1 4 12 7 2 0 0 0 0 0 0 0 0 0 0 0 0 0 0 0 0 0 0 0 0 0 0 0 0 0 0 0 0 0 0 0 0 0 0 0 0 0 0 0 0 0 0
3 3 8 4 2 0 0 0 0 0 0 0 0 0 0 0 0 0 0 0 0 0 0 0 0 0 0 0 0 0 0 0 0 0 0 0 0 0 0 0 0 0 0 0 0 0 0
4 6 3 5 2 0 0 0 0 0 0 0 0 0 0 0 0 0 0 0 0 0 0 0 0 0 0 0 0 0 0 0 0 0 0 0 0 0 0 0 0 0 0 0 0 0 0
0 4 2 2 1 0 0 0 0 0 0 0 0 0 0 0 0 0 0 0 0 0 0 0 0 0 0 0 0 0 0 0 0 0 0 0 0 0 0 0 0 0 0 0 0 0 0
0 0 3 0 0 0 0 0 0 0 0 0 0 0 0 0 0 0 0 0 0 0 0 0 0 0 0 0 0 0 0 0 0 0 0 0 0 0 0 0 0 0 0 0 0 0 0
0 0 0 1 0 0 0 0 0 0 0 0 0 0 0 0 0 0 0 0 0 0 0 0 0 0 0 0 0 0 0 0 0 0 0 0 0 0 0 0 0 0 0 0 0 0 0

GFSGBSN_con_sbcape_096.txt.gz
CAPE
59 72 73 210 141 71 94 86 78 78 65 111 111 105 63 10 7 4 8 23 4 6 10 32 27 6 0 0 0 0 0 0 0 0 0 0 0 0 0 0 0 0 0 0 0 0 0
24 17 27 7 21 20 51 149 90 74 89 114 100 100 87 74 30 23 21 15 11 15 12 93 3 0 0 0 0 0 0 0 0 0 0 0 0 0 0 0 0 0 0 0 0 0 0
30 28 19 32 36 20 47 149 114 120 105 166 147 92 73 59 26 13 30 41 43 25 3 218 11 0 0 0 0 0 0 0 0 0 0 0 0 0 0 0 0 0 0 0 0 0 0
56 25 31 35 32 31 52 153 168 219 156 159 180 138 119 47 15 8 4 2 55 9 9 132 5 0 0 0 0 0 0 0 0 0 0 0 0 0 0 0 0 0 0 0 0 0 0
54 60 60 44 27 85 63 108 142 202 234 201 161 181 144 59 3 11 121 73 62 28 120 32 0 0 0 0 0 0 0 0 0 0 0 0 0 0 0 0 0 0 0 0 0 0 0
77 52 50 44 45 102 113 107 128 199 197 203 169 167 166 45 2 27 0 354 122 94 10 3 0 0 0 0 0 0 0 0 0 0 0 0 0 0 0 0 0 0 0 0 0 0 0
58 44 40 60 54 129 129 171 215 213 207 171 35 178 144 100 12 15 0 7 0 0 0 1 0 0 0 0 0 0 0 0 1 0 0 0 0 0 0 0 0 0 0 0 0 0 0
59 59 62 73 41 73 138 213 213 176 159 86 111 144 96 74 25 4 3 25 19 0 6 3 0 0 0 0 0 0 0 0 0 0 0 0 0 0 0 0 0 0 0 0 0 0 0
58 66 96 116 102 18 26 158 123 98 69 65 100 112 49 0 28 6 7 31 5 0 5 13 12 0 0 0 0 0 0 2 0 0 0 0 0 0 0 0 0 0 0 0 0 0 0
53 66 91 104 114 139 6 89 70 54 29 29 28 21 0 5 2 17 7 7 6 0 0 6 6 5 0 0 7 4 0 2 8 0 1 0 0 0 0 0 0 0 0 0 0 7 0
70 74 73 72 86 91 104 3 45 22 7 14 0 0 0 0 0 0 0 0 0 0 0 13 3 0 0 0 1 16 3 11 5 7 0 0 0 0 0 0 0 0 0 0 19 14 0
63 64 59 59 52 36 40 22 17 0 12 3 0 0 0 0 0 1 0 0 0 0 1 22 1 0 2 20 0 9 7 0 0 0 0 0 0 0 0 0 0 0 0 6 17 17 1
67 57 44 29 33 14 21 14 4 0 7 3 0 0 0 0 0 0 0 0 0 0 29 1 8 0 1 4 0 4 1 0 0 0 0 0 0 0 0 0 0 0 2 0 0 0 0
63 49 15 21 12 12 12 9 10 2 0 0 0 0 0 0 0 0 0 0 0 13 2 0 0 0 3 2 11 10 4 0 0 0 0 0 0 0 0 0 0 0 4 1 0 0 0
81 31 18 23 0 5 3 2 5 1 0 0 0 0 0 0 0 0 0 0 1 0 0 0 7 1 2 0 3 1 0 0 0 0 0 2 0 0 0 0 0 0 8 3 11 6 0
49 19 29 15 0 0 0 0 0 0 0 0 0 0 0 0 0 0 0 9 0 0 0 0 0 0 0 0 1 2 0 0 0 0 0 0 6 0 0 0 0 0 0 2 0 0 0
30 14 16 8 2 2 1 1 0 0 0 0 0 0 0 0 0 0 0 0 0 0 0 0 0 0 0 0 0 0 0 0 0 0 0 0 4 0 0 0 0 0 0 0 0 0 0
13 18 5 0 0 0 1 0 0 0 0 0 0 0 0 0 0 0 0 0 0 0 0 0 0 0 0 0 0 0 0 0 0 0 0 0 0 0 0 0 0 0 0 0 0 0 0
33 37 12 0 0 0 0 0 0 0 0 0 0 0 0 0 0 0 0 0 0 0 0 0 0 0 0 0 0 0 0 0 0 0 0 0 0 0 0 0 0 0 0 0 0 0 0
32 12 3 0 0 0 0 0 0 0 0 0 0 0 0 0 0 0 0 0 0 0 0 0 0 0 0 0 0 0 0 0 0 0 0 0 0 0 0 0 0 0 0 0 0 0 0
9 17 2 0 0 0 0 0 0 0 0 0 0 0 0 0 0 0 0 0 0 0 0 0 0 0 0 0 0 0 0 0 0 0 0 0 0 0 0 0 0 0 0 0 0 0 0
5 11 13 1 0 0 0 0 0 0 0 0 0 0 0 0 0 0 0 0 0 0 0 0 0 0 0 0 0 0 0 0 0 0 0 0 0 0 0 0 0 0 0 0 0 0 0
5 3 25 13 2 0 0 0 0 0 0 0 0 0 0 0 0 0 0 0 0 0 0 0 0 0 0 0 0 0 0 0 0 0 0 0 0 0 0 0 0 0 0 0 0 0 0
0 7 9 15 7 0 0 0 0 0 0 0 0 0 0 0 0 0 0 0 0 0 0 0 0 0 0 0 0 0 0 0 0 0 0 0 0 0 0 0 0 0 0 0 0 0 0
0 3 2 6 9 2 0 0 0 0 0 0 0 0 0 0 0 0 0 0 0 0 0 0 0 0 0 0 0 0 0 0 0 0 0 0 0 0 0 0 0 0 0 0 0 0 0
0 0 4 1 3 3 0 0 0 0 0 0 0 0 0 0 0 0 0 0 0 0 0 0 0 0 0 0 0 0 0 0 0 0 0 0 0 0 0 0 0 0 0 0 0 0 0
0 0 1 1 1 1 0 0 0 0 0 0 0 0 0 0 0 0 0 0 0 0 0 0 0 0 0 0 0 0 0 0 0 0 0 0 0 0 0 0 0 0 0 0 0 0 0
0 0 0 2 1 0 0 0 0 0 0 0 0 0 0 0 0 0 0 0 0 0 0 0 0 0 0 0 0 0 0 0 0 0 0 0 0 0 0 0 0 0 0 0 0 0 0
0 0 0 0 3 0 0 2 0 0 0 0 0 0 0 0 0 0 0 0 0 0 0 0 0 0 0 0 0 0 0 0 0 0 0 0 0 0 0 0 0 0 0 0 0 0 0

GFSGBSN_con_sbcape_099.txt.gz
CAPE
34 55 51 59 50 44 35 66 128 15 42 72 115 143 104 47 32 20 1 2 13 13 0 16 182 3 0 0 0 0 0 0 0 0 0 0 0 0 0 0 0 0 0 0 0 0 0
58 51 52 66 41 28 61 79 130 98 168 172 143 85 79 75 47 24 14 14 15 12 12 10 10 0 0 0 0 0 0 0 0 0 0 0 0 0 0 0 0 0 0 0 0 0 0
59 56 74 61 78 52 87 83 84 142 201 199 175 144 110 59 37 36 15 45 64 66 35 10 17 0 0 0 0 0 0 0 0 0 0 0 0 0 0 0 0 0 0 0 0 0 0
34 57 44 36 71 47 83 59 62 84 184 190 168 161 116 92 48 5 8 46 75 39 23 27 1 0 0 0 0 0 0 0 0 0 0 0 0 0 0 0 0 0 0 0 0 0 0
24 55 44 33 56 84 143 106 94 130 184 180 189 201 165 81 17 12 10 43 194 64 51 48 0 0 0 0 0 0 0 0 0 0 0 0 0 0 0 0 0 0 0 0 0 0 0
50 64 85 97 78 58 107 132 171 205 209 190 67 147 171 31 15 43 2 273 178 124 44 10 0 0 0 0 0 0 0 0 0 0 0 0 0 0 0 0 0 0 0 0 0 0 0
52 72 94 125 174 71 55 159 189 145 160 94 146 192 97 184 12 72 1 0 0 5 12 0 0 0 0 0 0 0 0 0 0 0 0 0 0 0 0 0 0 0 0 0 0 0 0
67 84 92 116 151 176 58 95 148 119 97 119 143 132 105 101 48 3 1 3 5 6 3 2 0 0 0 0 0 0 0 0 0 0 0 0 0 0 0 0 0 0 0 0 0 0 0
72 88 102 91 101 138 77 43 177 122 97 99 109 31 21 31 29 13 3 14 1 0 3 15 8 6 0 0 0 0 0 0 0 0 0 0 0 0 0 0 0 0 0 0 0 0 0
73 68 53 44 53 82 61 0 34 34 16 3 0 0 22 60 0 14 11 4 1 0 0 4 1 0 0 0 2 0 0 0 1 0 0 0 0 0 0 0 0 0 0 0 0 10 6
71 22 32 32 20 23 13 28 33 38 21 0 0 0 14 0 0 1 1 0 0 0 0 7 3 0 0 0 0 14 5 10 9 3 0 0 0 0 0 0 0 0 0 0 1 18 17
41 33 38 25 25 28 39 33 18 23 14 0 1 0 0 0 0 12 0 0 0 0 0 30 0 0 0 1 1 14 9 1 0 0 0 0 0 0 0 0 0 0 0 0 7 5 0
48 45 27 17 8 10 12 15 3 1 1 0 0 0 0 0 0 0 0 0 0 1 5 0 1 0 2 2 0 8 2 1 0 0 0 0 0 0 0 0 0 0 0 0 0 0 0
35 47 18 13 7 2 1 1 0 0 0 0 0 0 0 0 0 0 0 0 0 7 10 1 0 0 0 8 2 3 4 1 1 0 0 0 0 0 0 0 0 0 7 2 0 0 0
20 38 24 5 0 0 0 0 0 0 0 0 0 0 0 0 0 0 0 0 0 1 0 0 11 0 0 1 0 0 0 2 1 0 0 0 0 0 0 0 0 0 0 11 19 0 1
19 19 32 19 10 0 0 0 0 0 0 0 0 0 0 0 0 0 0 6 0 0 0 0 0 0 0 2 1 1 0 0 0 0 0 0 3 0 0 0 0 0 0 2 1 0 0
25 20 15 20 19 14 0 0 0 0 0 0 0 0 0 0 0 0 0 0 0 0 0 0 0 0 0 0 0 0 0 0 0 1 0 0 1 0 0 0 0 0 0 1 0 0 1
5 5 0 0 0 0 0 0 0 0 0 0 0 0 0 0 0 0 0 0 0 0 0 0 0 0 0 0 0 0 0 0 0 0 0 0 0 0 0 0 0 0 0 0 0 0 0
9 1 1 0 1 3 1 1 0 0 0 0 0 0 0 0 0 0 0 0 0 0 0 0 0 0 0 0 0 0 0 0 0 0 0 0 0 0 0 0 0 0 0 0 0 0 0
1 4 0 0 0 1 2 0 0 0 0 0 0 0 0 0 0 0 0 0 0 0 0 0 0 0 0 0 0 0 0 0 0 0 0 0 0 0 0 0 0 0 0 0 0 0 0
4 5 4 0 1 1 0 0 0 0 0 0 0 0 0 0 0 0 0 0 0 0 0 0 0 0 0 0 0 0 0 0 0 0 0 0 0 0 0 0 0 0 0 0 0 0 0
4 6 15 3 2 1 0 0 0 0 0 0 0 0 0 0 0 0 0 0 0 0 0 0 0 0 0 0 0 0 0 0 0 0 0 0 0 0 0 0 0 0 0 0 0 0 0
0 4 5 14 1 2 0 0 0 0 0 0 0 0 0 0 0 0 0 0 0 0 0 0 0 0 0 0 0 0 0 0 0 0 0 0 0 0 0 0 0 0 0 0 0 0 0
0 0 2 7 5 1 0 0 0 0 0 0 0 0 0 0 0 0 0 0 0 0 0 0 0 0 0 0 0 0 0 0 0 0 0 0 0 0 0 0 0 0 0 0 0 0 0
0 0 0 2 1 2 0 0 0 0 0 0 0 0 0 0 0 0 0 0 0 0 0 0 0 0 0 0 0 0 0 0 0 0 0 0 0 0 0 0 0 0 0 0 0 0 0
0 0 0 0 1 2 0 0 0 0 0 0 0 0 0 0 0 0 0 0 0 0 0 0 0 0 0 0 0 0 0 0 0 0 0 0 0 0 0 0 0 0 0 0 0 0 0
0 0 0 0 0 0 0 0 0 0 0 0 0 0 0 0 0 0 0 0 0 0 0 0 0 0 0 0 0 0 0 0 0 0 0 0 0 0 0 0 0 0 0 0 0 0 0
0 0 0 0 0 0 0 0 0 0 0 0 0 0 0 0 0 0 0 0 0 0 0 0 0 0 0 0 0 0 0 0 0 0 0 0 0 0 0 0 0 0 0 0 0 0 0
5 0 0 0 0 0 0 0 1 0 0 0 0 0 0 0 0 0 0 0 0 0 0 0 0 0 0 0 0 0 0 0 0 0 0 0 0 0 0 0 0 0 0 0 0 0 0

GFSGBSN_con_sbcape_102.txt.gz
CAPE
64 64 76 83 43 27 33 56 81 163 176 203 242 241 64 48 52 17 5 0 0 0 0 0 44 1 0 0 0 0 0 0 0 0 0 0 0 0 0 0 0 0 0 0 0 0 0
39 61 62 36 31 25 37 57 93 72 221 238 283 219 131 48 52 42 14 6 9 1 0 1 35 0 0 0 0 0 0 0 0 0 0 0 0 0 0 0 0 0 0 0 0 0 0
42 67 95 72 38 71 78 30 54 79 142 212 212 212 151 88 48 37 1 6 15 38 12 12 3 0 0 1 0 0 0 0 0 0 0 0 0 0 0 0 0 0 0 0 0 0 0
54 78 111 132 138 59 66 86 77 84 131 191 202 197 151 121 37 1 2 8 5 54 13 7 23 3 1 0 0 0 0 0 0 0 0 0 0 0 0 0 0 0 0 0 0 0 0
64 105 126 174 293 276 81 108 107 109 131 165 147 197 158 48 1 10 5 83 36 55 21 38 0 1 2 0 0 0 0 0 0 0 0 0 0 0 0 0 0 0 0 0 0 0 0
89 109 120 120 185 68 14 79 106 151 146 111 231 237 205 143 20 6 57 340 267 143 66 6 0 0 0 0 0 0 0 0 0 0 0 0 0 0 0 0 0 0 0 0 0 0 0
83 61 75 62 63 0 40 75 156 193 195 196 190 153 154 61 17 16 0 36 29 24 0 5 1 0 0 0 0 0 0 0 0 0 0 0 0 0 0 0 0 0 0 0 0 0 0
38 31 41 41 62 37 1 80 145 176 155 142 96 19 94 19 17 2 0 2 7 9 3 13 0 0 0 0 0 0 0 0 0 0 0 0 0 0 0 0 0 0 0 0 0 0 0
31 56 52 38 65 17 20 82 68 40 34 29 12 48 27 17 0 0 1 8 1 0 2 9 4 4 0 0 0 0 0 0 0 0 0 0 0 0 0 0 0 0 0 0 0 0 0
33 48 49 38 20 26 27 16 21 44 4 6 23 32 37 23 0 1 2 3 0 1 0 5 13 1 0 0 0 0 0 0 0 0 0 0 0 0 0 0 0 0 0 0 0 0 0
20 19 28 21 23 14 21 18 6 1 15 22 17 14 17 0 2 0 2 0 0 0 0 12 1 0 0 0 0 1 2 12 3 1 0 0 0 0 0 0 0 0 0 0 0 11 14
23 11 18 13 6 6 7 9 0 0 0 0 6 0 0 0 0 5 0 0 0 0 0 3 0 0 0 0 0 16 9 0 0 0 0 0 0 0 0 0 0 0 0 0 1 6 0
23 15 27 9 4 1 0 0 0 0 0 0 0 0 0 0 0 0 0 0 0 0 2 0 0 0 2 1 0 10 0 0 0 0 0 0 0 0 0 0 0 0 1 0 0 0 0
4 26 31 39 16 0 0 0 0 0 0 0 0 0 0 0 0 0 0 0 0 2 5 0 0 1 1 0 0 0 0 0 0 0 0 0 0 0 0 0 0 0 2 1 0 0 0
2 4 6 3 26 27 19 2 0 0 0 0 0 0 0 0 0 0 0 0 0 0 0 0 0 0 0 0 0 0 0 0 0 0 0 0 0 0 0 0 0 0 0 8 4 0 2
10 0 0 1 0 1 1 4 11 10 5 0 0 0 0 0 0 0 0 6 0 0 0 0 0 0 0 0 0 0 0 0 0 0 0 0 3 0 0 0 0 0 0 0 0 0 0
17 5 0 0 2 1 1 1 1 2 2 0 0 0 0 0 0 0 0 0 0 0 0 0 0 0 0 0 0 0 0 0 0 0 0 0 1 0 0 0 0 0 0 0 0 0 0
7 9 5 0 0 2 1 0 0 0 0 0 0 0 0 0 0 0 0 0 0 0 0 0 0 0 0 0 0 0 0 0 0 0 0 0 0 0 0 0 0 0 0 0 0 0 0
2 8 7 4 0 2 1 0 0 0 0 0 0 0 0 0 0 0 0 0 0 0 0 0 0 0 0 0 0 0 0 0 0 0 0 0 0 0 0 0 0 0 0 0 0 0 0
0 0 9 4 6 1 0 0 0 0 0 0 0 0 0 0 0 0 0 0 0 0 0 0 0 0 0 0 0 0 0 0 0 0 0 0 0 0 0 0 0 0 0 0 0 0 0
0 0 3 6 5 3 0 0 0 0 0 0 0 0 0 0 0 0 0 0 0 0 0 0 0 0 0 0 0 0 0 0 0 0 0 0 0 0 0 0 0 0 0 0 0 0 0
0 0 2 10 3 4 0 0 0 0 0 0 0 0 0 0 0 0 0 0 0 0 0 0 0 0 0 0 0 0 0 0 0 0 0 0 0 0 0 0 0 0 0 0 0 0 0
0 0 1 4 5 3 2 0 0 0 0 0 0 0 0 0 0 0 0 0 0 0 0 0 0 0 0 0 0 0 0 0 0 0 0 0 0 0 0 0 0 0 0 0 0 0 0
0 0 0 2 2 5 1 3 0 0 0 0 0 0 0 0 0 0 0 0 0 0 0 0 0 0 0 0 0 0 0 0 0 0 0 0 0 0 0 0 0 0 0 0 0 0 0
0 0 0 1 4 2 1 1 0 0 0 0 0 0 0 0 0 0 0 0 0 0 0 0 0 0 0 0 0 0 0 0 0 0 0 0 0 0 0 0 0 0 0 0 0 0 0
3 0 0 0 1 0 0 1 0 0 0 0 0 0 0 0 0 0 0 0 0 0 0 0 0 0 0 0 0 0 0 0 0 0 0 0 0 0 0 0 0 0 0 0 0 0 0
23 0 0 0 0 0 0 0 0 0 0 0 0 0 0 0 0 0 0 0 0 0 0 0 0 0 0 0 0 0 0 0 0 0 0 0 0 0 0 0 0 0 0 0 0 0 0
21 9 0 0 0 0 1 0 2 0 0 0 0 0 0 0 0 0 0 0 0 0 0 0 0 0 0 0 0 0 0 0 0 0 0 0 0 0 0 0 0 0 0 0 0 0 0
14 23 0 0 0 0 0 1 1 0 0 0 0 0 0 0 0 0 0 0 0 0 0 0 0 0 0 0 0 0 0 0 0 0 0 0 0 0 0 0 0 0 0 0 0 0 0

GFSGBSN_con_sbcape_105.txt.gz
CAPE
42 42 62 73 50 46 10 50 62 95 128 166 144 161 107 44 36 111 9 0 0 1 0 6 41 0 0 0 1 0 0 0 0 0 0 0 0 0 0 0 0 0 0 0 0 0 0
61 64 92 115 178 176 62 91 102 74 88 168 151 150 92 42 17 84 27 6 11 27 0 108 21 7 0 1 0 0 0 0 0 0 0 0 0 0 0 0 0 0 0 0 0 0 0
84 105 103 180 279 375 50 91 119 85 159 205 167 185 111 26 21 80 17 0 11 52 20 110 6 0 0 2 0 0 0 0 0 0 0 0 0 0 0 0 0 0 0 0 0 0 0
42 35 47 65 38 7 14 61 69 171 217 208 154 193 129 40 39 2 0 0 0 57 9 63 2 0 19 0 0 0 0 0 0 0 0 0 0 0 0 0 0 0 0 0 0 0 0
30 35 60 24 9 5 55 165 195 254 227 225 232 192 130 73 36 12 11 62 62 75 86 46 0 0 21 0 0 0 0 0 0 0 0 0 0 0 0 0 0 0 0 0 0 0 0
35 38 56 26 10 15 74 171 229 216 224 244 246 244 99 83 41 120 235 283 146 86 33 0 0 0 0 0 0 0 0 0 0 0 0 0 0 0 0 0 0 0 0 0 0 0 0
27 41 57 31 14 16 31 37 140 126 110 87 71 107 104 34 20 44 2 43 13 4 8 19 0 0 0 0 0 0 0 0 0 0 0 0 0 0 0 0 0 0 0 0 0 0 0
21 53 23 23 16 36 14 10 14 28 10 7 41 47 14 5 7 29 1 9 14 3 7 4 0 0 0 0 0 0 0 0 0 0 0 0 0 0 0 0 0 0 0 0 0 0 0
16 45 28 19 22 17 13 8 1 0 1 13 45 26 17 5 0 0 2 15 3 0 3 6 8 4 0 0 0 0 0 0 0 0 0 0 0 0 0 0 0 0 0 0 0 0 0
7 23 21 14 8 12 9 4 0 2 11 13 25 12 4 10 0 0 1 1 0 0 0 7 2 0 0 0 0 0 0 0 0 0 0 0 0 0 0 0 0 0 0 0 0 0 1
10 3 25 23 14 4 0 0 0 0 0 3 0 19 18 0 0 0 0 0 0 0 0 10 1 0 0 0 0 0 0 0 0 0 0 0 0 0 0 0 0 0 0 0 0 6 8
30 20 2 15 15 11 2 2 4 5 0 0 0 0 0 0 0 1 0 0 0 0 0 0 0 0 0 0 0 0 0 0 0 0 0 0 0 0 0 0 0 0 0 0 2 1 1
21 12 21 15 22 11 5 2 1 0 0 0 0 0 0 0 0 0 0 0 0 0 0 0 0 0 0 0 0 0 0 0 0 0 0 0 0 0 0 0 0 0 0 0 0 0 0
10 5 1 7 0 0 4 10 8 3 0 0 0 0 0 0 0 0 0 0 0 4 5 0 0 1 0 0 0 0 0 0 0 0 0 0 0 0 0 0 0 0 1 4 1 0 0
2 10 8 4 10 4 2 4 3 1 1 0 0 0 0 0 0 0 0 0 0 0 0 0 0 0 0 0 0 0 0 0 0 0 0 0 0 0 0 0 0 0 0 7 9 0 1
9 3 6 10 5 6 4 1 3 4 4 0 0 0 0 0 0 0 0 1 0 0 0 0 0 0 0 0 0 0 0 0 0 0 0 0 0 0 0 0 0 0 0 0 0 0 0
4 9 5 2 5 1 2 1 0 2 0 0 0 0 0 0 0 0 0 0 0 0 0 0 0 0 0 0 0 0 0 0 0 0 0 0 0 0 0 0 0 0 0 0 0 0 0
5 3 10 7 1 3 0 1 0 0 0 0 0 0 0 0 0 0 0 0 0 0 0 0 0 0 0 0 0 0 0 0 0 0 0 0 0 0 0 0 0 0 0 0 0 0 0
1 7 13 8 9 1 1 0 0 0 0 0 0 0 0 0 0 0 0 0 0 0 0 0 0 0 0 0 0 0 0 0 0 0 0 0 0 0 0 0 0 0 0 0 0 0 0
0 1 6 12 11 8 0 1 0 0 0 0 0 0 0 0 0 0 0 0 0 0 0 0 0 0 0 0 0 0 0 0 0 0 0 0 0 0 0 0 0 0 0 0 0 0 0
0 0 1 7 3 7 5 1 2 0 0 0 0 0 0 0 0 0 0 0 0 0 0 0 0 0 0 0 0 0 0 0 0 0 0 0 0 0 0 0 0 0 0 0 0 0 0
0 0 0 2 4 5 6 4 1 0 0 0 0 0 0 0 0 0 0 0 0 0 0 0 0 0 0 0 0 0 0 0 0 0 0 0 0 0 0 0 0 0 0 0 0 0 0
0 0 0 0 1 3 4 4 1 0 0 0 0 0 0 0 0 0 0 0 0 0 0 0 0 0 0 0 0 0 0 0 0 0 0 0 0 0 0 0 0 0 0 0 0 0 0
4 0 0 0 1 2 2 3 0 0 0 0 0 0 0 0 0 0 0 0 0 0 0 0 0 0 0 0 0 0 0 0 0 0 0 0 0 0 0 0 0 0 0 0 0 0 0
22 3 0 0 0 0 1 2 1 0 0 0 0 0 0 0 0 0 0 0 0 0 0 0 0 0 0 0 0 0 0 0 0 0 0 0 0 0 0 0 0 0 0 0 0 0 0
11 15 1 0 0 0 0 0 3 0 0 0 0 0 0 0 0 0 0 0 0 0 0 0 0 0 0 0 0 0 0 0 0 0 0 0 0 0 0 0 0 0 0 0 0 0 0
6 14 5 0 0 0 0 0 2 0 0 0 0 0 0 0 0 0 0 0 0 0 0 0 0 0 0 0 0 0 0 0 0 0 0 0 0 0 0 0 0 0 0 0 0 0 0
12 15 9 0 0 0 0 0 0 2 0 0 0 0 0 0 0 0 0 0 0 0 0 0 0 0 0 0 0 0 0 0 0 0 0 0 0 0 0 0 0 0 0 0 0 0 0
2 9 11 0 0 0 0 0 0 0 0 0 0 0 0 0 0 0 0 0 0 0 0 0 0 0 0 0 0 0 0 0 0 0 0 0 0 0 0 0 0 0 0 0 0 0 0

GFSGBSN_con_sbcape_108.txt.gz
CAPE
67 54 40 67 120 269 74 78 93 102 99 76 89 51 71 109 64 87 78 15 0 0 0 127 67 1 0 0 8 0 0 0 0 0 0 0 0 0 0 0 0 0 0 0 0 0 0
44 39 27 20 37 21 26 60 102 140 174 133 142 92 105 121 36 45 68 6 17 0 0 155 60 5 0 1 4 0 0 0 0 0 0 0 0 0 0 0 0 0 0 0 0 0 0
39 45 19 18 30 47 172 207 220 206 171 151 147 168 118 115 9 32 32 0 12 13 104 164 19 27 0 14 0 0 0 0 0 0 0 0 0 0 0 0 0 0 0 0 0 0 0
42 39 23 15 30 98 177 238 205 188 245 215 175 151 121 80 32 61 0 0 1 30 35 119 48 8 7 1 0 0 0 0 0 0 0 0 0 0 0 0 0 0 0 0 0 0 0
43 58 38 24 25 41 16 14 81 172 204 204 190 63 74 70 39 16 8 9 12 27 47 46 0 8 10 16 0 0 0 0 0 0 0 0 0 0 0 0 0 0 0 0 0 0 0
41 49 42 33 21 17 11 2 0 1 19 21 57 61 52 37 10 311 24 50 74 58 0 0 0 0 4 0 0 0 0 0 0 0 0 0 0 0 0 0 0 0 0 0 0 0 0
27 60 53 39 46 20 21 12 7 3 6 5 51 51 41 57 19 175 124 42 13 6 0 6 2 2 0 0 0 0 0 0 0 0 0 0 0 0 0 0 0 0 0 0 0 0 0
12 29 45 43 46 21 35 24 15 21 30 17 27 14 21 57 63 63 12 5 13 11 12 4 0 0 0 0 0 0 0 0 0 0 0 0 0 0 0 0 0 0 0 0 0 0 0
6 6 15 19 25 24 24 28 43 49 49 43 19 7 6 14 6 21 5 17 15 2 2 7 0 0 0 0 0 0 0 0 0 0 0 0 0 0 0 0 0 0 0 0 0 0 0
22 7 1 4 10 23 32 33 17 24 43 31 23 3 0 1 0 0 2 1 1 2 6 6 2 0 0 0 0 0 0 0 0 0 0 0 0 0 0 0 0 0 0 0 0 5 3
31 27 23 11 3 3 6 19 19 15 11 26 10 6 0 0 2 4 0 0 0 1 0 8 1 0 0 0 0 0 0 0 0 0 0 0 0 0 0 0 0 0 0 0 2 9 9
15 15 8 10 13 13 14 10 12 6 0 0 0 0 0 0 0 0 0 0 0 8 3 4 0 0 0 0 0 0 0 0 0 0 0 0 0 0 0 0 0 0 0 4 4 6 3
7 14 17 9 10 9 5 3 2 7 4 0 0 0 0 0 0 0 0 0 1 8 0 0 1 0 0 0 0 0 0 0 0 1 2 0 0 0 0 0 0 0 4 5 6 8 0
15 9 15 16 13 9 9 7 4 2 0 0 0 0 0 0 0 0 0 0 1 9 7 0 2 2 3 2 0 0 0 1 0 0 0 0 0 0 0 0 0 1 3 4 3 4 2
8 10 10 11 10 8 7 3 3 2 1 0 0 0 0 0 0 0 0 5 10 1 0 1 0 0 3 0 0 0 0 0 0 0 1 3 0 0 0 0 0 3 4 5 12 14 10
3 8 8 8 8 6 4 5 1 3 0 0 0 0 0 0 0 0 0 3 0 0 0 0 0 0 0 0 0 0 0 0 0 0 0 0 1 0 0 0 0 1 0 5 23 5 0
4 2 11 3 6 2 2 2 3 2 0 0 0 0 0 0 0 0 1 0 0 0 0 0 0 0 0 0 0 0 0 0 0 0 0 0 0 0 0 0 0 2 6 5 1 1 2
0 6 6 4 7 3 0 2 2 1 0 0 0 0 0 0 0 0 1 0 0 0 0 0 0 0 0 0 0 0 0 0 0 0 0 0 1 0 0 0 0 0 0 0 0 0 5
0 0 5 7 2 7 2 0 1 0 0 0 0 0 0 0 0 0 0 0 0 0 0 0 0 0 0 0 0 0 0 0 0 0 0 0 0 0 0 0 0 0 0 0 0 0 0
0 0 1 4 2 7 3 3 4 0 0 0 0 0 0 0 0 0 0 0 0 0 0 0 0 0 0 0 0 0 0 0 0 0 0 0 1 0 0 0 0 0 0 0 0 3 0
0 0 0 0 3 4 1 2 2 1 0 0 0 0 0 0 0 0 0 0 0 0 0 0 0 0 0 0 0 0 0 0 0 0 0 0 2 0 0 0 0 0 0 0 1 0 0
0 0 0 0 0 2 1 2 0 0 0 0 0 0 0 0 0 0 0 0 0 0 0 0 0 0 0 0 0 0 0 0 0 0 0 0 4 0 0 0 0 0 0 0 0 0 0
5 0 0 0 0 0 1 3 0 0 0 0 0 0 0 0 0 0 0 0 0 0 0 0 0 0 0 0 0 0 0 0 0 0 0 0 0 0 0 0 0 0 0 0 0 0 0
11 8 0 0 0 0 0 1 0 0 0 0 0 0 0 0 0 0 0 0 0 0 0 0 0 0 0 0 0 0 0 0 0 0 0 0 0 0 6 0 0 0 0 0 0 0 0
0 5 2 0 0 0 0 0 1 0 0 0 0 0 0 0 0 0 0 0 0 0 0 0 0 0 0 0 0 0 0 0 0 0 0 0 3 9 2 0 0 0 0 0 0 0 0
0 0 6 0 0 0 0 0 1 0 0 0 0 0 0 0 0 0 0 0 0 0 0 0 0 0 0 0 0 0 0 0 0 0 0 0 1 0 1 0 0 0 0 0 0 0 0
0 0 0 0 0 0 0 0 0 2 0 0 0 0 0 0 0 0 0 0 0 0 0 0 0 0 0 0 0 0 0 0 0 0 0 1 4 6 4 0 0 0 0 0 0 0 0
1 0 0 0 0 0 0 0 0 1 0 0 0 0 0 0 0 0 0 0 0 0 0 0 0 0 0 0 0 0 0 0 0 0 0 0 0 0 2 4 0 0 0 0 0 0 0
6 2 3 0 0 0 0 0 0 0 1 0 0 0 0 0 0 0 0 0 0 0 0 0 0 0 0 0 0 0 0 0 0 0 0 0 0 0 0 0 0 0 0 0 0 0 0

GFSGBSN_con_sbcape_111.txt.gz
CAPE
17 13 24 26 26 29 32 7 101 125 121 81 46 23 36 84 102 32 0 0 0 0 0 132 4 1 0 5 3 0 0 0 0 0 0 0 0 0 0 0 0 0 0 0 0 0 0
19 13 33 29 36 88 156 187 201 170 121 92 77 18 52 32 16 57 5 0 0 0 0 117 17 3 4 1 2 0 0 0 0 0 0 0 0 0 0 0 0 0 0 0 0 0 0
37 15 56 28 57 62 101 165 202 177 104 84 63 52 97 13 79 50 16 0 8 0 2 84 53 0 0 5 0 0 0 0 0 0 0 0 0 0 0 0 0 0 0 0 0 0 0
26 49 66 31 45 45 42 71 121 158 210 171 104 99 115 71 2 1 0 0 7 53 203 65 0 0 1 0 0 0 0 0 0 0 0 0 0 0 0 0 0 0 0 0 0 0 0
35 50 64 41 42 63 36 46 38 35 41 99 82 84 68 46 11 0 0 0 30 64 103 49 0 0 1 0 0 0 0 0 0 0 0 0 0 0 0 0 0 0 0 0 0 0 0
28 42 53 61 58 48 47 32 31 20 26 50 43 14 21 15 2 2 1 44 76 36 6 2 0 0 0 0 0 0 0 0 0 0 0 0 0 0 0 0 0 0 0 0 0 0 0
16 11 25 27 43 38 49 50 53 58 17 20 4 20 60 108 482 115 56 55 0 0 18 18 6 3 9 0 0 0 0 0 0 0 0 0 0 0 0 0 0 0 0 0 0 0 0
22 11 3 7 13 29 49 59 64 52 59 9 1 32 51 93 52 21 2 7 11 3 10 8 1 4 3 1 0 0 0 0 0 0 0 0 0 0 0 0 0 0 0 0 0 0 0
42 39 20 16 15 11 23 46 66 61 34 21 0 4 25 41 57 24 2 9 17 8 9 15 5 2 0 0 0 0 0 0 0 0 0 0 0 0 0 0 0 0 0 0 0 0 0
11 15 20 15 33 32 42 45 46 46 41 4 4 0 0 0 25 8 1 0 3 4 5 3 2 0 0 0 0 0 0 0 0 0 0 0 0 0 0 0 0 0 0 0 0 1 0
9 14 15 15 11 12 15 26 44 52 19 2 0 3 0 0 8 13 0 2 0 8 14 0 3 0 0 0 0 0 0 0 0 0 0 0 0 0 0 0 0 0 0 0 3 1 2
8 9 6 10 6 9 8 12 6 9 22 0 0 0 0 0 0 0 0 0 0 14 5 6 4 1 0 0 0 0 0 0 0 0 0 0 0 0 0 0 0 0 0 0 3 3 3
11 12 11 8 9 15 16 6 8 1 0 0 0 0 0 0 0 0 0 0 4 10 0 2 3 1 0 0 0 0 0 0 0 0 0 0 0 0 0 1 0 0 3 9 4 3 1
12 8 10 9 5 4 10 10 3 7 0 0 0 0 0 0 0 0 0 0 3 3 2 0 0 0 0 0 0 0 0 0 0 0 0 2 0 0 0 0 1 1 0 3 1 8 2
5 11 15 5 10 4 2 4 4 4 0 0 0 0 0 0 0 0 0 10 10 1 0 0 0 0 0 0 0 0 0 0 0 0 0 6 2 0 0 0 0 3 3 2 9 4 3
4 11 14 4 7 6 4 3 3 1 0 0 0 0 0 0 0 0 0 1 0 0 0 0 0 0 0 0 0 0 0 0 0 0 0 0 2 0 0 0 0 2 0 1 9 1 0
2 3 8 7 6 3 2 4 4 0 0 0 0 0 0 0 0 0 7 0 0 0 0 0 0 0 0 0 0 0 0 0 0 0 0 0 0 0 0 0 0 2 0 0 0 0 2
4 2 2 4 3 5 2 0 1 0 0 0 0 0 0 0 0 0 5 0 0 0 0 0 0 0 0 0 0 0 0 0 0 0 0 0 0 0 0 0 0 0 0 0 0 0 5
2 3 0 2 3 3 3 1 1 0 0 0 0 0 0 0 0 0 0 0 0 0 0 0 0 0 0 0 0 0 0 0 0 0 0 0 0 0 0 0 0 0 0 0 0 0 0
0 2 2 0 3 6 2 4 1 0 0 0 0 0 0 0 0 0 0 0 0 0 0 0 0 0 0 0 0 0 0 0 0 0 0 0 0 0 0 0 0 0 0 0 4 9 0
6 0 0 1 0 0 1 2 1 0 0 0 0 0 0 0 0 0 0 0 0 0 0 0 0 0 0 0 0 0 0 0 0 0 0 0 0 0 0 0 0 0 0 0 0 0 7
8 4 0 0 0 0 0 2 1 0 0 0 0 0 0 0 0 0 0 0 0 0 0 0 0 0 0 0 0 0 0 0 0 0 0 3 1 0 0 0 0 0 0 0 0 0 0
1 5 1 0 0 0 0 4 1 0 0 0 0 0 0 0 0 0 0 0 0 0 0 0 0 0 0 0 0 0 0 0 0 0 0 1 1 1 0 0 0 0 0 0 0 0 0
0 0 0 0 0 0 0 0 3 0 0 0 0 0 0 0 0 0 0 0 0 0 0 0 0 0 0 0 0 0 0 0 0 0 0 0 3 8 3 0 0 0 0 0 0 0 0
0 0 0 0 0 0 0 0 0 0 0 0 0 0 0 0 0 0 0 0 0 0 0 0 0 0 0 0 0 0 0 0 0 0 0 1 2 5 3 0 0 0 0 0 0 0 0
0 0 0 0 0 0 0 0 0 0 0 0 0 0 0 0 0 0 0 0 0 0 0 0 0 0 0 0 0 0 0 0 0 0 0 0 4 2 0 1 0 0 0 0 0 0 0
1 0 0 0 0 0 0 0 0 0 0 0 0 0 0 0 0 0 0 0 0 0 0 0 0 0 0 0 0 0 0 0 0 0 0 1 0 3 7 4 0 0 0 0 0 0 0
6 4 0 0 0 0 0 0 0 0 0 0 0 0 0 0 0 0 0 0 0 0 0 0 0 0 0 0 0 0 0 0 0 0 0 0 0 1 1 1 0 0 0 0 0 0 0
11 11 4 0 0 0 0 0 0 0 0 0 0 0 0 0 0 0 0 0 0 0 0 0 0 0 0 0 0 0 0 0 0 0 0 0 0 0 0 0 0 0 0 0 0 0 0

GFSGBSN_con_sbcape_114.txt.gz
CAPE
19 40 38 24 62 88 121 183 152 142 119 119 76 103 155 165 58 3 0 0 0 0 1 103 1 0 2 0 0 0 0 0 0 0 0 0 0 0 0 0 0 0 0 0 0 0 0
20 34 28 43 53 64 90 157 237 168 135 122 55 68 34 29 33 0 0 1 0 0 146 36 6 12 0 0 0 0 0 0 0 0 0 0 0 0 0 0 0 0 0 0 0 0 0
20 45 39 56 59 51 37 53 105 158 138 83 48 37 0 0 37 21 3 2 2 0 143 94 46 0 0 0 0 0 0 0 0 0 0 0 0 0 0 0 0 0 0 0 0 0 0
31 40 48 57 72 57 56 33 40 23 104 108 107 55 39 19 18 14 0 3 82 179 73 123 26 0 0 0 0 0 0 0 0 0 0 0 0 0 0 0 0 0 0 0 0 0 0
23 24 27 33 41 63 76 73 43 34 85 105 101 101 32 97 32 0 0 46 89 65 15 1 0 0 0 0 0 0 0 0 0 0 0 0 0 0 0 0 0 0 0 0 0 0 0
16 17 20 29 47 76 91 102 96 55 52 41 116 139 131 40 24 0 61 54 9 10 0 0 0 0 0 0 0 0 0 0 0 0 0 0 0 0 0 0 0 0 0 0 0 0 0
36 34 27 29 32 47 88 87 81 73 25 42 129 210 372 105 80 52 29 8 0 0 9 14 1 0 0 0 0 0 0 0 0 0 0 0 0 0 0 0 0 0 0 0 0 0 0
17 25 28 44 56 59 71 72 63 82 53 0 74 76 85 90 63 4 2 0 4 2 4 15 4 0 0 0 0 0 0 0 0 0 0 0 0 0 0 0 0 0 0 0 0 0 0
18 24 13 27 37 38 54 62 39 41 31 0 12 20 19 28 7 10 0 8 6 0 2 6 7 3 0 0 0 0 0 0 0 0 0 0 0 0 0 0 0 0 0 0 0 0 0
9 13 9 12 16 27 33 39 41 0 2 17 0 0 0 3 3 1 0 0 0 1 0 4 2 0 0 0 0 0 0 0 0 0 0 0 0 0 0 0 0 0 0 0 0 0 0
16 13 12 21 17 12 15 11 32 22 0 0 0 0 0 0 0 0 0 1 0 0 0 0 0 0 0 0 0 0 0 0 0 0 0 0 0 0 0 0 0 0 0 0 0 0 0
11 7 10 14 17 9 12 8 6 4 0 0 0 0 0 0 3 0 0 0 0 0 0 0 0 0 0 0 0 0 0 0 0 0 0 0 0 0 0 0 0 0 0 0 0 0 0
4 5 8 5 8 10 9 7 2 1 0 0 0 0 0 0 0 0 0 0 0 2 0 0 0 0 0 0 0 0 0 0 0 0 0 0 0 0 0 0 0 0 0 0 0 0 0
7 12 6 7 8 9 9 8 5 1 0 0 0 0 0 0 0 0 0 0 0 0 1 0 0 0 0 0 0 0 0 0 0 0 0 0 0 0 0 0 0 0 0 0 0 0 0
6 8 9 7 6 8 7 7 4 1 0 0 0 0 0 0 0 0 0 0 0 0 0 0 0 0 0 0 0 0 0 0 0 0 0 0 0 0 0 0 0 0 0 0 0 0 0
6 4 4 3 7 4 5 4 4 1 0 0 0 0 0 0 0 0 0 0 0 0 0 0 0 0 0 0 0 0 0 0 0 0 0 0 0 0 0 0 0 0 0 0 0 0 0
6 5 3 3 2 3 2 2 3 1 0 0 0 0 0 0 0 0 0 0 0 0 0 0 0 0 0 0 0 0 0 0 0 0 0 0 0 0 0 0 0 0 0 0 0 0 0
2 4 2 1 1 1 2 2 1 1 0 0 0 0 0 0 0 0 0 0 0 0 0 0 0 0 0 0 0 0 0 0 0 0 0 0 0 0 0 0 0 0 0 0 0 0 0
2 1 2 0 0 1 0 1 0 0 0 0 0 0 0 0 0 0 0 0 0 0 0 0 0 0 0 0 0 0 0 0 0 0 0 0 0 0 0 0 0 0 0 0 0 0 0
2 0 0 0 0 0 1 0 1 0 0 0 0 0 0 0 0 0 0 0 0 0 0 0 0 0 0 0 0 0 0 0 0 0 0 0 0 0 0 0 0 0 0 0 0 0 0
1 4 0 0 0 0 0 1 1 0 0 0 0 0 0 0 0 0 0 0 0 0 0 0 0 0 0 0 0 0 0 0 0 0 0 0 0 0 0 0 0 0 0 0 0 0 0
0 0 0 0 0 0 0 0 0 0 0 0 0 0 0 0 0 0 0 0 0 0 0 0 0 0 0 0 0 0 0 0 0 0 0 0 0 0 0 0 0 0 0 0 0 0 0
0 0 0 0 0 0 0 0 0 0 0 0 0 0 0 0 0 0 0 0 0 0 0 0 0 0 0 0 0 0 0 0 0 0 0 0 0 0 0 0 0 0 0 0 0 0 0
0 0 1 0 0 0 0 0 0 0 0 0 0 0 0 0 0 0 0 0 0 0 0 0 0 0 0 0 0 0 0 0 0 0 0 0 0 0 0 0 0 0 0 0 0 0 0
0 1 0 0 0 0 0 0 0 0 0 0 0 0 0 0 0 0 0 0 0 0 0 0 0 0 0 0 0 0 0 0 0 0 0 0 0 0 0 0 0 0 0 0 0 0 0
3 0 1 3 0 0 0 0 0 0 0 0 0 0 0 0 0 0 0 0 0 0 0 0 0 0 0 0 0 0 0 0 0 0 0 0 0 0 0 0 0 0 0 0 0 0 0
9 6 1 0 0 0 0 0 0 0 0 0 0 0 0 0 0 0 0 0 0 0 0 0 0 0 0 0 0 0 0 0 0 0 0 0 0 1 1 0 0 0 0 0 0 0 0
10 10 11 5 0 0 0 0 0 0 0 0 0 0 0 0 0 0 0 0 0 0 0 0 0 0 0 0 0 0 0 0 0 0 0 0 0 0 1 0 0 0 0 0 0 0 0
4 9 9 10 4 0 0 0 0 0 0 0 0 0 0 0 0 0 0 0 0 0 0 0 0 0 0 0 0 0 0 0 0 0 0 0 0 0 0 0 0 0 0 0 0 0 0

GFSGBSN_con_sbcape_117.txt.gz
CAPE
26 30 48 34 11 16 93 162 209 156 112 81 150 252 229 153 49 20 13 8 0 42 173 48 1 1 0 0 0 0 0 0 0 0 0 0 0 0 0 0 0 0 0 0 0 0 0
39 31 53 63 58 39 30 46 129 136 48 39 47 29 37 53 28 5 4 31 0 317 144 79 10 0 0 0 0 0 0 0 0 0 0 0 0 0 0 0 0 0 0 0 0 0 0
31 21 34 64 81 97 61 29 35 114 116 42 39 5 18 93 36 8 16 83 1 347 160 77 0 0 0 0 0 0 0 0 0 0 0 0 0 0 0 0 0 0 0 0 0 0 0
25 22 34 78 96 126 118 30 29 82 109 122 58 26 15 7 3 0 69 151 201 227 165 60 0 0 0 0 0 0 0 0 0 0 0 0 0 0 0 0 0 0 0 0 0 0 0
52 52 46 56 90 110 129 59 38 39 27 117 84 1 25 23 4 25 188 263 240 167 105 2 0 0 0 0 0 0 0 0 0 0 0 0 0 0 0 0 0 0 0 0 0 0 0
31 41 45 76 92 92 96 79 35 1 41 123 249 188 135 12 39 123 79 23 16 8 6 0 0 0 0 0 0 0 0 0 0 0 0 0 0 0 0 0 0 0 0 0 0 0 0
44 48 53 56 65 82 59 70 50 21 29 60 322 148 92 59 104 20 0 0 0 0 0 2 0 0 0 0 0 0 0 0 0 0 0 0 0 0 0 0 0 0 0 0 0 0 0
25 35 42 44 42 57 43 22 22 16 9 34 47 164 76 62 7 0 0 0 0 0 4 0 0 0 0 0 0 0 0 0 0 0 0 0 0 0 0 0 0 0 0 0 0 0 0
23 15 43 41 36 25 31 34 10 7 4 6 6 28 30 12 0 0 0 1 0 0 0 0 0 0 0 0 0 0 0 0 0 0 0 0 0 0 0 0 0 0 0 0 0 0 0
19 11 18 31 27 22 11 10 9 0 1 3 0 0 1 1 0 0 0 0 0 0 0 0 0 0 0 0 0 0 0 0 0 0 0 0 0 0 0 0 0 0 0 0 0 0 0
14 13 12 13 16 12 10 6 2 0 0 3 0 0 1 0 0 0 0 0 0 0 0 0 0 0 0 0 0 0 0 0 0 0 0 0 0 0 0 0 0 0 0 0 0 0 0
5 8 4 6 5 4 4 6 4 0 0 0 0 0 0 0 0 0 0 0 0 0 0 0 0 0 0 0 0 0 0 0 0 0 0 0 0 0 0 0 0 0 0 0 0 0 0
8 5 3 2 2 7 8 7 2 0 0 0 0 0 0 0 0 0 0 0 0 0 0 0 0 0 0 0 0 0 0 0 0 0 0 0 0 0 0 0 0 0 0 0 0 0 0
5 11 7 7 5 6 7 6 5 1 0 0 0 0 0 0 0 0 0 0 0 0 0 0 0 0 0 0 0 0 0 0 0 0 0 0 0 0 0 0 0 0 0 0 0 0 0
5 1 7 8 4 5 6 6 4 1 0 0 0 0 0 0 0 0 0 0 0 0 0 0 0 0 0 0 0 0 0 0 0 0 0 0 0 0 0 0 0 0 0 0 0 0 0
6 4 0 1 2 2 2 3 4 2 0 0 0 0 0 0 0 0 0 0 0 0 0 0 0 0 0 0 0 0 0 0 0 0 0 0 0 0 0 0 0 0 0 0 0 0 0
6 7 3 0 0 0 1 1 2 1 0 0 0 0 0 0 0 0 0 0 0 0 0 0 0 0 0 0 0 0 0 0 0 0 0 0 0 0 0 0 0 0 0 0 0 0 0
3 4 5 1 0 0 0 1 2 0 0 0 0 0 0 0 0 0 0 0 0 0 0 0 0 0 0 0 0 0 0 0 0 0 0 0 0 0 0 0 0 0 0 0 0 0 0
3 0 1 0 0 0 0 0 1 0 0 0 0 0 0 0 0 0 0 0 0 0 0 0 0 0 0 0 0 0 0 0 0 0 0 0 0 0 0 0 0 0 0 0 0 0 0
4 2 0 0 1 0 0 0 1 0 0 0 0 0 0 0 0 0 0 0 0 0 0 0 0 0 0 0 0 0 0 0 0 0 0 0 0 0 0 0 0 0 0 0 0 0 0
0 1 0 0 0 0 0 0 0 0 0 0 0 0 0 0 0 0 0 0 0 0 0 0 0 0 0 0 0 0 0 0 0 0 0 0 0 0 0 0 0 0 0 0 0 0 0
0 0 0 0 0 0 0 0 0 0 0 0 0 0 0 0 0 0 0 0 0 0 0 0 0 0 0 0 0 0 0 0 0 0 0 0 0 0 0 0 0 0 0 0 0 0 0
2 0 0 0 0 0 0 0 0 0 0 0 0 0 0 0 0 0 0 0 0 0 0 0 0 0 0 0 0 0 0 0 0 0 0 0 0 0 0 0 0 0 0 0 0 0 0
6 5 1 0 0 0 0 0 0 0 0 0 0 0 0 0 0 0 0 0 0 0 0 0 0 0 0 0 0 0 0 0 0 0 0 0 0 0 0 0 0 0 0 0 0 0 0
8 9 5 0 0 0 0 0 0 0 0 0 0 0 0 0 0 0 0 0 0 0 0 0 0 0 0 0 0 0 0 0 0 0 0 0 0 0 0 0 0 0 0 0 0 0 0
5 8 7 0 0 0 0 0 0 0 0 0 0 0 0 0 0 0 0 0 0 0 0 0 0 0 0 0 0 0 0 0 0 0 0 0 0 0 0 0 0 0 0 0 0 0 0
4 6 8 7 1 0 0 0 0 0 0 0 0 0 0 0 0 0 0 0 0 0 0 0 0 0 0 0 0 0 0 0 0 0 0 0 0 0 1 0 0 0 0 0 0 0 0
2 7 7 6 8 2 0 0 0 0 0 0 0 0 0 0 0 0 0 0 0 0 0 0 0 0 0 0 0 0 0 0 0 0 0 0 0 0 0 0 0 0 0 0 0 0 0
1 0 4 5 7 8 4 0 0 0 0 0 0 0 0 0 0 0 0 0 0 0 0 0 0 0 0 0 0 0 0 0 0 0 0 0 0 0 0 0 0 0 0 0 0 0 0